     2.11           OBSERVATION DATA    G (GPS)             RINEX VERSION / TYPE
teqc 2010Oct21 OPUS Account 20111027 19:05:49UTC            PGM / RUN BY / DATE
P 1525                                                      MARKER NAME
3022                                                        MARKER NUMBER
CSMIDDLETON NGS                                             OBSERVER / AGENCY
0220316069 TRIMBLE 5700 1.30                                REC # / TYPE / VERS
60183425 TRM41249.00 NONE                                   ANT # / TYPE
  -760661.6380 -5551975.8626  3035832.4135                  APPROX POSITION XYZ
        2.0010        0.0000        0.0000                  ANTENNA: DELTA H/E/N
     1     1                                                WAVELENGTH FACT L1/2
     5    L1    L2    C1    P1    P2                        # / TYPES OF OBSERV
    15                                                      LEAP SECONDS
  2011     8    19     0     0   30.0000000     GPS         TIME OF FIRST OBS
                                                            END OF HEADER
 11  8 19  0  0 30.0000000  0  7G12G17G10G05G04G09G02
 -31357040.26658 -24403735.17956  22191025.7894                   22191024.7894
 -95268621.20357 -74205048.32655  22850727.5634                   22850727.3874
 -49043559.00058 -38192052.13556  21157228.1174                   21157227.2154
 -20536993.49657 -15971835.03155  22995896.8134                   22995898.3324
 -76965942.37158 -59941494.16656  21151720.4694                   21151720.3244
 -45284945.68057 -35255916.93455  23111067.0864                   23111068.5784
 -59061357.00858 -45990595.65457  20806936.8134                   20806933.2934
 11  8 19  0  1  0.0000000  0  7G12G17G10G05G04G09G02
 -31551387.64547 -24555174.66046  22154042.6644                   22154041.7344
 -95339361.60547 -74260170.75545  22837265.9384                   22837265.9224
 -49189999.93747 -38306161.92546  21129361.1024                   21129360.6684
 -20754839.89847 -16141585.33745  22954441.9064                   22954442.8954
 -77015022.84848 -59979738.72446  21142381.2734                   21142381.0824
 -45335118.46946 -35295012.67844  23101519.2894                   23101520.9184
 -59193553.30548 -46093605.73347  20781780.2504                   20781777.4024
 11  8 19  0  1 30.0000000  0  7G12G17G10G05G04G09G02
 -31745375.70347 -24706334.17746  22117127.6954                   22117127.5204
 -95409926.46147 -74315156.40245  22823838.3594                   22823837.9964
 -49335806.99648 -38419777.78846  21101615.0784                   21101614.5274
 -20972476.02047 -16311171.83945  22913026.9224                   22913027.3984
 -77063811.51648 -60017755.88846  21133096.8524                   21133096.4844
 -45384913.82446 -35333814.28644  23092043.4614                   23092045.0124
 -59325362.94148 -46196314.53147  20756698.0164                   20756695.0474
 11  8 19  0  2  0.0000000  0  7G12G17G10G05G04G09G02
 -31939012.53947 -24857219.99246  22080280.1884                   22080278.8284
 -95480324.75047 -74370012.24645  22810441.9614                   22810441.7234
 -49480988.48048 -38532906.18446  21073987.6804                   21073987.0784
 -21189908.72347 -16480599.78145  22871650.5314                   22871651.7854
 -77112320.60248 -60055555.18546  21123866.0234                   21123865.6684
 -45434345.25447 -35372332.34844  23082637.0474                   23082638.8634
 -59456796.48448 -46298730.25346  20731687.3204                   20731683.8134
 11  8 19  0  2 30.0000000  0  7G12G17G10G05G04G09G02
 -32132294.12547 -25007828.99746  22043499.9774                   22043499.1024
 -95550555.07447 -74424737.20945  22797077.7814                   22797077.6524
 -49625541.77348 -38645545.07546  21046480.0944                   21046480.0784
 -21407133.82447 -16649865.98245  22830313.4304                   22830315.4264
 -77160551.28548 -60093137.56346  21114687.9454                   21114687.6294
 -45483414.94547 -35410568.50744  23073299.4694                   23073301.0864
 -59587853.59848 -46400852.66047  20706747.7504                   20706744.6484
 11  8 19  0  3  0.0000000  0  7G12G17G10G05G04G09G02
 -32325215.40648 -25158157.23446  22006788.0784                   22006787.0984
 -95620614.19547 -74479328.75245  22783745.8914                   22783745.6604
 -49769462.80948 -38757691.30046  21019092.8364                   21019092.4614
 -21624146.00447 -16818966.27245  22789017.6484                   22789018.6724
 -77208503.33648 -60130502.82046  21105563.1094                   21105562.7734
 -45532123.64847 -35448523.39144  23064031.0234                   23064032.0084
 -59718532.85248 -46502680.62946  20681880.0234                   20681877.0084
 11  8 19  0  3 30.0000000  0  7G12G17G10G05G04G09G02
 -32517771.04748 -25308200.55446  21970145.5634                   21970144.9264
 -95690498.79747 -74533784.32745  22770447.1954                   22770446.7194
 -49912747.05948 -38869341.32246  20991826.8674                   20991826.4654
 -21840939.62547 -16987896.25545  22747763.3364                   22747764.0554
 -77256176.29748 -60167650.60246  21096491.2974                   21096491.0004
 -45580472.00847 -35486197.50344  23054830.0004                   23054831.6724
 -59848832.25048 -46604212.59846  20657084.7504                   20657081.5084
 11  8 19  0  4  0.0000000  0  7G12G17G10G05G04G09G02
 -32709955.76648 -25457954.85546  21933574.2734                   21933573.7304
 -95760205.53147 -74588101.30645  22757182.4924                   22757182.3674
 -50055390.33248 -38980491.88546  20964682.6804                   20964682.5164
 -22057508.61747 -17156651.20145  22706551.5394                   22706552.4064
 -77303569.77348 -60204580.60546  21087472.4064                   21087471.9414
 -45628460.72747 -35523591.34744  23045698.6884                   23045700.2154
 -59978749.94548 -46705447.14347  20632362.4144                   20632359.0474
 11  8 19  0  4 30.0000000  0  7G12G17G10G05G04G09G02
 -32901763.75048 -25607415.61546  21897074.4224                   21897073.0704
 -95829730.49647 -74642276.64745  22743952.9844                   22743952.3164
 -50197388.18048 -39091139.52746  20937661.5784                   20937661.1174
 -22273846.85547 -17325226.34845  22665383.2814                   22665383.9264
 -77350682.97748 -60241292.19446  21078507.1414                   21078506.7814
 -45676090.04347 -35560705.13644  23036634.7894                   23036636.4844
 -60108283.68048 -46806382.49846  20607713.0704                   20607710.1294
 11  8 19  0  5  0.0000000  0  7G12G17G10G05G04G09G02
 -33093194.88747 -25756582.70146  21860646.3834                   21860645.2344
 -95899075.50447 -74696311.79445  22730756.3914                   22730756.2504
 -50338741.47748 -39201284.93346  20910762.6644                   20910762.3134
 -22489953.91447 -17493621.35745  22624259.5784                   22624259.9844
 -77397520.35248 -60277788.86546  21069594.2194                   21069593.7974
 -45723365.71947 -35597543.36844  23027638.3914                   23027639.6564
 -60237436.73848 -46907021.21746  20583135.9384                   20583133.1804
 11  8 19  0  5 30.0000000  0  7G12G17G10G05G04G09G02
 -33284246.19547 -25905453.83646  21824290.5554                   21824289.3094
 -95968239.65647 -74750205.99145  22717594.9224                   22717594.9574
 -50479448.71948 -39310926.91146  20883986.8204                   20883986.6764
 -22705826.64847 -17661833.75945  22583180.4844                   22583180.8714
 -77444084.19148 -60314072.38346  21060733.8834                   21060733.3324
 -45770290.58647 -35634108.26144  23018708.9384                   23018710.0434
 -60366209.67248 -47007363.75147  20558631.4384                   20558628.2934
 11  8 19  0  6  0.0000000  0  7G12G17G10G05G04G09G02
 -33474919.35948 -26054030.29246  21788006.3674                   21788005.5084
 -96037226.22747 -74803961.81245  22704467.3914                   22704466.7464
 -50619512.12548 -39420067.21346  20857333.6884                   20857333.1484
 -22921465.78547 -17829864.13745  22542145.6884                   22542146.3094
 -77490380.46548 -60350147.40046  21051923.7814                   21051923.2704
 -45816872.06247 -35670405.56644  23009845.0944                   23009845.5004
 -60494607.33248 -47107413.85247  20534198.2114                   20534195.1764
 11  8 19  0  6 30.0000000  0  8G12G30G17G10G05G04G09G02
 -33665211.64547 -26202309.96646  21751794.7504                   21751793.7704
   -327017.50056   -229516.53453  24199027.9064                   24199029.5664
 -96106034.77747 -74857578.89145  22691373.6954                   22691373.5234
 -50758930.48448 -39528704.87146  20830803.0164                   20830802.3594
 -23136868.46147 -17997710.27145  22501155.4844                   22501155.5474
 -77536411.79348 -60386015.97646  21043164.2034                   21043164.0784
 -45863113.67647 -35706438.01044  23001045.7274                   23001046.6294
 -60622630.52748 -47207172.16646  20509835.5394                   20509832.8164
 11  8 19  0  7  0.0000000  0  8G12G30G17G10G05G04G09G02
 -32279707.15247 -25122696.05846  22015447.6334                   22015446.8714
   1026768.89546    825381.89143  24456645.4304                   24456646.8524
 -94599255.16847 -73683464.95345  22978104.0314                   22978103.8594
 -49322290.96148 -38409245.48346  21104186.9064                   21104186.5944
 -21776617.49247 -16937774.35045  22760003.0704                   22760003.3554
 -76006771.78948 -59194088.71246  21334245.2274                   21334244.4104
 -44333610.09447 -34514617.10644  23292100.1804                   23292102.4654
 -59174869.03548 -46079046.31246  20785335.7974                   20785332.7034
 11  8 19  0  7 30.0000000  0  8G12G30G17G10G05G04G09G02
 -32469256.79748 -25270397.04546  21979377.6804                   21979376.4964
    805328.78146    652831.16143  24414506.9694                   24414507.9064
 -94667732.01647 -73736823.56545  22965073.5634                   22965073.1134
 -49460442.04748 -38516895.65146  21077897.6094                   21077897.3244
 -21991564.85247 -17105265.68145  22719099.1644                   22719100.3524
 -76052306.34048 -59229570.18846  21325580.2344                   21325579.7384
 -44379208.53547 -34550148.41144  23283423.2664                   23283425.1564
 -59302172.89848 -46178244.10446  20761110.6644                   20761107.4304
 11  8 19  0  8  0.0000000  0  8G12G30G17G10G05G04G09G02
 -32658427.93447 -25417803.07746  21943379.6724                   21943378.5514
    584095.99646    480441.93943  24372408.0314                   24372408.2774
 -94736038.84847 -73790049.69045  22952074.7584                   22952075.0164
 -49597954.11748 -38624047.87346  21051729.7664                   21051729.4964
 -22206276.98047 -17272573.70845  22678240.8914                   22678242.1054
 -76097592.42648 -59264858.05546  21316962.5634                   21316962.2894
 -44424487.03147 -34585430.41244  23274807.0004                   23274808.7074
 -59429115.17248 -46277160.14447  20736954.4844                   20736951.4494
 11  8 19  0  8 30.0000000  0  8G12G30G17G10G05G04G09G02
 -32847215.10947 -25564909.92946  21907454.5004                   21907453.5664
    363075.44946    308218.18243  24330349.1414                   24330350.0554
 -94804172.88747 -73843141.17145  22939109.4064                   22939109.0354
 -49734823.76248 -38730699.51846  21025684.3364                   21025684.0744
 -22420748.21547 -17439694.03345  22637428.0944                   22637429.1914
 -76142630.28148 -59299952.51246  21308392.0784                   21308391.7734
 -44469446.46547 -34620463.79744  23266251.9224                   23266253.1764
 -59555694.43748 -46375793.32247  20712867.2274                   20712863.8094
 11  8 19  0  9  0.0000000  0  8G12G30G17G10G05G04G09G02
 -33035616.00447 -25711715.78246  21871603.1254                   21871602.3204
    142270.50046    136162.37543  24288331.1024                   24288331.8554
 -94872132.91047 -73896097.08345  22926177.6334                   22926177.1804
 -49871049.38347 -38836849.31746  20999761.2814                   20999760.8164
 -22634975.36747 -17606624.15945  22596662.4144                   22596663.1524
 -76187421.32847 -59334854.63946  21299869.1254                   21299868.0944
 -44514089.78947 -34655250.87044  23257756.7734                   23257757.8054
 -59681911.12148 -46474143.95847  20688848.8364                   20688845.6954
 11  8 19  0  9 30.0000000  0  8G12G30G17G10G05G04G09G02
 -33223626.48048 -25858217.41746  21835825.5784                   21835824.4844
    -78314.55147    -35722.02843  24246355.5704                   24246355.6094
 -94939916.96947 -73948915.87345  22913278.8204                   22913278.4064
 -50006628.18047 -38942495.09646  20973961.7584                   20973961.0354
 -22848953.76247 -17773360.47145  22555943.2274                   22555943.4494
 -76231966.61347 -59369565.26246  21291391.8674                   21291391.3794
 -44558419.17247 -34689793.26944  23249321.0784                   23249322.3674
 -59807764.50448 -46572211.51047  20664899.6884                   20664896.3164
 11  8 19  0 10  0.0000000  0  8G12G30G17G10G05G04G09G02
 -33411245.32448 -26004413.87346  21800122.9064                   21800121.9494
   -298678.40247   -207434.02443  24204421.8594                   24204421.6684
 -95007525.35947 -74001597.77545  22900413.5704                   22900412.6914
 -50141559.95348 -39047636.70946  20948285.1954                   20948284.4534
 -23062681.84047 -17939901.70845  22515272.5164                   22515273.2464
 -76276269.54348 -59404087.03646  21282961.4924                   21282961.1094
 -44602439.18447 -34724094.69044  23240944.5084                   23240945.6764
 -59933256.89148 -46669997.77446  20641019.4224                   20641016.1804
 11  8 19  0 10 30.0000000  0  8G12G30G17G10G05G04G09G02
 -33598468.52748 -26150302.05146  21764495.6564                   21764494.1914
   -518816.92647   -378970.48443  24162530.0634                   24162530.1764
 -95074956.19547 -74054141.29045  22887581.4224                   22887581.5004
 -50275842.53948 -39152272.45846  20922731.9694                   20922731.4494
 -23276155.21947 -18106244.48245  22474649.9304                   22474650.6214
 -76320330.85548 -59438420.53546  21274577.0084                   21274576.2894
 -44646151.90247 -34758156.60544  23232626.3364                   23232627.5434
 -60058388.23048 -46767502.68947  20617207.5944                   20617204.5044
 11  8 19  0 11  0.0000000  0  8G12G30G17G10G05G04G09G02
 -33785283.07048 -26295871.77946  21728945.8594                   21728945.1724
   -738716.80547   -550320.95043  24120684.1724                   24120684.6564
 -95142198.64547 -74106538.02345  22874785.8134                   22874786.1414
 -50409464.24248 -39256393.23946  20897304.5164                   20897303.8284
 -23489360.26247 -18272378.18245  22434078.0004                   22434078.0944
 -76364142.53148 -59472559.50546  21266239.4064                   21266239.3794
 -44689550.22747 -34791973.52944  23224368.3364                   23224368.9304
 -60183148.73448 -46864718.65247  20593466.5084                   20593463.2774
 11  8 19  0 11 30.0000000  0  9G12G30G17G10G05G04G25G09G02
 -33971688.40248 -26441122.65746  21693474.4144                   21693473.4454
   -958377.68446   -721485.24642  24078884.6254                   24078884.1254
 -95209254.28147 -74158789.20145  22862025.0704                   22862024.8364
 -50542426.54348 -39360000.19146  20872002.3984                   20872001.9264
 -23702296.77047 -18438302.62245  22393557.2974                   22393557.9574
 -76407708.93748 -59506507.37146  21257949.1334                   21257948.9884
   1252147.55156   1000392.64854  24570804.3594                   24570807.3914
 -44732640.10947 -34825550.14144  23216168.0004                   23216169.1524
 -60307541.58648 -46961648.14047  20569795.2814                   20569792.2424
 11  8 19  0 12  0.0000000  0  9G12G30G17G10G05G04G25G09G02
 -34157688.03547 -26586057.39146  21658079.7664                   21658078.5354
  -1177802.25046   -892465.35043  24037128.9384                   24037128.9224
 -95276127.73047 -74210898.42045  22849300.1334                   22849299.7154
 -50674733.59047 -39463096.55846  20846825.3524                   20846825.1294
 -23914966.96147 -18604019.55145  22353087.1884                   22353087.6294
 -76451037.61747 -59540269.99146  21249704.1094                   21249704.0514
   1033227.66447    829805.73144  24529144.6644                   24529147.9574
 -44775430.01647 -34858892.98944  23208025.5084                   23208027.1914
 -60431573.45348 -47058296.33047  20546193.0164                   20546189.5784
 11  8 19  0 12 30.0000000  0  9G12G30G17G10G05G04G25G09G02
 -34343288.90648 -26730681.42146  21622761.1724                   21622759.7974
  -1396996.91046  -1063266.30542  23995417.1884                   23995418.4344
 -95342828.00047 -74262872.68845  22836607.5634                   22836607.2234
 -50806393.67648 -39565688.81346  20821771.5704                   20821770.5474
 -24127377.19947 -18769533.90945  22312666.9534                   22312667.2234
 -76494140.57048 -59573856.72246  21241501.9774                   21241501.5944
    814448.03947    659328.21744  24487512.3204                   24487515.7464
 -44817932.78546 -34892012.08544  23199937.5164                   23199939.4144
 -60555254.48848 -47154671.15047  20522657.0234                   20522654.0824
 11  8 19  0 13  0.0000000  0  9G12G30G17G10G05G04G25G09G02
 -34528482.96947 -26874988.45246  21587519.5554                   21587518.4574
  -1615953.95746  -1233882.03043  23953751.2424                   23953751.2974
 -95409349.05547 -74314707.33445  22823948.8364                   22823947.9494
 -50937400.63348 -39667772.13946  20796841.2114                   20796840.7304
 -24339519.22747 -18934839.28045  22272297.8754                   22272298.0274
 -76537014.48048 -59607264.96846  21233343.4224                   21233342.8674
    595816.35947    488965.95444  24445908.1414                   24445911.8054
 -44860146.53947 -34924905.99544  23191904.1564                   23191905.5514
 -60678580.55148 -47250769.37846  20499188.9064                   20499185.8794
 11  8 19  0 13 30.0000000  0  9G12G30G17G10G05G04G25G09G02
 -33137839.51647 -25791370.14646  21852150.2664                   21852149.5984
   -259241.18446   -176703.16043  24211925.2664                   24211925.0634
 -93900266.65647 -73138799.00345  23111118.1884                   23111117.4804
 -49492327.23448 -38541740.89546  21071829.9144                   21071829.1914
 -22975961.31247 -17872326.52045  22531774.2344                   22531774.6054
 -75004238.39548 -58412894.00046  21525021.0864                   21525020.2154
   1952764.30547   1546328.08644  24704126.8054                   24704130.3404
 -43326651.52747 -33729974.85844  23483718.9534                   23483720.3524
 -59226126.63348 -46118987.08346  20775581.7504                   20775578.7464
 11  8 19  0 14  0.0000000  0  9G12G30G17G10G05G04G25G09G02
 -33322208.98448 -25935034.65046  21817066.0084                   21817064.6094
   -477710.91046   -346939.21743  24170351.5704                   24170352.8324
 -93966424.78147 -73190350.84045  23098528.5394                   23098527.9654
 -49622021.59848 -38642801.42246  21047149.7114                   21047149.1994
 -23187554.68047 -18037204.35345  22491509.4384                   22491509.7034
 -75046657.55148 -58445947.90146  21516949.0084                   21516948.3444
   1734439.48447   1376204.95344  24662581.1644                   24662584.3794
 -43368294.45347 -33762423.95644  23475794.3134                   23475796.3674
 -59348742.36748 -46214531.80846  20752248.6804                   20752245.4884
 11  8 19  0 14 30.0000000  0  9G12G30G17G10G05G04G25G09G02
 -33506158.98048 -26078372.28146  21782061.6724                   21782060.4924
   -695929.37546   -516979.50743  24128826.3134                   24128826.8134
 -94032396.76247 -73241757.60245  23085973.9694                   23085974.3324
 -49751054.84048 -38743346.78146  21022595.2504                   21022594.8094
 -23398865.93447 -18201862.37845  22451297.7274                   22451298.2304
 -75088849.03548 -58478824.38346  21508920.3594                   21508919.6684
   1516275.15246   1206206.86644  24621065.6254                   24621068.0554
 -43409653.56246 -33794651.92644  23467924.4534                   23467926.1454
 -59471001.08648 -46309798.33046  20728983.6954                   20728980.6334
 11  8 19  0 15  0.0000000  0  9G12G30G17G10G05G04G25G09G02
 -33689685.91447 -26221380.25546  21747137.6804                   21747136.2194
   -913892.63746   -686820.98043  24087349.2114                   24087349.4804
 -94098180.78547 -73293017.93645  23073456.2504                   23073454.7664
 -49879425.15248 -38843375.57146  20998167.6094                   20998166.7074
 -23609890.96547 -18366297.38245  22411141.3054                   22411140.8834
 -75130814.03548 -58511524.39046  21500934.6954                   21500934.1454
   1298275.03546   1036336.71043  24579581.1484                   24579583.3284
 -43450730.92246 -33826660.32844  23460107.5314                   23460109.4774
 -59592902.66048 -46404786.56247  20705786.2114                   20705783.2114
 11  8 19  0 15 30.0000000  0  9G12G30G17G10G05G04G25G09G02
 -33872782.64847 -26364053.01046  21712295.3524                   21712293.6644
  -1131593.08246   -856457.69843  24045922.1094                   24045922.4454
 -94163771.75047 -73344127.81745  23060975.1024                   23060973.5784
 -50007126.72748 -38942883.27046  20973866.5864                   20973865.4844
 -23820621.86347 -18530503.18745  22371039.9454                   22371040.6374
 -75172549.90648 -58544045.86446  21492992.3054                   21492991.7234
   1080446.24646    866600.08243  24538129.2894                   24538132.0044
 -43491525.37947 -33858448.29444  23452344.7734                   23452346.9574
 -59714443.09848 -46499493.37747  20682658.2734                   20682654.8134
 11  8 19  0 16  0.0000000  0  9G12G30G17G10G05G04G25G09G02
 -34055452.03947 -26506392.76846  21677534.7584                   21677533.3754
  -1349033.42646  -1025891.68344  24004544.6644                   24004545.4454
 -94229174.60247 -73395091.13045  23048529.7664                   23048527.6804
 -50134164.08648 -39041873.39646  20949692.0634                   20949691.3364
 -24031061.31247 -18694481.88345  22330995.1644                   22330995.2934
 -75214064.28148 -58576394.75546  21485092.6334                   21485091.8984
    862785.85946    696994.61143  24496710.4224                   24496711.9304
 -43532046.04347 -33890022.90044  23444633.5864                   23444635.1884
 -59835629.09447 -46593924.00647  20659596.9064                   20659593.8874
 11  8 19  0 16 30.0000000  0  9G12G30G17G10G05G04G25G09G02
 -34237692.15648 -26648398.02446  21642855.4454                   21642854.0314
  -1566211.24246  -1195121.12644  23963217.1024                   23963217.6724
 -94294388.83247 -73445907.46645  23036119.1174                   23036117.8244
 -50260537.03948 -39140345.81546  20925643.8914                   20925643.6134
 -24241206.86347 -18858231.58545  22291005.4694                   22291005.7854
 -75255359.67248 -58608573.00346  21477234.3134                   21477233.6454
    645296.06646    527522.10543  24455323.3204                   24455325.1684
 -43572296.39547 -33921386.90544  23436974.8444                   23436976.4454
 -59956462.07448 -46688079.57347  20636603.3754                   20636600.2814
 11  8 19  0 17  0.0000000  0  9G12G30G17G10G05G04G25G09G02
 -34419498.24648 -26790065.08146  21608258.6954                   21608257.0274
  -1783121.64846  -1364142.22544  23921940.7424                   23921941.3324
 -94359411.93447 -73496574.91745  23023745.2814                   23023744.9454
 -50386242.82048 -39238298.34846  20901723.1884                   20901722.4344
 -24451053.42647 -19021748.28146  22251072.7974                   22251073.3954
 -75296436.24247 -58640580.72946  21469417.6564                   21469417.2034
    427981.45746    358186.08543  24413969.2194                   24413971.5784
 -43612278.02346 -33952541.49744  23429366.4454                   23429368.4184
 -60076941.00848 -46781959.26447  20613676.8754                   20613673.5784
 11  8 19  0 17 30.0000000  0  9G12G30G17G10G05G04G25G09G02
 -34600864.71547 -26931389.57746  21573745.7344                   21573744.5514
  -1999758.69146  -1532950.29043  23880715.5164                   23880716.2464
 -94424240.19947 -73547090.49244  23011408.9304                   23011408.4144
 -50511277.33648 -39335727.81746  20877929.9924                   20877929.1954
 -24660594.87147 -19185027.25345  22211198.4844                   22211198.7154
 -75337292.73448 -58672416.96946  21461642.8984                   21461642.3794
    210847.60246    188990.90943  24372649.7974                   24372652.6764
 -43651991.14147 -33983486.85444  23421809.9924                   23421810.8094
 -60197063.65647 -46875561.31047  20590818.4694                   20590815.0744
 11  8 19  0 18  0.0000000  0  9G12G30G17G10G05G04G25G09G02
 -34781784.68447 -27072366.13946  21539317.7814                   21539316.6214
  -2216114.78146  -1701539.46643  23839544.3984                   23839545.1134
 -94488868.05947 -73597449.89745  22999111.1644                   22999110.1764
 -50635634.91448 -39432629.80846  20854265.1334                   20854264.0944
 -24869823.24647 -19348062.24146  22171383.2274                   22171383.8164
 -75377926.84448 -58704079.93946  21453910.4614                   21453910.3594
     -6098.09046     19942.37343  24331366.5704                   24331369.2704
 -43691434.34047 -34014221.86944  23414303.8054                   23414305.2114
 -60316826.17248 -46968882.73047  20568028.4224                   20568025.6054
 11  8 19  0 18 30.0000000  0  9G12G30G17G10G05G04G25G09G02
 -34962260.54747 -27212996.66846  21504974.0474                   21504973.0474
  -2432192.27046  -1869911.45543  23798426.5234                   23798426.5394
 -94553300.28947 -73647656.83645  22986850.0234                   22986849.7034
 -50759320.16848 -39529007.91646  20830728.8984                   20830728.0354
 -25078741.09047 -19510855.26146  22131627.9924                   22131628.2774
 -75418345.62948 -58735575.08446  21446219.0704                   21446218.3054
   -222858.43746   -148961.77043  24290118.8984                   24290121.3914
 -43730616.31247 -34044753.34944  23406848.0084                   23406848.7664
 -60436235.28148 -47061928.78147  20545305.4694                   20545302.5164
 11  8 19  0 19  0.0000000  0  9G12G30G17G10G05G04G25G09G02
 -35142287.50847 -27353277.37646  21470716.4534                   21470714.9734
  -2647986.12546  -2038062.51643  23757361.7274                   23757362.5274
 -94617534.09847 -73697709.23244  22974626.8204                   22974626.7304
 -50882330.68448 -39624860.23646  20807320.8364                   20807319.7624
 -25287343.13747 -19673402.23246  22091931.6484                   22091932.0784
 -75458549.12548 -58766902.50946  21438568.8134                   21438568.0634
   -439428.50846   -317717.66843  24248906.7194                   24248909.0554
 -43769538.14846 -34075082.11744  23399441.1484                   23399442.3324
 -60555289.48848 -47154698.27747  20522650.3914                   20522646.9964
 11  8 19  0 19 30.0000000  0  9G12G30G17G10G05G04G25G09G02
 -35321861.39847 -27493205.04146  21436544.5704                   21436542.7504
  -2863491.40646  -2205988.67443  23716352.6884                   23716353.3134
 -94681566.73847 -73747604.89845  22962441.9304                   22962441.7114
 -51004663.49648 -39720184.48846  20784041.3134                   20784040.7154
 -25495624.26247 -19835699.10946  22052297.2504                   22052297.2774
 -75498537.16848 -58798062.03946  21430959.1484                   21430959.1524
   -655803.68747   -486321.72944  24207732.6884                   24207734.2464
 -43808200.96547 -34105209.07044  23392083.8834                   23392085.9344
 -60673988.00048 -47247190.62046  20500062.7584                   20500059.5474
 11  8 19  0 20  0.0000000  0  9G12G30G17G10G05G04G25G09G02
 -35500975.47347 -27632774.42946  21402460.0634                   21402459.2624
  -3078701.10546  -2373684.49943  23675399.4454                   23675399.6724
 -94745393.67647 -73797340.26944  22950295.6484                   22950295.7544
 -51126314.05148 -39814977.09846  20760892.0234                   20760891.4304
 -25703577.50047 -19997740.50346  22012725.0234                   22012725.4144
 -75538307.92648 -58829052.26946  21423391.0554                   21423390.4844
   -871977.35247   -654768.70744  24166594.7894                   24166598.3914
 -43846604.17247 -34135133.74044  23384775.9694                   23384777.5704
 -60792327.35948 -47339403.10347  20477543.4774                   20477540.3754
 11  8 19  0 20 30.0000000  0  9G12G30G17G10G05G04G25G09G02
 -34104201.55947 -26544379.14346  21668257.3204                   21668255.9454
  -1718185.28146  -1313542.26943  23934297.5704                   23934297.1994
 -93233591.78547 -72619312.86345  23237982.0634                   23237981.8284
 -49671857.37948 -38681634.21746  21037665.6884                   21037664.9654
 -24335772.88747 -18931918.64245  22273009.6804                   22273010.4924
 -74002442.03148 -57632273.64645  21715656.7424                   21715656.2344
    487480.36347    404548.99944  24425291.7974                   24425294.9304
 -42309329.92646 -32937257.76044  23677310.0314                   23677311.2734
 -59334884.98048 -46203733.69947  20754885.5474                   20754882.3554
 11  8 19  0 21  0.0000000  0  9G12G30G17G10G05G04G25G09G02
 -34282395.91847 -26683231.86846  21634348.1484                   21634347.0474
  -1932802.08246  -1480776.17843  23893456.7814                   23893456.9844
 -93297011.62947 -72668730.95745  23225914.2974                   23225914.1994
 -49792147.66448 -38775366.87146  21014775.3524                   21014774.5164
 -24543068.24647 -19093447.38946  22233562.4694                   22233562.8134
 -74041790.64848 -57662934.93246  21708168.6414                   21708167.9694
    271710.94947    236417.01344  24384232.8674                   24384235.5784
 -42347230.86347 -32966791.03944  23670097.3444                   23670099.1134
 -59452516.48448 -46295394.59346  20732500.8834                   20732497.7934
 11  8 19  0 21 30.0000000  0  9G12G30G17G10G05G04G25G09G02
 -34460134.16847 -26821729.17446  21600525.6564                   21600524.5044
  -2147125.84446  -1647781.66143  23852672.7734                   23852672.4184
 -93360234.78947 -72717995.80745  23213883.0084                   23213883.2464
 -49911764.93047 -38868575.10846  20992012.9384                   20992012.2854
 -24750037.80147 -19254722.28146  22194177.6024                   22194177.5084
 -74080939.21548 -57693440.33545  21700718.9304                   21700718.7154
     56139.68847     68439.39944  24343210.5474                   24343213.4384
 -42384893.60246 -32996138.68444  23662930.4924                   23662932.1764
 -59569803.46948 -46386787.03647  20710182.0704                   20710179.0044
 11  8 19  0 22  0.0000000  0  9G12G30G17G10G05G04G25G09G02
 -34637419.96948 -26959873.92846  21566789.3134                   21566788.3134
  -2361159.57846  -1814561.17743  23811943.5084                   23811943.1564
 -93423266.53147 -72767111.45044  23201888.0004                   23201888.2424
 -50030714.32048 -38961262.92446  20969377.7814                   20969377.1254
 -24956684.69547 -19415745.75746  22154854.0234                   22154854.0634
 -74119895.64148 -57723796.01746  21693306.2664                   21693305.3094
   -159236.53947    -99386.20844  24302225.7344                   24302228.7154
 -42422327.08646 -33025307.74744  23655807.3284                   23655809.4964
 -59686752.57447 -46477916.20447  20687927.3674                   20687924.0864
 11  8 19  0 22 30.0000000  0  9G12G30G17G10G05G04G25G09G02
 -34814246.04747 -27097660.45046  21533140.3134                   21533138.8324
  -2574895.78547  -1981108.80743  23771270.3284                   23771271.1484
 -93486101.71947 -72816074.00545  23189931.0554                   23189931.4924
 -50148990.78947 -39053426.37746  20946870.9774                   20946869.7774
 -25163001.39147 -19576511.92346  22115592.8834                   22115593.3874
 -74158657.03548 -57753999.71946  21685930.1884                   21685929.7894
   -374410.59847   -267054.26244  24261279.6174                   24261282.2624
 -42459530.36747 -33054297.40344  23648727.7584                   23648729.4304
 -59803360.40648 -46568779.44146  20665737.4614                   20665734.4144
 11  8 19  0 23  0.0000000  0  9G12G30G17G10G05G04G25G09G02
 -34990603.11347 -27235081.50246  21499580.8984                   21499579.4344
  -2788324.46147  -2147416.86743  23730656.6884                   23730656.9534
 -93548732.48447 -72864877.24445  23178013.3984                   23178013.3284
 -50266587.04747 -39145059.80746  20924492.7344                   20924491.4884
 -25368977.62547 -19737012.81946  22076396.9924                   22076396.3794
 -74197218.51248 -57784047.65045  21678592.2814                   21678592.0354
   -589372.50447   -434557.06044  24220373.7974                   24220376.4734
 -42496499.60547 -33083104.67544  23641692.3524                   23641695.1484
 -59919620.71147 -46659371.87847  20643613.7584                   20643610.9494
 11  8 19  0 23 30.0000000  0  9G12G30G17G10G05G04G25G09G02
 -35166486.37147 -27372133.37746  21466111.3134                   21466110.1174
  -3001440.41847  -2313481.21244  23690102.1644                   23690102.0784
 -93611156.21147 -72913519.18445  23166134.2664                   23166134.6724
 -50383500.00047 -39236160.79046  20902244.5634                   20902244.4884
 -25574608.15647 -19897244.33846  22037266.6174                   22037266.5234
 -74235579.65248 -57813939.45345  21671292.3284                   21671291.5474
   -804117.58247   -601890.87944  24179508.9064                   24179511.8484
 -42533235.96547 -33111730.48744  23634702.1334                   23634703.9654
 -60035532.24647 -46749692.53546  20621556.3984                   20621553.6054
 11  8 19  0 24  0.0000000  0  9G12G30G17G10G05G04G25G09G02
 -35341895.86347 -27508816.07746  21432731.8524                   21432731.0474
  -3214243.19546  -2479301.48944  23649607.3284                   23649607.2894
 -93673374.31247 -72962000.87745  23154295.0314                   23154294.8874
 -50499731.93447 -39326731.11346  20880126.8754                   20880125.7304
 -25779892.81247 -20057206.32546  21998202.3984                   21998201.8484
 -74273744.90248 -57843678.63645  21664029.7894                   21664029.2704
  -1018645.54346   -769055.51443  24138685.5864                   24138687.9184
 -42569745.04346 -33140179.18544  23627754.6024                   23627756.5434
 -60151098.84047 -46839744.40047  20599565.1884                   20599562.2464
 11  8 19  0 24 30.0000000  0  9G12G30G17G10G05G04G25G09G02
 -35516824.31648 -27645123.95246  21399443.9694                   21399442.9304
  -3426725.10547  -2644871.75544  23609172.8674                   23609173.4924
 -93735381.64147 -73010318.35945  23142495.3594                   23142495.0704
 -50615277.50448 -39416766.59846  20858138.8284                   20858138.3204
 -25984823.54347 -20216892.53746  21959205.3834                   21959204.3554
 -74311711.52748 -57873263.03645  21656804.8754                   21656804.6214
  -1232948.99246   -936045.15443  24097904.8754                   24097907.8324
 -42606025.42247 -33168449.70444  23620850.7424                   23620852.7114
 -60266316.45748 -46929524.35846  20577640.0394                   20577636.6524
 11  8 19  0 25  0.0000000  0  9G12G30G17G10G05G04G25G09G02
 -35691270.43747 -27781055.98046  21366247.9224                   21366246.4344
  -3638884.10947  -2810190.37544  23568800.6564                   23568800.9304
 -93797178.32447 -73058471.63945  23130735.8444                   23130736.1604
 -50730137.21948 -39506267.65146  20836281.7504                   20836280.8834
 -26189398.38747 -20376301.45446  21920276.1024                   21920275.8484
 -74349482.11748 -57902694.69045  21649617.0634                   21649616.4614
  -1447026.08646  -1102858.39943  24057167.3204                   24057170.0664
 -42642081.24247 -33196545.20844  23613989.4064                   23613991.0394
 -60381187.20348 -47019034.00747  20555780.8984                   20555777.4654
 11  8 19  0 25 30.0000000  0  9G12G30G17G10G05G04G25G09G02
 -35865231.62147 -27916610.13946  21333144.4384                   21333143.1334
  -3850717.41047  -2975255.17944  23528489.5554                   23528490.0744
 -93858763.69947 -73106460.24745  23119016.5864                   23119016.9534
 -50844310.98848 -39595234.20846  20814555.1954                   20814554.7274
 -26393614.17247 -20535430.54846  21881414.7504                   21881414.4064
 -74387058.85248 -57931975.29745  21642466.8594                   21642466.2344
  -1660874.22746  -1269493.28843  24016473.4534                   24016475.9104
 -42677916.13747 -33224468.58244  23607170.8054                   23607172.8364
 -60495712.24248 -47108274.28547  20533987.5004                   20533984.3094
 11  8 19  0 26  0.0000000  0  9G12G30G17G10G05G04G25G09G02
 -36038702.05147 -28051781.87946  21300134.4454                   21300132.6214
  -4062218.36346  -3140061.00943  23488242.0634                   23488242.1214
 -93920133.68047 -73154281.04845  23107337.8204                   23107338.3284
 -50957794.68747 -39683663.03746  20792960.0784                   20792959.1254
 -26597464.44147 -20694274.84546  21842623.2584                   21842623.5784
 -74424440.02748 -57961103.53845  21635353.5944                   21635352.8594
  -1874487.00047  -1435944.82744  23975824.3834                   23975826.7464
 -42713529.72747 -33252219.48344  23600393.5944                   23600395.0394
 -60609888.81647 -47197243.02547  20512260.3204                   20512256.7854
 11  8 19  0 26 30.0000000  0  9G12G30G17G10G05G04G25G09G02
 -36211684.73447 -28186573.56546  21267216.5314                   21267215.3524
  -4273389.55946  -3304609.85343  23448057.7274                   23448057.9144
 -93981292.90247 -73201937.64244  23095699.5554                   23095700.2344
 -51070593.65647 -39771558.31746  20771494.9304                   20771494.4494
 -26800951.78147 -20852836.33446  21803901.1254                   21803900.8284
 -74461632.93748 -57990085.06345  21628275.7114                   21628275.4184
  -2087867.25447  -1602215.06844  23935219.6954                   23935221.9494
 -42748930.87547 -33279804.88744  23593657.0474                   23593659.0824
 -60723723.23847 -47285945.15847  20490598.1174                   20490594.8404
 11  8 19  0 27  0.0000000  0  9G12G30G17G10G05G04G25G09G02
 -36384176.21947 -28320982.50646  21234392.5004                   21234391.1454
  -4484227.50446  -3468899.15043  23407936.7424                   23407936.4344
 -94042240.27347 -73249429.16344  23084101.9384                   23084102.2424
 -51182707.12947 -39858919.46446  20750160.5554                   20750159.6094
 -27004072.64547 -21011112.26146  21765248.1724                   21765248.0004
 -74498638.94548 -58018920.92945  21621233.8754                   21621233.5164
  -2301011.69547  -1768301.64844  23894659.4384                   23894662.1994
 -42784121.91447 -33307226.54844  23586960.4694                   23586961.9574
 -60837216.25847 -47374381.26247  20469001.3594                   20468998.0904
 11  8 19  0 27 30.0000000  0  9G12G30G17G10G05G04G25G09G02
 -34980746.58247 -27227400.95046  21501456.4924                   21501455.2504
  -3119299.82447  -2405318.97444  23667673.5004                   23667673.6684
 -92527550.67647 -72069151.57944  23372337.7114                   23372337.3794
 -49718708.33647 -38718141.15946  21028750.1094                   21028749.5944
 -25631394.87947 -19941493.15546  22026460.1254                   22026460.5314
 -72960036.19548 -56820009.72845  21914019.6644                   21914019.9384
   -938488.10247   -706594.86044  24153938.8054                   24153942.4104
 -41243682.90247 -32106884.51744  23880096.0004                   23880097.8324
 -59374942.75047 -46234947.33347  20747262.7974                   20747259.3554
 11  8 19  0 28  0.0000000  0  9G12G30G17G10G05G04G25G09G02
 -35152243.52047 -27361034.91446  21468821.2664                   21468820.1454
  -3329456.16447  -2569077.11343  23627682.1884                   23627682.4494
 -92588066.31247 -72116306.66544  23360822.0554                   23360821.7504
 -49829443.27047 -38804428.10146  21007678.3444                   21007677.5084
 -25833767.85947 -20099186.30046  21987949.5704                   21987950.0864
 -72996667.72348 -56848553.81645  21907049.4454                   21907049.0164
  -1151146.53947   -872302.68444  24113471.5164                   24113474.7034
 -41278458.02347 -32133982.06344  23873478.7814                   23873481.4024
 -59487749.73847 -46322848.86947  20725796.0704                   20725792.8484
 11  8 19  0 28 30.0000000  0  9G12G30G17G10G05G04G25G09G02
 -35323241.35947 -27494279.97746  21436281.9694                   21436280.5704
  -3539269.34447  -2732567.79443  23587755.9924                   23587755.5044
 -92648366.94547 -72163294.21944  23349347.3914                   23349347.3284
 -49939490.65247 -38890179.27246  20986736.8834                   20986736.4264
 -26035764.51647 -20256586.21846  21949510.8524                   21949510.5314
 -73033116.81648 -56876955.76545  21900112.9694                   21900113.6174
  -1363559.90247  -1037819.47144  24073050.0394                   24073053.6454
 -41313032.11746 -32160922.98244  23866900.1174                   23866901.8954
 -59600217.27748 -46410485.88847  20704394.1174                   20704390.7504
 11  8 19  0 29  0.0000000  0  9G12G30G17G10G05G04G25G09G02
 -35493738.12147 -27627134.57746  21403837.4224                   21403835.7854
  -3748736.39147  -2895788.75144  23547894.9064                   23547895.3554
 -92708451.88347 -72210113.73444  23337912.6484                   23337913.5904
 -50048850.41447 -38975394.65346  20965926.2664                   20965925.2424
 -26237381.33647 -20413690.16946  21911144.7344                   21911144.6094
 -73069385.19948 -56905216.86245  21893212.2344                   21893211.4734
  -1575725.44147  -1203143.14744  24032676.9144                   24032680.0824
 -41347408.08647 -32187709.51844  23860358.2274                   23860360.6054
 -59712346.38347 -46497859.20747  20683056.7274                   20683053.1564
 11  8 19  0 29 30.0000000  0  9G12G30G17G10G05G04G25G09G02
 -35663733.91847 -27759598.81146  21371487.9454                   21371486.6054
  -3957857.28947  -3058739.98844  23508101.1884                   23508101.5434
 -92768323.78146 -72256767.21844  23326520.2034                   23326520.8914
 -50157525.47348 -39060076.49646  20945246.3364                   20945245.4264
 -26438619.12547 -20570498.76446  21872850.0634                   21872850.4694
 -73105477.92648 -56933341.10345  21886343.3204                   21886343.5474
  -1787643.32447  -1368273.87844  23992349.7034                   23992352.6054
 -41381592.37947 -32214346.71344  23853853.5234                   23853856.4614
 -59824141.17247 -46584972.01347  20661782.9694                   20661779.9024
 11  8 19  0 30  0.0000000  0  9G12G30G17G10G05G04G25G09G02
 -35833226.60947 -27891671.01946  21339234.5474                   21339233.1764
  -4166628.89847  -3221419.05844  23468373.4304                   23468373.2774
 -92827981.35546 -72303253.71244  23315167.7114                   23315168.1604
 -50265515.44147 -39144224.50946  20924696.0474                   20924695.3444
 -26639474.63347 -20727009.48046  21834628.5004                   21834628.0514
 -73141396.27047 -56961329.46245  21879508.4614                   21879508.3954
  -1999310.68747  -1533209.40844  23952070.9454                   23952073.5434
 -41415588.23446 -32240837.04644  23847383.6644                   23847386.1684
 -59935602.28148 -46671824.81647  20640572.6954                   20640569.4184
 11  8 19  0 30 30.0000000  0  9G12G30G17G10G05G04G25G09G02
 -36002215.64848 -28023350.77246  21307077.0234                   21307075.7034
  -4375050.26247  -3383825.24144  23428711.1094                   23428711.5434
 -92887426.35247 -72349574.50644  23303856.2894                   23303856.2154
 -50372822.24248 -39227840.18046  20904276.5864                   20904275.7424
 -26839946.77347 -20883221.48246  21796480.2734                   21796479.7114
 -73177144.15648 -56989184.99545  21872705.8984                   21872705.7234
  -2210726.67647  -1697949.01644  23911839.8364                   23911841.9924
 -41449400.54347 -32267184.36944  23840950.1564                   23840952.0664
 -60046733.01648 -46758420.18346  20619424.9924                   20619421.7304
 11  8 19  0 31  0.0000000  0  9G12G30G17G10G05G04G25G09G02
 -36170690.90647 -28154630.17846  21275017.4304                   21275016.0984
  -4583110.58247  -3545950.06844  23389119.3054                   23389119.3134
 -92946650.37947 -72395723.14644  23292586.2114                   23292586.4104
 -50479437.91448 -39310917.31646  20883988.3134                   20883987.5784
 -27040024.50447 -21039126.14046  21758406.7974                   21758406.3404
 -73212715.55948 -57016902.99345  21865937.0634                   21865936.6564
  -2421880.85247  -1862484.60244  23871657.5004                   23871660.3444
 -41483025.05547 -32293385.37243  23834551.5864                   23834552.5394
 -60157526.37548 -46844752.65546  20598341.9454                   20598338.3324
 11  8 19  0 31 30.0000000  0  9G12G30G17G10G05G04G25G09G02
 -36338648.98848 -28285506.57346  21243055.8594                   21243054.3484
  -4790805.98047  -3707790.54244  23349595.4224                   23349595.6764
 -93005651.44147 -72441698.05144  23281358.6564                   23281358.3484
 -50585361.35948 -39393455.04446  20863831.7734                   20863830.7974
 -27239703.73847 -21194720.31246  21720409.2424                   21720408.6844
 -73248111.30948 -57044484.13145  21859201.4924                   21859201.1254
  -2632769.27747  -2026813.11344  23831527.0784                   23831530.0744
 -41516463.91046 -32319441.71944  23828188.7734                   23828190.8284
 -60267982.60248 -46930822.43746  20577322.6954                   20577319.0634
 11  8 19  0 32  0.0000000  0  9G12G30G17G10G05G04G25G09G02
 -36506088.63748 -28415979.01446  21211193.2424                   21211192.1454
  -4998134.42647  -3869345.10244  23310142.5004                   23310142.5514
 -93064429.97747 -72487499.59244  23270173.6644                   23270174.4574
 -50690593.82048 -39475454.37246  20843806.5704                   20843805.8364
 -27438983.32447 -21350003.04746  21682487.3284                   21682486.7814
 -73283334.01647 -57071930.40545  21852498.8284                   21852498.5274
  -2843390.26247  -2190933.21344  23791447.0004                   23791450.3984
 -41549721.36346 -32345356.66043  23821860.2504                   23821861.0984
 -60378103.46948 -47016630.88747  20556367.5314                   20556364.1024
 11  8 19  0 32 30.0000000  0  9G12G30G17G10G05G04G25G09G02
 -36673013.37148 -28546050.20646  21179428.5164                   21179427.2344
  -5205098.52747  -4030615.73444  23270758.9144                   23270759.2704
 -93122990.91847 -72533131.53045  23259029.4924                   23259030.1294
 -50795140.64148 -39556919.41046  20823911.6334                   20823910.9224
 -27637865.46547 -21504976.09246  21644641.1644                   21644640.7304
 -73318391.23048 -57099247.72945  21845827.6174                   21845827.6764
  -3053746.53547  -2354847.03344  23751417.6024                   23751420.4844
 -41582806.24247 -32371137.17243  23815563.8364                   23815566.6644
 -60487895.63748 -47102183.22747  20535474.7344                   20535471.1484
 11  8 19  0 33  0.0000000  0  9G12G30G17G10G05G04G25G09G02
 -36839418.36348 -28675716.39946  21147762.2734                   21147761.1024
  -5411693.15247  -4191598.44144  23231444.8754                   23231445.0944
 -93181331.13347 -72578591.50745  23247928.5704                   23247927.9144
 -50898999.94148 -39637848.71846  20804148.0784                   20804147.3364
 -27836345.28147 -21659635.63546  21606871.5704                   21606871.7234
 -73353282.11348 -57126435.45445  21839188.0004                   21839187.8794
  -3263833.12547  -2518550.74744  23711439.9144                   23711441.7814
 -41615719.52746 -32396784.04943  23809300.7504                   23809303.3324
 -60597357.86348 -47187478.46546  20514644.4224                   20514641.1994
 11  8 19  0 33 30.0000000  0  9G12G30G17G10G05G04G25G09G02
 -37005299.65648 -28804974.52646  21116196.4774                   21116194.8754
  -5617913.52347  -4352289.54244  23192201.7734                   23192202.5744
 -93239448.74647 -72623877.99544  23236869.0394                   23236868.8714
 -51002169.63348 -39718240.67446  20784515.6094                   20784515.0944
 -28034417.95747 -21813977.91846  21569179.2034                   21569178.9804
 -73388006.96547 -57153493.81245  21832580.1644                   21832580.1764
  -3473645.50447  -2682040.80844  23671513.4614                   23671515.6134
 -41648462.59446 -32422298.18243  23803070.3594                   23803071.9614
 -60706489.71148 -47272516.25347  20493877.6094                   20493874.2544
 11  8 19  0 34  0.0000000  0  9G12G30G17G10G05G04G25G09G02
 -37170661.88748 -28933828.17646  21084729.2584                   21084727.5824
  -5823763.45347  -4512692.00244  23153030.1564                   23153030.6524
 -93297349.55147 -72668995.55944  23225850.2114                   23225851.2384
 -51104656.66848 -39798100.68646  20765013.0474                   20765011.8834
 -28232087.26647 -21968005.90246  21531563.8524                   21531564.1914
 -73422573.95347 -57180429.15345  21826002.4614                   21826001.5434
  -3683187.64547  -2845320.26344  23631638.6024                   23631641.0744
 -41681045.55946 -32447687.66444  23796869.2814                   23796872.4224
 -60815298.87948 -47357302.61246  20473171.7664                   20473168.4844
 11  8 19  0 34 30.0000000  0  9G12G30G17G10G05G04G25G09G02
 -35760073.15648 -27834668.10546  21353155.2504                   21353153.8914
  -4453809.35547  -3445195.26244  23413723.2974                   23413723.6294
 -91779607.48847 -71486339.45044  23514667.5784                   23514667.6254
 -49631034.10248 -38649823.34846  21045433.9844                   21045433.2194
 -26853919.90247 -20894109.19746  21793821.0004                   21793820.3204
 -71881560.16048 -55979639.19045  22119247.5314                   22119246.9384
  -2317025.87547  -1780778.53644  23891610.7274                   23891612.7234
 -40138046.55147 -31245350.88344  24090492.9924                   24090495.0234
 -59348358.78548 -46214232.39846  20752321.2034                   20752318.0514
 11  8 19  0 35  0.0000000  0  9G12G30G17G10G05G04G25G09G02
 -35924382.36348 -27962701.21546  21321888.0784                   21321886.9804
  -4658901.77246  -3605007.46544  23374696.4774                   23374695.5984
 -91837065.42647 -71531111.87344  23503733.3594                   23503733.7154
 -49732148.89548 -38728614.08846  21026192.6254                   21026191.3594
 -27050766.26247 -21047495.91646  21756362.0084                   21756361.8794
 -71915809.10947 -56006326.69445  22112729.8134                   22112730.5434
  -2526011.28947  -1943624.22444  23851842.4144                   23851844.3324
 -40170310.92247 -31270492.03744  24084353.3754                   24084355.0124
 -59456517.62948 -46298512.01546  20731739.4844                   20731736.0744
 11  8 19  0 35 30.0000000  0  9G12G30G17G10G05G04G25G09G02
 -36088158.36748 -28090318.84846  21290722.5474                   21290721.1334
  -4863607.60547  -3764518.49744  23335741.5944                   23335741.8714
 -91894297.44547 -71575708.31944  23492841.9144                   23492842.7774
 -49832574.38748 -38806867.71046  21007082.2274                   21007081.8014
 -27247193.38347 -21200555.95146  21718983.3134                   21718982.5824
 -71949898.14548 -56032889.61545  22106243.7894                   22106243.8284
  -2734710.81647  -2106247.15144  23812127.6414                   23812130.0314
 -40202417.23447 -31295510.09544  24078244.0944                   24078246.2344
 -59564349.55548 -46382536.88847  20711219.5474                   20711216.3524
 11  8 19  0 36  0.0000000  0  9G12G30G17G10G05G04G25G09G02
 -36251394.51648 -28217515.81646  21259660.0474                   21259658.2384
  -5067919.46547  -3923722.52344  23296862.6644                   23296862.1564
 -91951298.54347 -71620124.83844  23481995.7504                   23481996.0634
 -49932306.02348 -38884580.66046  20988103.8914                   20988103.4264
 -27443194.02747 -21353283.68246  21681685.3674                   21681684.6954
 -71983824.60547 -56059325.83445  22099787.5394                   22099787.0744
  -2943117.16047  -2268641.60744  23772469.0084                   23772472.1054
 -40234364.50046 -31320404.21544  24072164.2504                   24072166.5164
 -59671851.32448 -46466304.50346  20690762.7974                   20690759.2464
 11  8 19  0 36 30.0000000  0  9G12G30G17G10G05G04G25G09G02
 -36414087.07048 -28344289.21146  21228700.2584                   21228698.8594
  -5271832.62947  -4082615.88844  23258059.3984                   23258059.0664
 -92008066.22347 -71664359.43744  23471193.5234                   23471194.1334
 -50031342.52348 -38961751.95146  20969257.8524                   20969257.3444
 -27638763.67647 -21505675.54946  21644469.4694                   21644469.9064
 -72017588.24247 -56085635.16845  22093362.6644                   22093362.0274
  -3151225.81647  -2430804.14944  23732867.7034                   23732869.7974
 -40266154.10546 -31345175.49044  24066115.5944                   24066118.0904
 -59779022.14848 -46549814.23446  20670368.7344                   20670365.1804
 11  8 19  0 37  0.0000000  0  9G12G30G17G10G05G04G25G09G02
 -36576237.55148 -28470640.21146  21197844.2274                   21197842.6334
  -5475348.26247  -4241199.47944  23219331.4224                   23219330.7034
 -92064604.06646 -71708414.94944  23460434.0084                   23460434.8524
 -50129688.14548 -39038384.86946  20950543.3444                   20950542.3874
 -27833903.25048 -21657732.29346  21607335.7194                   21607335.4574
 -72051194.84847 -56111822.15745  22086967.2814                   22086967.1644
  -3359037.89147  -2592735.58444  23693322.0234                   23693325.0474
 -40297793.02746 -31369829.26544  24060095.1564                   24060097.3554
 -59885866.97748 -46633069.95046  20650037.0084                   20650033.3364
 11  8 19  0 37 30.0000000  0  9G12G30G17G10G05G04G25G09G02
 -36737849.14148 -28596571.29546  21167090.3984                   21167088.8594
  -5678468.30947  -4399474.85344  23180678.8054                   23180678.4804
 -92120916.17247 -71752294.60344  23449718.1484                   23449719.0514
 -50227348.45348 -39114483.78546  20931959.3204                   20931958.6604
 -28028615.07448 -21809455.74546  21570283.7504                   21570283.0704
 -72084651.10248 -56137891.99945  22080600.7274                   22080600.5474
  -3566555.74647  -2754437.74744  23653832.5944                   23653834.7344
 -40329289.73047 -31394372.38044  24054101.4694                   24054103.5354
 -59992392.06248 -46716076.52446  20629766.0084                   20629762.3444
 11  8 19  0 38  0.0000000  0  9G12G30G17G10G05G04G25G09G02
 -36898923.44948 -28722083.71546  21136438.9224                   21136437.5204
  -5881193.85247  -4557442.77944  23142101.1724                   23142101.8054
 -92177006.47746 -71796001.37544  23439045.2814                   23439045.7074
 -50324328.09448 -39190052.32946  20913504.7034                   20913503.6954
 -28222900.29348 -21960846.76546  21533311.9774                   21533311.3444
 -72117962.50848 -56163848.94945  22074261.9774                   22074261.6524
  -3773780.41447  -2915911.51144  23614398.9064                   23614401.2814
 -40360651.48447 -31418810.21444  24048133.3674                   24048136.2034
 -60098602.20348 -46798837.68646  20609554.9384                   20609551.5204
 11  8 19  0 38 30.0000000  0  9G12G30G17G10G05G04G25G09G02
 -37059453.14548 -28847171.75946  21105890.7344                   21105889.5044
  -6083516.96947  -4715097.11944  23103600.7814                   23103600.6484
 -92232869.21947 -71839530.87044  23428414.9924                   23428415.3914
 -50420622.00848 -39265086.52146  20895180.3914                   20895179.6954
 -28416751.10548 -22111899.29246  21496423.5004                   21496423.2774
 -72151125.71547 -56189690.42445  22067951.1484                   22067951.0664
  -3980704.18447  -3077150.75544  23575022.7974                   23575024.8444
 -40391876.14847 -31443141.24443  24042191.1414                   24042193.3594
 -60204493.62948 -46881350.49246  20589404.4534                   20589400.9534
 11  8 19  0 39  0.0000000  0  9G12G30G17G10G05G04G25G09G02
 -37219430.80148 -28971829.63746  21075448.2344                   21075447.2544
  -6285429.26647  -4872431.33144  23065177.3834                   23065177.8404
 -92288498.29347 -71882878.27144  23417829.3914                   23417829.8554
 -50516225.00448 -39339582.33646  20876987.5474                   20876987.1134
 -28610158.89848 -22262606.59946  21459619.2894                   21459619.2664
 -72184136.98447 -56215413.50345  22061669.5084                   22061668.9614
  -4187318.67647  -3238149.02444  23535705.2584                   23535707.9224
 -40422961.40247 -31467363.71144  24036276.6334                   24036278.6844
 -60310061.94148 -46963611.51847  20569315.2664                   20569312.1254
 11  8 19  0 39 30.0000000  0  9G12G30G17G10G05G04G25G09G02
 -37378850.68448 -29096052.89446  21045112.0164                   21045110.3164
  -6486924.27346  -5029440.40944  23026834.7424                   23026835.5164
 -92343889.27746 -71926040.12444  23407288.3834                   23407288.5434
 -50611134.19548 -39413537.54346  20858927.1024                   20858926.3284
 -28803117.89848 -22412964.20546  21422900.2894                   21422899.7304
 -72216994.34847 -56241016.64245  22055416.5234                   22055416.5474
  -4393617.53147  -3398901.39244  23496448.0234                   23496449.5434
 -40453906.96947 -31491477.21644  24030387.8754                   24030389.9884
 -60415304.53148 -47045618.74047  20549288.2424                   20549284.9924
 11  8 19  0 40  0.0000000  0  9G12G30G17G10G05G04G25G09G02
 -37537711.62148 -29219840.62446  21014881.2894                   21014880.1644
  -6687999.77047  -5186122.56344  22988571.4694                   22988571.4024
 -92399042.49646 -71969016.72744  23396792.9304                   23396793.3794
 -50705350.55948 -39486952.86646  20840998.2194                   20840997.4304
 -28995625.83648 -22562970.34346  21386267.0234                   21386266.4494
 -72249699.96147 -56266501.58345  22049193.5164                   22049192.6524
  -4599598.67647  -3559406.17644  23457250.7194                   23457253.0984
 -40484716.65647 -31515484.92344  24024525.6094                   24024527.8484
 -60520223.29348 -47127373.63247  20529322.9534                   20529319.8874
 11  8 19  0 40 30.0000000  0  9G12G30G17G10G05G04G25G09G02
 -37696013.18048 -29343192.45846  20984757.8754                   20984756.2274
  -6888654.42647  -5342476.76044  22950387.8364                   22950387.9574
 -92453958.97746 -72011808.81344  23386342.9534                   23386343.4734
 -50798876.12948 -39559829.91946  20823200.9774                   20823199.8794
 -29187681.52048 -22712624.06646  21349720.2504                   21349719.6454
 -72282257.17247 -56291870.87645  22042997.5704                   22042997.2464
  -4805260.93747  -3719662.49144  23418115.0474                   23418116.8404
 -40515395.02347 -31539390.28944  24018687.6804                   24018690.1764
 -60624820.79748 -47208878.18046  20509418.7974                   20509415.5124
 11  8 19  0 41  0.0010000  0  9G12G30G17G10G05G04G25G09G02
 -36278333.45748 -28238506.94546  21254533.1254                   21254531.7194
  -5513465.68047  -4270901.11444  23212077.8364                   23212078.2074
 -90933218.44547 -70826816.20644  23675730.5474                   23675730.7894
 -49316291.72348 -38404569.33646  21105327.5864                   21105326.5354
 -27803862.61748 -21634323.56146  21613051.8674                   21613051.2584
 -70739247.92647 -55089526.03745  22336622.7114                   22336622.4304
  -3435181.70747  -2652068.28044  23678832.3594                   23678834.2194
 -38970525.92246 -30335596.30044  24312666.2664                   24312669.0124
 -59153678.43748 -46062533.48446  20789367.5704                   20789364.3914
 11  8 19  0 41 30.0000000  0  9G12G30G17G10G05G04G25G09G02
 -36435505.11348 -28360978.33046  21224624.3444                   21224622.9494
  -5713263.97747  -4426588.02644  23174057.2194                   23174058.0704
 -90987658.52047 -70869237.07744  23665371.1414                   23665371.1414
 -49408434.87548 -38476369.17946  21087793.2424                   21087792.4384
 -27995000.02048 -21783261.74846  21576679.7034                   21576679.1954
 -70771512.52047 -55114667.29845  22330483.3204                   22330483.0044
  -3640191.46147  -2811816.12644  23639820.0704                   23639822.0234
 -39000951.43746 -30359304.65243  24306875.4694                   24306879.0554
 -59257634.02048 -46143537.83246  20769585.7274                   20769582.4654
 11  8 19  0 42  0.0000000  0  9G12G30G17G10G05G04G25G09G02
 -36592114.39848 -28483011.52846  21194823.0474                   21194820.9774
  -5912637.37547  -4581943.86344  23136117.0474                   23136117.8134
 -91041859.95347 -70911472.02944  23655056.6724                   23655057.3364
 -49499889.93748 -38547632.84146  21070389.9774                   21070389.0864
 -28185681.20748 -21931844.42946  21540394.5164                   21540394.2304
 -70803632.33647 -55139695.74745  22324370.6954                   22324370.6684
  -3844878.62147  -2971312.58045  23600869.5394                   23600872.2464
 -39031254.28146 -30382917.35343  24301110.1174                   24301112.5394
 -59361272.69548 -46224295.24346  20749864.0394                   20749860.6024
 11  8 19  0 42 30.0000000  0  9G12G30G17G10G05G04G25G09G02
 -36748151.76248 -28604599.05846  21165129.7894                   21165127.9804
  -6111574.13747  -4736959.47044  23098261.1094                   23098261.5554
 -91095818.08246 -70953517.41844  23644788.5234                   23644789.1094
 -49590652.37948 -38618356.81046  21053118.2734                   21053117.4774
 -28375895.03548 -22080062.95046  21504197.6644                   21504197.3524
 -70835605.94947 -55164610.26845  22318286.1644                   22318286.4804
  -4049231.36747  -3130548.47444  23561982.1334                   23561984.8364
 -39061434.36746 -30406434.47443  24295367.3674                   24295369.3204
 -59464590.30948 -46304802.46846  20730203.2274                   20730199.7974
 11  8 19  0 43  0.0000000  0  9G12G30G17G10G05G04G25G09G02
 -36903618.47748 -28725741.92846  21135545.5234                   21135543.7114
  -6310074.28547  -4891634.84444  23060488.0394                   23060487.7664
 -91149535.51246 -70995375.20044  23634566.8984                   23634567.5234
 -49680725.40648 -38688543.55346  21035977.7274                   21035976.9454
 -28565641.35948 -22227917.16746  21468089.8674                   21468089.8984
 -70867437.56647 -55189414.15245  22312229.1254                   22312229.1294
  -4253249.84847  -3289523.91044  23523158.9064                   23523161.1484
 -39091497.63746 -30429860.48943  24289645.5234                   24289649.2154
 -59567591.08648 -46385062.80947  20710602.8204                   20710599.4454
 11  8 19  0 43 30.0000000  0  9G12G30G17G10G05G04G25G09G02
 -37058512.96948 -28846438.93046  21106069.9844                   21106068.2504
  -6508135.95747  -5045968.58644  23022798.2584                   23022797.6374
 -91203012.57846 -71037045.69844  23624390.6484                   23624390.6844
 -49770110.72748 -38758194.45146  21018968.0554                   21018967.2814
 -28754918.60948 -22375405.88046  21432071.8204                   21432071.5634
 -70899129.76647 -55214109.39845  22306197.7974                   22306197.6954
  -4456932.20347  -3448237.41844  23484399.7034                   23484401.8484
 -39121448.06246 -30453198.70843  24283947.5474                   24283949.6094
 -59670276.66848 -46465077.53646  20691062.2034                   20691058.7464
 11  8 19  0 44  0.0000000  0  9G12G30G17G10G05G04G25G09G02
 -37212830.01248 -28966685.96746  21076704.3754                   21076702.9574
  -6705752.81647  -5199955.70644  22985192.7734                   22985192.7704
 -91256245.26247 -71078525.72044  23614260.9534                   23614261.1954
 -49858806.02048 -38827307.65046  21002090.1414                   21002089.3754
 -28943721.19148 -22522524.71946  21396144.2424                   21396143.4224
 -70930680.60947 -55238694.48645  22300194.4224                   22300194.4414
  -4660272.12547  -3606684.09144  23445705.6644                   23445707.4264
 -39151285.44146 -30476448.66043  24278268.9534                   24278271.5704
 -59772644.65248 -46544844.78246  20671582.4384                   20671578.7464
 11  8 19  0 44 30.0000000  0  9G12G30G17G10G05G04G25G09G02
 -37366564.43048 -29086479.01746  21047449.8364                   21047448.1954
  -6902918.56247  -5353591.32444  22947673.2034                   22947673.3094
 -91309229.48047 -71119812.17344  23604177.9534                   23604178.8014
 -49946808.19548 -38895880.75946  20985343.9384                   20985342.9384
 -29132042.68048 -22669268.68646  21360307.5704                   21360307.1054
 -70962088.06647 -55263167.88945  22294217.4694                   22294217.7504
  -4863263.34847  -3764858.98645  23407077.0554                   23407079.9964
 -39181009.34846 -30499610.33443  24272612.9774                   24272615.4064
 -59874692.77348 -46624362.80746  20652163.3984                   20652159.9224
 11  8 19  0 45  0.0000000  0  9G12G30G17G10G05G04G25G09G02
 -37519715.30548 -29205817.35746  21018306.1174                   21018304.5944
  -7099631.30547  -5506873.95444  22910240.3284                   22910239.5314
 -91361966.04346 -71160905.62144  23594142.5704                   23594143.6564
 -50034119.28148 -38963915.36046  20968729.2894                   20968728.1684
 -29319881.40248 -22815636.47046  21324563.1484                   21324562.9884
 -70993354.80547 -55287531.61945  22288267.5704                   22288268.4264
  -5065904.32447  -3922760.97544  23368515.9694                   23368518.2584
 -39210624.28546 -30522687.05043  24266977.6564                   24266979.2774
 -59976423.09048 -46703633.16947  20632804.5554                   20632801.3524
 11  8 19  0 45 30.0000000  0  9G12G30G17G10G05G04G25G09G02
 -37672285.31248 -29324703.08646  20989273.0314                   20989271.3204
  -7295892.91447  -5659805.00844  22872892.7974                   22872892.7974
 -91414458.60246 -71201808.96344  23584154.0164                   23584154.3014
 -50120744.21548 -39031415.29446  20952245.2504                   20952244.2664
 -29507238.90248 -22961629.27046  21288909.8054                   21288909.5824
 -71024486.78147 -55311790.35245  22282343.4614                   22282343.6724
  -5268196.54747  -4080391.21444  23330020.6174                   23330023.6094
 -39240137.92246 -30545684.87743  24261361.1884                   24261364.6914
 -60077841.47348 -46782660.48046  20613505.3524                   20613502.2344
 11  8 19  0 46  0.0000000  0  9G12G30G17G10G05G04G25G09G02
 -37824269.84048 -29443132.58346  20960351.2274                   20960349.6254
  -7491697.77047  -5812380.18044  22835632.4694                   22835632.3714
 -91466704.43446 -71242520.06544  23574211.4534                   23574212.4884
 -50206681.31248 -39098379.24546  20935891.3444                   20935891.0554
 -29694110.36748 -23107243.35146  21253349.6954                   21253348.6174
 -71055483.10947 -55335943.34445  22276445.2734                   22276445.3634
  -5470134.80947  -4237745.65245  23291593.1804                   23291596.0704
 -39269550.27346 -30568603.77543  24255763.8914                   24255767.1764
 -60178946.26648 -46861443.41946  20594265.9694                   20594262.6054
 11  8 19  0 46 30.0000000  0  9G12G30G17G10G05G04G25G09G02
 -37975662.34048 -29561100.76246  20931542.2814                   20931540.6804
  -7687038.80547  -5964593.96644  22798459.7344                   22798459.5274
 -91518698.42646 -71283034.93044  23564317.8674                   23564318.1374
 -50291927.53948 -39164804.86946  20919669.9924                   20919669.0204
 -29880488.93748 -23252473.35346  21217882.5004                   21217882.0634
 -71086340.56247 -55359988.14245  22270573.3834                   22270573.3914
  -5671711.84847  -4394818.61745  23253234.4384                   23253236.7734
 -39298860.03546 -30591442.66743  24250187.6484                   24250190.1454
 -60279734.30948 -46939979.54646  20575086.4534                   20575083.1374
 11  8 19  0 47  0.0000000  0  9G12G30G17G10G05G04G25G09G02
 -38126456.71948 -29678602.88346  20902846.8984                   20902845.6174
  -7881908.44147  -6116440.38944  22761377.4224                   22761377.3204
 -91570435.62546 -71323349.66944  23554472.4844                   23554473.4454
 -50376478.72748 -39230688.91546  20903580.3054                   20903579.2504
 -30066367.01648 -23397313.37246  21182511.1884                   21182510.9304
 -71117056.28147 -55383922.48345  22264728.3914                   22264727.8404
  -5872920.17647  -4551604.27345  23214945.9304                   23214948.1844
 -39328065.88546 -30614200.60443  24244629.9534                   24244633.0824
 -60380201.74648 -47018265.85247  20555967.9844                   20555964.4844
 11  8 19  0 47 30.0000000  0  9G12G30G17G10G05G04G25G09G02
 -38276651.90248 -29795638.09046  20874265.4144                   20874264.5044
  -8076304.46147  -6267917.74744  22724384.8524                   22724385.1804
 -91621915.81646 -71363464.12044  23544675.9534                   23544676.5044
 -50460336.25848 -39296032.44846  20887622.9534                   20887621.7934
 -30251742.58248 -23541761.82346  21147235.5234                   21147234.5474
 -71147632.15247 -55407747.88745  22258910.2274                   22258910.0164
  -6073757.62147  -4708100.89745  23176727.4384                   23176730.2774
 -39357171.14546 -30636880.25143  24239091.8754                   24239094.2234
 -60480350.25848 -47096303.65546  20536910.5234                   20536907.1764
 11  8 19  0 48  0.0000000  0  9G12G30G17G10G05G04G25G09G02
 -38426247.61748 -29912206.16946  20845798.4844                   20845797.1174
  -8270225.81247  -6419025.26244  22687483.5164                   22687483.0204
 -91673140.35546 -71403379.38244  23534928.0394                   23534929.0594
 -50543502.75448 -39360837.50546  20871796.7734                   20871795.8954
 -30436615.14148 -23685818.31646  21112055.3834                   21112055.0744
 -71178071.31647 -55431466.73945  22253118.1414                   22253117.6604
  -6274223.12147  -4864307.73845  23138580.3364                   23138582.4734
 -39386181.02346 -30659485.49943  24233570.6724                   24233574.1764
 -60580182.55148 -47174095.03646  20517913.0944                   20517909.7504
 11  8 19  0 48 30.0000000  0  9G12G30G17G10G05G04G25G09G02
 -36999819.07448 -28800703.40946  21117238.9774                   21117237.2074
  -6888245.35247  -5342157.33744  22950465.2974                   22950465.1804
 -90148689.38346 -70215495.54444  23825021.7034                   23825022.6214
 -49050558.62147 -38197504.42346  21155894.6484                   21155893.5004
 -29045557.87548 -22601877.53746  21376764.2974                   21376763.8674
 -69632956.42647 -54227481.14445  22547142.9844                   22547142.9884
  -4898889.39847  -3792619.04945  23400297.6954                   23400299.2504
 -37839679.46546 -29454419.54343  24527860.5634                   24527863.7424
 -59104279.04348 -46024040.35247  20798768.3914                   20798764.5594
 11  8 19  0 49  0.0000000  0  9G12G30G17G10G05G04G25G09G02
 -37148217.31248 -28916338.39246  21088999.7424                   21088998.1844
  -7081216.13347  -5492524.11344  22913744.0164                   22913744.5474
 -90199408.60946 -70255017.01344  23815370.1094                   23815370.3524
 -49132352.79748 -38261240.15046  21140329.9144                   21140328.8674
 -29229423.42648 -22745149.35246  21341776.1724                   21341776.1294
 -69663133.78547 -54250996.02545  22541400.7424                   22541400.2854
  -5098609.87947  -3948245.35445  23362291.8914                   23362294.0234
 -37868514.46946 -29476888.60643  24522373.8674                   24522377.3794
 -59203490.23448 -46101347.75946  20779888.7504                   20779885.2544
 11  8 19  0 49 30.0000000  0  9G12G30G17G10G05G04G25G09G02
 -37296008.21948 -29031500.13446  21060875.7274                   21060874.4494
  -7273701.56247  -5642512.70445  22877115.1484                   22877115.0664
 -90249868.60246 -70294336.50944  23805768.4454                   23805768.9304
 -49213456.64847 -38324437.95846  21124895.9304                   21124894.9384
 -29412775.89148 -22888021.35546  21306885.3364                   21306884.7664
 -69693176.49247 -54274405.94445  22535684.4694                   22535683.5864
  -5297947.80147  -4103573.52745  23324359.4694                   23324361.1214
 -37897260.79746 -29499288.47244  24516904.0234                   24516906.6024
 -59302386.35548 -46178409.66247  20761069.4774                   20761066.0124
 11  8 19  0 50  0.0000000  0  9G12G30G17G10G05G04G25G09G02
 -37443187.58648 -29146185.34646  21032868.6174                   21032867.3164
  -7465695.68047  -5792118.45044  22840580.1174                   22840579.6764
 -90300065.96146 -70333451.32144  23796216.0944                   23796216.4654
 -49293868.11748 -38387096.24746  21109594.3754                   21109593.6334
 -29595609.55948 -23030489.11446  21272093.4454                   21272092.7504
 -69723082.70747 -54297709.52045  22529993.2424                   22529992.6644
  -5496897.19147  -4258599.01544  23286500.4454                   23286501.7424
 -37925918.45746 -29521619.33044  24511450.5864                   24511454.1374
 -59400965.37148 -46255224.47046  20742310.5554                   20742307.3984
 11  8 19  0 50 30.0000000  0  9G12G30G17G10G05G04G25G09G02
 -37589752.48848 -29260391.75046  21004978.2664                   21004976.9024
  -7657195.08247  -5941338.71745  22804139.1724                   22804138.6094
 -90349999.12146 -70372360.30544  23786713.3364                   23786714.2274
 -49373587.58247 -38449215.30646  21094424.0314                   21094423.4774
 -29777921.29348 -23172550.15246  21237400.7034                   21237399.5784
 -69752853.44147 -54320907.52445  22524327.8444                   22524327.9844
  -5695454.58647  -4413318.98745  23248716.5084                   23248718.0274
 -37954489.75046 -29543882.83544  24506013.3524                   24506016.9024
 -59499227.58248 -46331792.42246  20723612.1804                   20723608.7304
 11  8 19  0 51  0.0000000  0  9G12G30G17G10G05G04G25G09G02
 -37735702.43448 -29374118.97546  20977205.2114                   20977203.3094
  -7848198.11747  -6090172.19045  22767792.3134                   22767791.9884
 -90399668.93046 -70411064.08444  23777262.1174                   23777262.8094
 -49452617.18048 -38510796.81546  21079385.2194                   21079384.2624
 -29959709.23448 -23314203.04746  21202807.1724                   21202806.8014
 -69782490.85247 -54344001.64545  22518688.0704                   22518688.0004
  -5893618.38347  -4567732.29344  23211006.4614                   23211008.3204
 -37982978.73847 -29566082.24044  24500592.6954                   24500596.1484
 -59597175.39148 -46408115.38546  20704973.0234                   20704969.7234
 11  8 19  0 51 30.0000000  0  9G12G30G17G10G05G04G25G09G02
 -37881034.56648 -29487364.76746  20949549.3364                   20949547.8554
  -8038701.08247  -6238616.00144  22731540.4924                   22731540.3164
 -90449073.84046 -70449561.45944  23767860.4304                   23767861.6134
 -49530956.93048 -38571840.78746  21064477.9924                   21064477.0394
 -30140970.46148 -23455445.52846  21168314.3914                   21168313.9414
 -69811995.50047 -54366992.28145  22513073.1174                   22513073.1454
  -6091384.73847  -4721835.89845  23173372.5234                   23173374.6844
 -38011387.26646 -29588218.91943  24495186.4384                   24495190.0394
 -59694808.61348 -46484193.21946  20686394.1414                   20686390.6414
 11  8 19  0 52  0.0000000  0  9G12G30G17G10G05G04G25G09G02
 -38025746.43048 -29600127.23846  20922011.2734                   20922009.8984
  -8228700.18047  -6386667.18445  22695384.8914                   22695385.1564
 -90498212.51246 -70487851.36044  23758509.9694                   23758510.0514
 -49608606.80148 -38632347.17146  21049701.6334                   21049700.8914
 -30321701.70748 -23596275.01946  21133922.3674                   21133921.9344
 -69841367.65247 -54389879.69245  22507484.2894                   22507483.5634
  -6288749.85547  -4875626.84145  23135815.9454                   23135817.7934
 -38039717.41047 -29610294.56443  24489796.0394                   24489799.4304
 -59792127.74648 -46560026.31846  20667874.5944                   20667871.4454
 11  8 19  0 52 30.0000000  0  9G12G30G17G10G05G04G25G09G02
 -38169839.20348 -29712407.31346  20894591.3284                   20894589.8204
  -8418195.52047  -6534325.84045  22659325.4534                   22659324.7114
 -90547087.60246 -70525935.87843  23749208.8674                   23749210.2584
 -49685571.10948 -38692319.36246  21035055.6564                   21035055.0164
 -30501903.01648 -23736691.58346  21099631.0864                   21099630.7814
 -69870611.51647 -54412667.14145  22501919.3524                   22501918.8204
  -6485713.87547  -5029105.24245  23098334.6024                   23098336.2974
 -38067974.98046 -29632313.65943  24484418.7974                   24484422.6604
 -59889136.59448 -46635617.62146  20649414.4534                   20649411.1724
 11  8 19  0 53  0.0000000  0  9G12G30G17G10G05G04G25G09G02
 -38313309.19148 -29824202.09546  20867289.9534                   20867288.5864
  -8607182.27347  -6681588.19044  22623361.5704                   22623362.2194
 -90595696.24246 -70563812.78844  23739959.5474                   23739960.6214
 -49761848.78147 -38751756.50346  21020540.5864                   21020539.9694
 -30681569.97748 -23876691.75346  21065441.7194                   21065441.2814
 -69899726.49647 -54435354.18245  22496378.5394                   22496378.6604
  -6682271.88347  -5182267.26945  23060931.0164                   23060932.6454
 -38096160.93046 -29654276.90843  24479055.4924                   24479058.1604
 -59985833.93448 -46710966.17746  20631013.4534                   20631010.3244
 11  8 19  0 53 30.0000000  0  9G12G30G17G10G05G04G25G09G02
 -38456154.80548 -29935510.36746  20840107.3834                   20840105.8634
  -8795657.78147  -6828452.14544  22587496.0314                   22587496.4224
 -90644038.31247 -70601482.00244  23730760.5164                   23730760.8094
 -49837441.08648 -38810659.60346  21006155.8914                   21006155.0394
 -30860700.15248 -24016273.66846  21031354.4614                   21031353.9064
 -69928713.76247 -54457941.66045  22490862.6884                   22490862.4614
  -6878421.18747  -5335110.84145  23023604.6804                   23023606.7664
 -38124278.41446 -29676186.85143  24473704.7504                   24473708.0824
 -60082220.91448 -46786072.91846  20612672.0554                   20612668.6884
 11  8 19  0 54  0.0000000  0  9G12G30G17G10G05G04G25G09G02
 -38598375.69147 -30046331.83146  20813043.6414                   20813042.1414
  -8983620.55547  -6974916.61744  22551727.3204                   22551728.1024
 -90692114.45347 -70638943.97444  23721612.1414                   23721612.1644
 -49912350.36748 -38869030.48046  20991901.0784                   20991900.1914
 -31039292.32048 -24155436.35046  20997369.5634                   20997368.5664
 -69957576.03147 -54480431.80045  22485370.4304                   22485370.1914
  -7074160.23847  -5487634.71545  22986357.0394                   22986359.2074
 -38152331.41846 -29698046.55443  24468366.5474                   24468370.4144
 -60178300.04748 -46860939.76247  20594388.5084                   20594385.2734
 11  8 19  0 54 30.0000000  0  9G12G30G17G10G05G04G25G09G02
 -38739976.82448 -30156670.34846  20786097.8594                   20786096.6094
  -9171074.48047  -7120984.54344  22516056.4534                   22516057.1844
 -90739930.96947 -70676203.59144  23712512.5084                   23712513.5204
 -49986584.49648 -38926875.24046  20977774.7504                   20977773.9224
 -31217350.54748 -24294182.97946  20963485.8594                   20963485.1524
 -69986321.03547 -54502830.54745  22479901.0864                   22479901.0514
  -7269492.83647  -5639841.88645  22949186.3134                   22949188.7154
 -38180329.46146 -29719863.44843  24463039.1094                   24463042.3874
 -60274078.49648 -46935572.31146  20576162.3594                   20576159.4734
 11  8 19  0 55  0.0000000  0  9G12G30G17G10G05G04G25G09G02
 -38880948.35948 -30266518.28946  20759271.6724                   20759270.6604
  -9358008.33247  -7266647.19844  22480484.5234                   22480483.8324
 -90787478.56247 -70713253.68644  23703465.3364                   23703465.0354
 -50060136.25048 -38984188.29246  20963778.2664                   20963777.5434
 -31394864.23048 -24432505.27546  20929706.0784                   20929704.8484
 -70014941.68747 -54525132.37945  22474454.1334                   22474454.1134
  -7464407.73447  -5791723.59245  22912095.1414                   22912097.4574
 -38208267.02746 -29741633.20843  24457723.2734                   24457726.8054
 -60369549.30148 -47009965.15346  20557995.2114                   20557991.6414
 11  8 19  0 55 30.0000000  0  9G12G30G17G10G05G04G25G09G02
 -37445867.93048 -29148273.79746  21032358.6094                   21032357.0634
  -7968997.36747  -6184300.94344  22744804.2274                   22744803.9734
 -89259339.62947 -69522496.08944  23994260.2114                   23994260.4104
 -48557588.34848 -37813371.72646  21249703.7034                   21249702.8164
 -29996408.94948 -23342799.81846  21195823.1414                   21195822.8404
 -68468022.49247 -53319740.81645  22768823.6644                   22768823.7464
  -6083479.77347  -4715675.75845  23174877.3984                   23174878.9774
 -36660730.19146 -28535760.53943  24752209.8834                   24752213.5124
 -58889294.20748 -45856519.63146  20839678.3134                   20839675.1604
 11  8 19  0 56  0.0000000  0  9G12G30G17G10G05G04G25G09G02
 -37585583.31248 -29257142.92546  21005771.5864                   21005770.3484
  -8154891.41447  -6329153.38145  22709430.0314                   22709429.6844
 -89306357.18047 -69559133.12644  23985312.5394                   23985313.0594
 -48629787.35548 -37869630.68946  21235964.6644                   21235963.6954
 -30172834.37148 -23480274.12246  21162250.3914                   21162249.9574
 -68496406.48847 -53341858.24044  22763421.6484                   22763422.0944
  -6277559.27347  -4866906.49545  23137944.9144                   23137946.7894
 -36688563.85246 -28557449.34743  24746913.1804                   24746916.5594
 -58984160.93748 -45930441.75246  20821625.6484                   20821622.4804
 11  8 19  0 56 30.0000000  0  9G12G30G17G10G05G04G25G09G02
 -37724666.66448 -29365519.57546  20979305.0314                   20979303.4734
  -8340259.16847  -6473595.72045  22674155.6254                   22674154.7274
 -89353106.93047 -69595561.55644  23976416.8364                   23976416.6414
 -48701309.91048 -37925362.53746  21222354.5864                   21222353.4734
 -30348709.78148 -23617319.84746  21128782.5634                   21128782.1294
 -68524671.80547 -53363883.18844  22758043.2814                   22758043.4574
  -6471214.57447  -5017806.65745  23101093.5164                   23101095.8524
 -36716347.52346 -28579099.13243  24741626.1094                   24741630.2034
 -59078725.02348 -46004128.04446  20803630.8364                   20803627.5984
 11  8 19  0 57  0.0000000  0  9G12G30G17G10G05G04G25G09G02
 -37863117.07448 -29473402.99046  20952958.8984                   20952957.3054
  -8525099.09047  -6617626.78445  22638981.8444                   22638981.2894
 -89399589.38346 -69631781.68143  23967571.7114                   23967571.6804
 -48772158.14848 -37980568.93246  21208872.6884                   21208871.4344
 -30524034.18048 -23753936.21846  21095419.5164                   21095418.5004
 -68552820.70347 -53385817.43145  22752686.3984                   22752686.3364
  -6664444.04747  -5168375.01345  23064322.7894                   23064325.2034
 -36744085.47346 -28600713.40443  24736347.9384                   24736351.8874
 -59172988.50848 -46077580.10146  20785693.0784                   20785689.8674
 11  8 19  0 57 30.0000000  0  9G12G30G17G10G05G04G25G09G02
 -38000933.71148 -29580792.57146  20926733.2274                   20926731.1374
  -8709409.05547  -6761244.87745  22603908.6804                   22603908.1844
 -89445804.61346 -69667793.55544  23958777.0704                   23958778.0984
 -48842334.02748 -38035251.43746  21195518.6804                   21195517.5164
 -30698805.89548 -23890121.91946  21062161.2584                   21062160.6914
 -68580854.94947 -53407662.33544  22747352.2504                   22747352.0594
  -6857245.48447  -5318609.84545  23027633.1804                   23027635.8794
 -36771780.97346 -28622294.48343  24731078.5394                   24731081.1804
 -59266952.85948 -46150799.08346  20767811.8984                   20767809.1374
 11  8 19  0 58  0.0000000  0  9G12G30G17G10G05G04G25G09G02
 -38138111.06248 -29687684.01646  20900629.2274                   20900627.4224
  -8893182.24647  -6904444.69645  22568937.8364                   22568938.0904
 -89491748.03946 -69703593.62043  23950033.6334                   23950034.3444
 -48911834.93748 -38089407.98546  21182292.7974                   21182291.6524
 -30873018.01248 -24025871.56746  21029009.9304                   21029009.1564
 -68608771.56647 -53429415.56144  22742039.7664                   22742039.3134
  -7049611.90247  -5468505.68645  22991027.8524                   22991030.2194
 -36799432.56646 -28643841.41643  24725816.5554                   24725820.2194
 -59360614.93048 -46223782.52546  20749988.9454                   20749985.6804
 11  8 19  0 58 30.0000000  0  9G12G30G17G10G05G04G25G09G02
 -38274651.66048 -29794079.28446  20874646.4534                   20874644.9774
  -9076420.26647  -7047227.51945  22534068.6094                   22534068.5164
 -89537423.66445 -69739185.08743  23941342.4534                   23941343.2624
 -48980666.50048 -38143042.95946  21169194.7504                   21169193.5594
 -31046672.41848 -24161186.63946  20995964.7974                   20995963.7504
 -68636575.78547 -53451081.21844  22736748.5864                   22736748.4534
  -7241544.79347  -5618063.71445  22954504.1414                   22954506.2384
 -36827047.44546 -28665359.78743  24720561.7194                   24720565.5394
 -59453979.95348 -46296534.50746  20732221.9694                   20732218.8634
 11  8 19  0 59  0.0000000  0  9G12G30G17G10G05G04G25G09G02
 -38410557.03948 -29899979.57746  20848784.2584                   20848782.8204
  -9259123.09447  -7189593.28345  22499301.3984                   22499301.8524
 -89582833.67246 -69774569.53444  23932701.2424                   23932701.8204
 -49048832.68448 -38196159.46546  21156222.9614                   21156221.9344
 -31219770.10548 -24296067.91546  20963024.9534                   20963024.3524
 -68664271.77347 -53472662.57845  22731478.2814                   22731478.4264
  -7433044.06247  -5767283.86845  22918063.0394                   22918064.9264
 -36854630.96946 -28686853.70243  24715312.3364                   24715316.5124
 -59547051.88748 -46369058.09446  20714511.1414                   20714508.4224
 11  8 19  0 59 30.0000000  0  9G12G30G17G10G05G04G25G09G02
 -38545826.66048 -30005384.48546  20823043.5864                   20823042.1914
  -9441289.10947  -7331540.77645  22464636.1724                   22464636.1054
 -89627978.59446 -69809747.45144  23924110.4924                   23924111.5704
 -49116335.96948 -38248759.41546  21143377.5234                   21143376.6994
 -31392309.34448 -24430514.03246  20930192.0634                   20930190.9304
 -68691861.41847 -53494161.03244  22726227.8444                   22726228.3634
  -7624107.85547  -5916164.66745  22881704.4774                   22881705.8444
 -36882186.82446 -28708326.01543  24710069.5864                   24710073.9494
 -59639832.53148 -46441354.70646  20696855.5084                   20696852.3594
 11  8 19  1  0  0.0000000  0  9G12G30G17G10G05G04G25G09G02
 -38680453.39548 -30110288.43046  20797424.7974                   20797423.2854
  -9622909.74647  -7473063.27945  22430075.1334                   22430074.8404
 -89672852.33646 -69844714.04544  23915571.1024                   23915572.4454
 -49183171.78148 -38300839.26546  21130659.3524                   21130658.4694
 -31564281.89548 -24564518.57946  20897466.4844                   20897465.7344
 -68719340.07047 -53515573.02144  22720999.4454                   22720998.5944
  -7814727.59848  -6064699.46345  22845431.3284                   22845432.3444
 -36909712.23446 -28729774.61143  24704831.7814                   24704836.3014
 -59732316.76248 -46513420.33846  20679256.5234                   20679253.3284
 11  8 19  1  0 30.0000000  0  9G12G30G17G10G05G04G25G09G02
 -38814441.24248 -30214694.54446  20771927.7734                   20771926.2424
  -9803987.99247  -7614163.15945  22395616.5084                   22395616.2304
 -89717459.94946 -69879473.28644  23907082.5864                   23907084.0314
 -49249347.11348 -38352404.45346  21118066.3914                   21118065.5944
 -31735691.35248 -24698084.33146  20864848.2194                   20864847.8284
 -68746714.26247 -53536903.58344  22715790.0084                   22715790.1724
  -8004905.99647  -6212890.36045  22809241.4224                   22809242.8094
 -36937215.41846 -28751205.84543  24699598.1094                   24699602.2034
 -59824511.36348 -46585260.29946  20661712.5474                   20661709.0864
 11  8 19  1  1  0.0000000  0  9G12G30G17G10G05G04G25G09G02
 -38947782.32848 -30318596.68946  20746553.9774                   20746552.2194
  -9984514.70747  -7754833.24445  22361263.4144                   22361263.3404
 -89761794.39146 -69914019.65144  23898645.8984                   23898647.2424
 -49314857.04348 -38403451.15846  21105600.3364                   21105599.0824
 -31906528.88748 -24831204.43746  20832339.4614                   20832338.6724
 -68773978.55147 -53558148.52544  22710601.9454                   22710602.0234
  -8194633.85548  -6360730.18945  22773137.4384                   22773138.6134
 -36964692.69946 -28772616.94843  24694370.0084                   24694373.7304
 -59916410.66448 -46656870.14346  20644224.6174                   20644221.3634
 11  8 19  1  1 30.0000000  0  9G12G30G17G10G05G04G25G09G02
 -39080479.76648 -30421997.28146  20721302.4614                   20721300.6414
 -10164491.53547  -7895074.86345  22327014.9384                   22327014.9924
 -89805859.74246 -69948356.28244  23890260.9774                   23890261.4924
 -49379707.48048 -38453983.95446  21093259.6804                   21093258.2934
 -32076796.22348 -24963880.25346  20799938.3204                   20799937.3754
 -68801138.55947 -53579312.20744  22705433.2034                   22705433.7974
  -8383912.63748  -6508220.09145  22737118.6334                   22737120.0354
 -36992150.88346 -28794013.16743  24689143.8834                   24689148.2114
 -60008019.97748 -46728254.03146  20626792.0234                   20626788.7154
 11  8 19  1  2  0.0000000  0  9G12G30G17G10G05G04G25G09G02
 -39212531.39548 -30524894.64646  20696173.6414                   20696172.0004
 -10343915.06247  -8034885.33645  22292872.1954                   22292871.5084
 -89849654.88346 -69982482.39044  23881926.5784                   23881927.7584
 -49443899.12148 -38504003.40046  21081044.3134                   21081043.4494
 -32246490.77348 -25096109.71846  20767646.4924                   20767645.5274
 -68828194.78547 -53600395.02144  22700284.6954                   22700284.6254
  -8572738.82847  -6655357.31645  22701185.8754                   22701187.8094
 -37019592.01246 -28815396.09543  24683923.1334                   24683926.8524
 -60099339.62548 -46799412.20746  20609414.5084                   20609411.0204
 11  8 19  1  2 30.0000000  0  9G12G30G17G10G05G04G25G09G02
 -37768510.26648 -29399683.36946  20970961.8444                   20970960.0664
  -8947355.56247  -6946657.09445  22558628.0554                   22558627.8874
 -88317756.51647 -68788795.37744  24173437.2194                   24173438.3134
 -47932009.88348 -37325907.88746  21368747.1024                   21368746.3094
 -30840183.22348 -24000285.60646  21035258.0704                   21035257.1454
 -67279725.73847 -52393795.80544  22994948.8054                   22994948.8244
  -7185682.16048  -5574533.85945  22965134.5394                   22965135.6524
 -35471596.83246 -27609166.26143  24978496.5164                   24978501.1134
 -58614946.20348 -45642742.01046  20891885.1174                   20891882.0554
 11  8 19  1  3  0.0000000  0  9G12G30G17G10G05G04G25G09G02
 -37899268.67648 -29501573.03046  20946079.2424                   20946077.4454
  -9125667.23047  -7085601.21045  22524696.9384                   22524696.0354
 -88361012.25047 -68822501.12544  24165206.7344                   24165207.4024
 -47994890.55148 -37374905.80446  21356781.3914                   21356780.7234
 -31008727.57448 -24131618.82546  21003184.9384                   21003183.9654
 -67306579.27047 -52414720.67244  22989838.9614                   22989839.0984
  -7373597.24248  -5720961.12745  22929374.8914                   22929376.6844
 -35499014.70746 -27630531.11843  24973279.3364                   24973284.0594
 -58705691.71148 -45713452.78646  20874616.8054                   20874613.4694
 11  8 19  1  3 30.0000000  0  8G12G30G17G10G05G04G25G02
 -38029382.96148 -29602960.77646  20921319.3524                   20921318.0554
  -9303423.42247  -7224112.47445  22490871.0394                   22490870.1844
 -88404002.21147 -68855999.80644  24157025.9064                   24157025.6294
 -48057122.78148 -37423398.43246  21344939.0704                   21344937.9344
 -31176698.33648 -24262505.08646  20971221.2584                   20971220.3834
 -67333337.47347 -52435571.23744  22984747.4304                   22984747.0784
  -7561056.98447  -5867033.59845  22893702.6174                   22893703.7814
 -58796155.68448 -45783944.20546  20857401.9614                   20857399.0004
 11  8 19  1  4  0.0000000  0  8G12G30G17G10G05G04G25G02
 -38158851.33648 -29703845.20746  20896682.8754                   20896681.1804
  -9480621.04747  -7362188.51445  22457151.3204                   22457151.0514
 -88446725.48047 -68889290.64544  24148895.8364                   24148896.6724
 -48118707.49247 -37471386.50446  21333220.2664                   21333218.8594
 -31344092.46148 -24392942.03846  20939367.2194                   20939366.1884
 -67360000.55547 -52456347.65944  22979673.4454                   22979673.5634
  -7748058.14547  -6012748.72645  22858118.0474                   22858119.1844
 -58886338.71948 -45854216.70846  20840240.4694                   20840237.4264
 11  8 19  1  4 30.0000000  0  8G12G30G17G10G05G04G25G02
 -38287662.68448 -29804217.67546  20872170.3284                   20872168.5704
  -9657247.54347  -7499819.51745  22423540.3914                   22423539.4774
 -88489171.36347 -68922365.36544  24140818.0164                   24140818.7304
 -48179636.17647 -37518863.39646  21321625.6884                   21321624.8284
 -31510897.84448 -24522920.21846  20907624.8914                   20907623.9304
 -67386559.69947 -52477043.11744  22974619.3914                   22974619.3014
  -7934587.80547  -6158096.47445  22822621.8444                   22822623.1684
 -58976231.66448 -45924263.16646  20823134.7504                   20823131.5784
 11  8 19  1  5  0.0000000  0  8G12G30G17G10G05G04G25G02
 -38415808.27348 -29904071.38246  20847785.1884                   20847783.5124
  -9833293.02047  -7636997.79945  22390040.3134                   22390038.8914
 -88531332.25846 -68955217.98943  24132795.6804                   24132796.2074
 -48239903.09847 -37565824.62746  21310157.4384                   21310156.3284
 -31677105.03948 -24652432.27846  20875997.0084                   20875995.8594
 -67413008.52347 -52497652.61145  22969586.4064                   22969586.5944
  -8120636.04747  -6303069.08845  22787217.6174                   22787219.4494
 -59065828.00848 -45994078.50546  20806085.2344                   20806082.2194
 11  8 19  1  5 30.0000000  0  8G12G30G17G10G05G04G25G02
 -38543292.18748 -30003409.47446  20823525.8594                   20823523.9614
 -10008760.24647  -7773725.48545  22356649.5554                   22356648.2734
 -88573213.45746 -68987852.70543  24124825.3364                   24124825.7934
 -48299515.05948 -37612275.50946  21298813.2194                   21298812.3094
 -31842716.91448 -24781480.45246  20844482.0554                   20844481.2114
 -67439353.59047 -52518181.26644  22964572.3444                   22964573.3284
  -8306205.37147  -6447668.50545  22751904.9384                   22751907.0354
 -59155133.89848 -46063667.53346  20789090.6954                   20789087.8244
 11  8 19  1  6  0.0000000  0  8G12G30G17G10G05G04G25G02
 -38670119.83648 -30102236.18746  20799390.9844                   20799389.5634
 -10183652.87147  -7910005.43145  22323368.4224                   22323367.8674
 -88614820.44546 -69020273.65242  24116907.2504                   24116907.5744
 -48358480.14148 -37658222.33046  21287592.5634                   21287591.4924
 -32007737.87548 -24910068.16446  20813079.5634                   20813078.5744
 -67465601.62947 -52538634.30644  22959577.7194                   22959578.4384
  -8491299.18747  -6591897.41045  22716683.1254                   22716684.5864
 -59244156.68048 -46133035.93646  20772150.3914                   20772147.2034
 11  8 19  1  6 30.0000000  0  8G12G30G17G10G05G04G25G02
 -38796294.05548 -30200553.75546  20775380.9614                   20775379.4024
 -10357972.94947  -8045839.22945  22290196.4614                   22290196.0474
 -88656157.53546 -69052484.30542  24109041.2274                   24109040.7304
 -48416804.55947 -37703669.93345  21276494.0704                   21276492.3874
 -32172170.27748 -25038197.27246  20781788.6094                   20781787.7304
 -67491758.34847 -52559016.21744  22954600.7424                   22954601.0124
  -8675919.34847  -6735757.21845  22681551.0474                   22681552.8984
 -59332902.13748 -46202188.25046  20755262.5784                   20755259.2194
 11  8 19  1  7  0.0000000  0  8G12G30G17G10G05G04G25G02
 -38921813.80948 -30298361.33646  20751495.5084                   20751493.4964
 -10531717.53147  -8181224.60745  22257134.0084                   22257133.2194
 -88697224.01246 -69084484.14142  24101226.6254                   24101226.1994
 -48474489.51647 -37748619.22446  21265516.7194                   21265515.7854
 -32336011.67248 -25165865.84546  20750610.8914                   20750610.4454
 -67517824.10547 -52579327.21944  22949640.4844                   22949641.1134
  -8860062.52348  -6879245.37945  22646510.0474                   22646511.5664
 -59421370.11748 -46271124.34246  20738427.6954                   20738424.4024
 11  8 19  1  7 30.0000000  0  8G12G30G17G10G05G04G25G02
 -39046676.80548 -30395657.16446  20727734.7344                   20727733.1054
 -10704883.04747  -8316158.76345  22224181.9614                   22224180.9534
 -88738018.35546 -69116271.95043  24093464.0164                   24093464.7304
 -48531535.69947 -37793070.80446  21254660.9534                   21254660.0474
 -32499258.89848 -25293071.42747  20719545.8754                   20719545.0514
 -67543798.66446 -52599567.15844  22944698.0084                   22944697.9774
  -9043725.04347  -7022359.01345  22611559.6954                   22611560.9184
 -59509560.34848 -46339843.99346  20721645.6884                   20721642.4694
 11  8 19  1  8  0.0000000  0  8G12G30G17G10G05G04G25G02
 -39170885.52748 -30492443.17446  20704098.6024                   20704097.2624
 -10877470.58247  -8450642.53545  22191339.4534                   22191339.6414
 -88778543.56646 -69147849.96743  24085752.6954                   24085753.5044
 -48587948.47748 -37837028.80646  21243926.6334                   21243925.1954
 -32661913.78548 -25419815.45246  20688593.8524                   20688592.7774
 -67569686.67247 -52619739.64144  22939771.4454                   22939771.4654
  -9226907.76648  -7165098.79645  22576701.5864                   22576703.1954
 -59597477.40248 -46408350.79746  20704915.7034                   20704912.3834
 11  8 19  1  8 30.0000000  0  8G12G30G17G10G05G04G25G02
 -39294441.79348 -30588720.76746  20680586.4694                   20680584.8954
 -11049480.82047  -8584676.45345  22158607.2504                   22158606.7854
 -88818802.64546 -69179220.68544  24078091.6094                   24078092.0274
 -48643732.81648 -37880497.12145  21233310.9064                   21233309.9064
 -32823977.20348 -25546098.60446  20657754.3204                   20657753.1684
 -67595492.07847 -52639847.75044  22934861.1174                   22934861.0984
  -9409611.07447  -7307464.99745  22541934.0944                   22541935.5004
 -59685125.75048 -46476648.21646  20688236.5234                   20688233.5394
 11  8 19  1  9  0.0000000  0  8G12G30G17G10G05G04G25G02
 -39417348.00848 -30684491.83746  20657198.0474                   20657196.7304
 -11220914.71947  -8718261.31045  22125984.1644                   22125984.3444
 -88858798.88346 -69210386.62143  24070480.1414                   24070481.5664
 -48698893.64148 -37923479.57746  21222814.1094                   21222813.2304
 -32985450.42648 -25671921.84746  20627026.7504                   20627025.6414
 -67621219.12947 -52659894.78444  22929965.9534                   22929964.4884
  -9591835.64847  -7449458.13845  22507257.8054                   22507259.5124
 -59772509.41848 -46544739.38946  20671607.8524                   20671605.2034
 11  8 19  1  9 30.0000000  0  8G12G30G17G10G05G04G25G02
 -39539600.29748 -30779753.35846  20633934.5474                   20633932.8324
 -11391766.63347  -8851392.61245  22093471.5234                   22093471.9574
 -88898528.43746 -69241344.68044  24062920.0234                   24062921.4454
 -48753429.55148 -37965975.10146  21212436.5704                   21212435.2034
 -33146328.48448 -25797281.31946  20596412.6644                   20596411.8834
 -67646865.69547 -52679879.17844  22925085.1174                   22925084.6644
  -9773575.59847  -7591073.67745  22472673.8524                   22472675.1294
 -59859625.94548 -46612622.39146  20655030.6804                   20655027.3594
 11  8 19  1 10  0.0000000  0  8G12G30G17G10G05G04G25G02
 -38085773.25448 -29646901.09246  20910588.5864                   20910586.7894
  -9986608.55147  -7756464.20845  22360864.5084                   22360864.5394
 -87362570.16446 -68044494.04144  24355203.3444                   24355203.9844
 -47231920.85548 -36780383.91846  21501969.8754                   21501968.6564
 -31731184.18448 -24694571.44446  20865705.5784                   20865704.7814
 -66097011.73847 -51472200.79644  23220011.9614                   23220012.1844
  -8379402.30547  -6504704.86045  22737976.4384                   22737977.7814
 -58371053.48848 -45452695.79946  20938296.3754                   20938293.3164
 11  8 19  1 10 30.0000000  0  8G12G30G17G10G05G04G25G02
 -38206716.01248 -29741142.19546  20887573.8594                   20887572.0394
 -10156291.02047  -7888684.27445  22328575.0314                   22328574.5784
 -87401767.57846 -68075037.49644  24347744.4224                   24347744.8524
 -47285214.30948 -36821911.28446  21491828.3674                   21491827.3324
 -31890867.65648 -24819000.07646  20835318.7114                   20835317.9844
 -66122501.15246 -51492062.72844  23215161.5474                   23215161.5634
  -8560166.61747  -6645560.15745  22703578.3594                   22703579.4184
 -58457640.07448 -45520165.87646  20921819.3914                   20921816.1684
 11  8 19  1 11  0.0000000  0  8G12G30G17G10G05G04G25G02
 -38327002.07448 -29834871.59246  20864684.2274                   20864682.2234
 -10325384.73847  -8020445.58245  22296397.9534                   22296397.4844
 -87440698.08247 -68105372.93244  24340335.8524                   24340336.3444
 -47337888.60548 -36862956.18146  21481804.9614                   21481803.9064
 -32049950.48048 -24942960.67746  20805046.0394                   20805044.9414
 -66147912.99246 -51511864.17144  23210325.8754                   23210326.1524
  -8740438.65247  -6786031.82545  22669273.4064                   22669274.8484
 -58543962.64548 -45587430.21146  20905392.6564                   20905389.6564
 11  8 19  1 11 30.0000000  0  8G12G30G17G10G05G04G25G02
 -38446631.68048 -29928089.45846  20841919.5234                   20841918.0514
 -10493888.24247  -8151746.96045  22264332.3984                   22264332.3984
 -87479362.14146 -68135500.71144  24332978.9384                   24332979.4534
 -47389946.59848 -36903520.85146  21471898.7584                   21471897.7664
 -32208431.63348 -25066452.44246  20774888.2194                   20774887.3094
 -66173248.94547 -51531606.52644  23205504.6724                   23205504.9694
  -8920216.69147  -6926118.58145  22635062.6094                   22635064.3714
 -58630022.87148 -45654490.11146  20889015.9144                   20889013.0634
 11  8 19  1 12  0.0000000  0  8G12G30G17G10G05G04G25G02
 -38565606.34848 -30020796.97946  20819279.4384                   20819277.5984
 -10661801.69947  -8282588.59445  22232379.5554                   22232379.6524
 -87517761.73046 -68165422.47444  24325670.9534                   24325672.4064
 -47441392.90248 -36943608.88146  21462108.7274                   21462107.9924
 -32366311.78948 -25189475.90247  20744844.6644                   20744843.9224
 -66198512.24646 -51551292.25744  23200697.1254                   23200697.6294
  -9099500.62147  -7065820.28945  22600946.1884                   22600948.1254
 -58715824.34048 -45721348.38546  20872688.5704                   20872685.2384
 11  8 19  1 12 30.0000000  0  8G12G30G17G10G05G04G25G02
 -38683926.32448 -30112994.36146  20796764.0314                   20796762.3484
 -10829123.96947  -8412969.53145  22200539.1414                   22200539.1644
 -87555898.26246 -68195139.26544  24318414.1954                   24318414.1954
 -47492230.62148 -36983222.68746  21452434.1334                   21452433.5554
 -32523590.59448 -25312030.76747  20714915.5944                   20714914.5234
 -66223704.79747 -51570922.88444  23195903.2114                   23195903.9144
  -9278288.85247  -7205135.77745  22566923.5704                   22566925.3754
 -58801368.83648 -45788006.42746  20856410.0474                   20856406.8914
 11  8 19  1 13  0.0000000  0  8G12G30G17G10G05G04G25G02
 -38801592.21948 -30204682.06646  20774372.7664                   20774370.9224
 -10995854.25847  -8542889.21245  22168811.8134                   22168810.8834
 -87593772.67646 -68224651.73343  24311207.0634                   24311207.3324
 -47542463.03548 -37022364.83346  21442875.6484                   21442874.8014
 -32680267.57448 -25434116.68947  20685100.9924                   20685100.1604
 -66248829.15646 -51590500.30944  23191122.2114                   23191123.2344
  -9456580.39147  -7344064.20245  22532995.8204                   22532997.4924
 -58886658.66848 -45854466.02746  20840180.0314                   20840176.9804
 11  8 19  1 13 30.0000000  0  8G12G30G17G10G05G04G25G02
 -38918605.74648 -30295861.43846  20752105.9454                   20752104.3554
 -11161992.64547  -8672347.66745  22137196.7584                   22137196.3674
 -87631387.21146 -68253961.75343  24304049.4614                   24304049.7274
 -47592094.30148 -37061038.54246  21433430.9224                   21433430.0864
 -32836343.18048 -25555734.00947  20655400.6564                   20655399.3874
 -66273888.39547 -51610027.03844  23186354.1884                   23186354.1374
  -9634374.95747  -7482605.38945  22499162.7034                   22499164.4574
 -58971696.99248 -45920729.64446  20823997.7344                   20823994.7464
 11  8 19  1 14  0.0000000  0  9G12G30G17G10G05G04G25G29G02
 -39034966.99248 -30386532.53646  20729963.0554                   20729961.3484
 -11327537.70747  -8801343.78145  22105694.4384                   22105693.4534
 -87668742.14846 -68283069.48743  24296939.7274                   24296940.7344
 -47641127.25847 -37099246.03845  21424100.4614                   21424099.7304
 -32991816.16448 -25676881.74446  20625815.0864                   20625813.7974
 -66298883.94547 -51629504.09544  23181597.9384                   23181597.8674
  -9811670.74247  -7620757.90745  22465424.5314                   22465426.4774
  15478768.78155  12082589.42653  24603855.9614                   24603855.6214
 -59056485.59048 -45986798.66346  20807862.9304                   20807859.7734
 11  8 19  1 14 30.0000000  0  9G12G30G17G10G05G04G25G29G02
 -39150687.10947 -30476704.06047  20707941.8594                   20707940.2504
 -11492499.34847  -8929885.28145  22074303.2114                   22074302.3094
 -87705850.01245 -68311984.62142  24289877.9774                   24289878.7074
 -47689576.09847 -37136998.38645  21414880.6174                   21414879.8594
 -33146697.26648 -25797568.27547  20596342.0234                   20596341.0554
 -66323828.90646 -51648941.72944  23176851.1254                   23176850.4574
  -9988477.28547  -7758529.17945  22431779.2424                   22431781.0274
  15291933.56346  11937003.58743  24568301.5474                   24568302.7154
 -59141037.43447 -46052683.20746  20791773.0944                   20791769.9774
 11  8 19  1 15  0.0000000  0  9G12G30G17G10G05G04G25G29G02
 -39265768.30547 -30566377.71847  20686042.8204                   20686041.2854
 -11656877.98847  -9057972.49945  22043023.2194                   22043022.0434
 -87742712.68746 -68340708.83943  24282864.8204                   24282864.9534
 -47737445.45747 -37174299.17046  21405772.1884                   21405770.7114
 -33300987.58648 -25917794.45747  20566981.5944                   20566980.5004
 -66348726.58246 -51668342.55444  23172112.3444                   23172112.2584
 -10164794.73447  -7895919.36245  22398227.1644                   22398228.7854
  15105080.45746  11791403.84044  24532744.2734                   24532745.3164
 -59225356.06247 -46118386.01446  20775727.5234                   20775724.6994
 11  8 19  1 15 30.0000000  0  9G12G30G17G10G05G04G25G29G02
 -39380205.75048 -30655549.75346  20664266.3054                   20664264.6524
 -11820667.55547  -9185600.70045  22011854.9384                   22011854.1724
 -87779326.16446 -68369238.80543  24275896.1094                   24275897.6994
 -47784733.57048 -37211147.05345  21396772.6724                   21396771.8754
 -33454681.44548 -26037555.85747  20537734.5084                   20537733.3674
 -66373573.94946 -51687704.13244  23167384.4534                   23167384.0474
 -10340616.56647  -8032923.34045  22364769.0704                   22364770.9534
  14918214.16446  11645793.79844  24497185.0944                   24497185.5274
 -59309438.56648 -46183904.83246  20759727.5944                   20759724.8094
 11  8 19  1 16  0.0000000  0  9G12G30G17G10G05G04G25G29G02
 -39493997.25448 -30744218.46346  20642612.4614                   20642611.0004
 -11983864.07847  -9312766.80245  21980799.4614                   21980798.7384
 -87815688.64546 -68397573.13943  24268976.9774                   24268978.0984
 -47831440.78547 -37247542.28745  21387884.7114                   21387884.0784
 -33607775.17248 -26156849.63347  20508602.2114                   20508600.6524
 -66398369.95346 -51707025.74644  23162665.8134                   23162665.5664
 -10515938.56647  -8169537.85045  22331406.9064                   22331408.2894
  14731336.73847  11500175.11744  24461623.2424                   24461624.1804
 -59393283.84848 -46249238.81446  20743772.6254                   20743769.2704
 11  8 19  1 16 30.0000000  0  9G12G30G17G10G05G04G25G29G02
 -39607145.85947 -30832386.21246  20621080.8984                   20621079.3484
 -12146469.24247  -9439472.10345  21949856.5314                   21949856.3634
 -87851803.69546 -68425714.62243  24262105.0004                   24262104.8874
 -47877572.69147 -37283489.23445  21379106.0234                   21379105.2154
 -33760271.10248 -26275677.59347  20479582.7504                   20479581.6454
 -66423119.15646 -51726310.90544  23157955.5554                   23157956.0864
 -10690761.97747  -8305763.85245  22298139.0314                   22298140.1804
  14544445.49647  11354545.64944  24426059.4064                   24426059.3094
 -59476896.59047 -46314391.59446  20727861.0864                   20727857.4964
 11  8 19  1 17  0.0000000  0  9G12G30G17G10G05G04G25G29G02
 -38144222.76248 -29692446.13746  20899466.0394                   20899464.6214
 -10733050.77047  -8338107.02745  22218821.1804                   22218820.7894
 -86312245.25446 -67226058.64043  24555072.8914                   24555073.2304
 -46347704.96547 -36091384.50745  21670230.5704                   21670230.0664
 -32336737.94548 -25166430.93447  20750472.0704                   20750470.7584
 -64872396.72846 -50517955.76744  23453049.2114                   23453048.5784
  -9289653.68447  -7213991.11445  22564760.8674                   22564762.6334
  15932972.49247  12436514.81244  24690287.0314                   24690287.2424
 -57984849.93448 -45151757.82446  21011788.3524                   21011785.2384
 11  8 19  1 17 30.0000000  0  9G12G30G17G10G05G04G25G29G02
 -38256073.40248 -29779602.48546  20878181.4614                   20878179.7464
 -10894456.00847  -8463877.34645  22188106.5234                   22188106.0434
 -86347854.46546 -67253805.98143  24548296.0704                   24548297.4264
 -46392681.84447 -36126431.43145  21661671.7344                   21661670.6414
 -32488022.65248 -25284315.08647  20721683.5164                   20721682.3134
 -64897043.65646 -50537161.22344  23448358.5864                   23448359.0784
  -9463461.52347  -7349425.75845  22531686.1254                   22531687.8204
  15746066.94547  12290874.18944  24654720.1174                   24654720.8094
 -58067989.29748 -45216541.74946  20995967.1334                   20995964.0164
 11  8 19  1 18  0.0000000  0  9G12G30G17G10G05G04G25G29G02
 -38367275.07048 -29866253.13247  20857020.6644                   20857018.8984
 -11055259.19147  -8589178.49445  22157507.0164                   22157506.3244
 -86383211.20346 -67281356.59643  24541569.1884                   24541568.6524
 -46437085.50448 -36161031.69446  21653222.1564                   21653220.8524
 -32638700.20348 -25401726.11747  20693010.6174                   20693009.7344
 -64921641.82846 -50556328.66544  23443677.9064                   23443678.5864
  -9636758.90647  -7484462.66145  22498708.9144                   22498710.3874
  15559154.39547  12145228.13944  24619151.8284                   24619152.3914
 -58150894.12148 -45281142.90546  20980191.1884                   20980187.8714
 11  8 19  1 18 30.0000000  0  9G12G30G17G10G05G04G25G29G02
 -38477826.61748 -29952397.19146  20835983.1954                   20835981.5124
 -11215457.85247  -8714008.60845  22127021.9064                   22127021.4694
 -86418315.11746 -67308710.28043  24534888.9064                   24534888.6134
 -46480917.66848 -36195186.63945  21644881.0234                   21644879.8874
 -32788768.83648 -25518662.68047  20664453.6724                   20664452.1564
 -64946191.14847 -50575458.05844  23439006.2424                   23439007.0514
  -9809542.96947  -7619099.55945  22465829.1414                   22465830.4614
  15372235.92647  11999577.42944  24583582.8674                   24583582.0274
 -58233564.93048 -45345561.71046  20964459.4384                   20964455.8134
 11  8 19  1 19  0.0000000  0  9G12G30G17G10G05G04G25G29G02
 -38587731.93448 -30038037.70047  20815068.8364                   20815067.4964
 -11375054.03547  -8838369.25045  22096652.0864                   22096651.5434
 -86453170.23446 -67335870.03443  24528256.5864                   24528256.2774
 -46524184.55548 -36228901.09745  21636647.5634                   21636646.5634
 -32938231.37148 -25635126.96247  20636011.4064                   20636010.2734
 -64970696.73847 -50594553.38044  23434343.7274                   23434344.1174
  -9981815.34047  -7753337.75045  22433046.8674                   22433048.2894
  15185308.09447  11853919.46244  24548010.6174                   24548011.8324
 -58316006.59848 -45409801.97246  20948771.4454                   20948768.1024
 11  8 19  1 19 30.0000000  0  9G12G30G17G10G05G04G25G29G02
 -38696991.71948 -30123175.18946  20794277.6174                   20794275.8284
 -11534046.93047  -8962259.81345  22066396.4064                   22066395.7074
 -86487777.59847 -67362836.73643  24521670.6724                   24521670.8164
 -46566889.59047 -36262177.76545  21628520.6644                   21628520.0594
 -33087087.15248 -25751118.44947  20607685.1644                   20607684.1134
 -64995160.28547 -50613615.92444  23429688.2344                   23429688.6054
 -10153574.77347  -7887176.25145  22400361.9064                   22400363.3524
  14998370.75047  11708254.06444  24512437.5474                   24512438.2384
 -58398221.28948 -45473865.37246  20933126.6254                   20933123.3714
 11  8 19  1 20  0.0000000  0  9G12G30G17G10G05G04G25G29G02
 -38805601.41847 -30207806.11747  20773609.9144                   20773608.2424
 -11692430.37548  -9085675.47145  22036256.7974                   22036256.5474
 -86522132.94547 -67389607.07644  24515132.7194                   24515132.7424
 -46609030.86748 -36295015.11845  21620501.9224                   21620501.1914
 -33235330.85248 -25866632.98147  20579475.6254                   20579473.7854
 -65019578.48447 -50632643.14444  23425041.6254                   23425041.8914
 -10324814.72747  -8020609.97045  22367775.9534                   22367777.9964
  14811429.00047  11562585.19043  24476863.7734                   24476864.0044
 -58480205.59448 -45537749.24946  20917525.3524                   20917522.2384
 11  8 19  1 20 30.0000000  0  9G12G30G17G10G05G04G25G29G02
 -38913558.65647 -30291928.62246  20753066.2344                   20753064.5594
 -11850200.23847  -9208613.01045  22006234.6094                   22006234.6524
 -86556234.09047 -67416179.32044  24508643.4614                   24508643.8324
 -46650608.46148 -36327413.24345  21612590.1724                   21612589.2894
 -33382958.61348 -25981667.56847  20551382.8834                   20551381.8754
 -65043949.88747 -50651633.88144  23420404.0394                   23420404.1724
 -10495530.62547  -8153635.31345  22335289.6024                   22335291.2344
  14624485.64846  11416915.10343  24441289.7504                   24441289.7814
 -58561958.19948 -45601452.55546  20901968.1174                   20901965.0984
 11  8 19  1 21  0.0000000  0  8G12G30G10G05G04G25G29G02
 -39020861.20747 -30375540.99046  20732647.3364                   20732645.6914
 -12007352.98447  -9331069.66545  21976329.3364                   21976329.0784
 -46691622.96548 -36359372.60645  21604785.1334                   21604784.0744
 -33529967.58248 -26096219.97447  20523407.8834                   20523406.8014
 -65068273.52047 -50670587.38744  23415775.2504                   23415776.3244
 -10665718.46947  -8286249.18745  22302903.9844                   22302905.5474
  14437543.10946  11271245.64443  24405716.0784                   24405716.6764
 -58643478.44948 -45664974.83046  20886455.5864                   20886452.1134
 11  8 19  1 21 30.0000000  0  8G12G30G10G05G04G25G29G02
 -39127508.32448 -30458642.61947  20712353.2584                   20712351.4964
 -12163886.39548  -9453043.75545  21946541.8674                   21946541.8134
 -46732076.07048 -36390894.51445  21597087.0864                   21597086.1954
 -33676355.92648 -26210288.77147  20495550.9774                   20495549.9734
 -65092549.89847 -50689504.08144  23411155.5634                   23411156.2854
 -10835375.58247  -8418449.52745  22270619.0864                   22270621.0594
  14250602.53946  11125577.68743  24370142.5554                   24370141.5084
 -58724766.54748 -45728316.21446  20870986.9304                   20870983.2304
 11  8 19  1 22  0.0000000  0  8G12G30G10G05G04G25G29G02
 -39233496.94948 -30541231.14546  20692184.0634                   20692182.2194
 -12319795.39147  -9574531.24045  21916873.8204                   21916873.0394
 -46771967.01648 -36421978.37545  21589496.4694                   21589495.1994
 -33822119.46548 -26323870.72347  20467813.0944                   20467812.2194
 -65116776.44946 -50708381.93743  23406545.5314                   23406545.7154
 -11004496.50447  -8550232.03845  22238436.7114                   22238437.9064
  14063667.82046  10979914.32543  24334569.5554                   24334569.6994
 -58805820.52048 -45791475.15046  20855562.9064                   20855559.7974
 11  8 19  1 22 30.0000000  0  8G12G30G10G05G04G25G29G02
 -39338819.68447 -30623300.78847  20672141.7974                   20672140.2274
 -12475071.41048  -9695525.53645  21887325.6644                   21887325.3054
 -46811291.35548 -36452620.73045  21582013.1094                   21582011.6054
 -33967249.73448 -26436959.20147  20440195.6954                   20440194.4224
 -65140947.07446 -50727216.22743  23401946.0944                   23401946.6844
 -11173072.14547  -8681589.65245  22206357.6884                   22206359.5984
  13876746.73046  10834261.48143  24299000.0864                   24299000.4654
 -58886634.17248 -45854446.82846  20840184.8204                   20840181.5744
 11  8 19  1 23  0.0000000  0  8G12G30G10G05G04G25G29G02
 -39443482.18447 -30704855.96447  20652224.9144                   20652223.3484
 -12629718.38348  -9816029.64845  21857896.9454                   21857896.5984
 -46850057.16448 -36482827.83845  21574636.2584                   21574634.7894
 -34111751.50048 -26549557.95147  20412698.1644                   20412696.8524
 -65165068.12146 -50746011.83544  23397355.4384                   23397356.3524
 -11341105.98047  -8812525.09446  22174382.1094                   22174383.6884
  13689834.47346  10688615.63443  24263431.9534                   24263432.0824
 -58967214.35248 -45917236.56846  20824850.6414                   20824847.6684
 11  8 19  1 23 30.0000000  0  8G12G30G10G05G04G25G29G02
 -39547489.81248 -30785900.84447  20632433.1884                   20632431.2814
 -12783740.07048  -9936046.51845  21828588.2034                   21828587.7814
 -46888272.40248 -36512605.94145  21567363.9534                   21567363.4344
 -34255629.02048 -26661670.26647  20385319.1254                   20385317.6054
 -65189145.77746 -50764773.64243  23392774.3284                   23392774.5124
 -11508601.19948  -8943040.81945  22142508.8834                   22142510.8594
  13502926.18046  10542972.86643  24227864.0004                   24227863.7544
 -59047567.27348 -45979849.22846  20809559.7194                   20809556.5204
 11  8 19  1 24  0.0000000  0  8G12G30G10G05G04G25G29G02
 -39650848.94948 -30866440.41146  20612764.5234                   20612762.8324
 -12937141.66448 -10055580.20345  21799396.3754                   21799395.8054
 -46925946.27748 -36541962.20245  21560194.9534                   21560194.3284
 -34398888.12948 -26773300.71447  20358057.6724                   20358056.1254
 -65213188.02346 -50783507.91943  23388198.6414                   23388199.7894
 -11675562.68048  -9073140.65546  22110737.2424                   22110738.7894
  13316015.66046  10397328.30743  24192295.6334                   24192296.0394
 -59127700.73048 -46042290.88846  20794310.9614                   20794307.9304
 11  8 19  1 24 30.0000000  0  8G12G30G10G05G04G25G29G02
 -38178134.99648 -29718871.08346  20893012.6024                   20893010.9344
 -11514494.34848  -8947023.83145  22070117.5784                   22070116.8594
 -45387658.02348 -35343296.00945  21852921.5704                   21852920.8954
 -32966100.28948 -25656842.61947  20630707.9694                   20630706.7814
 -63661772.49646 -49574612.71343  23683423.4924                   23683423.0744
 -10266560.49248  -7975216.83146  22378861.7034                   22378863.1374
  14704531.94946  11479289.16643  24456521.3054                   24456522.4654
 -57632190.93748 -44876958.58246  21078897.2114                   21078893.8874
 11  8 19  1 25  0.0000000  0  8G12G30G10G05G04G25G29G02
 -38280195.10248 -29798398.41547  20873591.3054                   20873589.5824
 -11666647.37947  -9065584.60045  22041163.8914                   22041163.1024
 -45424253.27047 -35371811.79445  21845957.3364                   21845956.4574
 -33108115.25048 -25767503.59547  20603683.5164                   20603682.2544
 -63685742.43747 -49593290.64644  23678862.2974                   23678863.0904
 -10432444.41048  -8104476.98646  22347294.6094                   22347296.4534
  14517622.84446  11333645.74344  24420953.7974                   24420954.6764
 -57711884.79748 -44939057.68646  21063731.9694                   21063728.5164
 11  8 19  1 25 30.0000000  0  8G12G30G10G05G04G25G29G02
 -38381605.19148 -29877419.24346  20854293.3984                   20854291.9344
 -11818173.43447  -9183656.82645  22012328.7734                   22012328.8714
 -45460313.11347 -35399910.36945  21839095.6024                   21839095.0594
 -33249506.53148 -25877678.58647  20576777.8524                   20576776.3014
 -63709677.05947 -49611941.02544  23674307.5394                   23674307.5474
 -10597786.15648  -8233314.68146  22315831.5314                   22315832.8794
  14330715.87546  11188004.01344  24385387.2814                   24385387.3444
 -57791360.21548 -45000986.58746  21048608.2344                   21048605.0474
 11  8 19  1 26  0.0000000  0  8G12G30G10G05G04G25G29G02
 -38482372.09448 -29955938.89946  20835118.1024                   20835116.4534
 -11969077.71147  -9301244.54745  21983612.6414                   21983612.1094
 -45495846.32848 -35427598.59045  21832333.8134                   21832332.6214
 -33390279.79748 -25987372.00347  20549989.3984                   20549988.0394
 -63733583.75447 -49630569.67644  23669758.8054                   23669758.9454
 -10762590.33648  -8361733.49346  22284469.7194                   22284471.5234
  14143804.98847  11042359.20644  24349818.5084                   24349819.3714
 -57870624.67247 -45062751.08646  21033524.5314                   21033521.4144
 11  8 19  1 26 30.0000000  0  8G12G30G10G05G04G25G29G02
 -38582490.90648 -30033953.53946  20816066.1334                   20816064.4534
 -12119353.84448  -9418342.80445  21955016.3444                   21955015.8484
 -45530850.66048 -35454874.69245  21825672.4924                   21825671.6214
 -33530429.41047 -26096579.46847  20523319.8134                   20523318.3834
 -63757458.78547 -49649173.63044  23665215.6804                   23665216.2664
 -10926850.17248  -8489728.12446  22253212.3364                   22253214.0984
  13956895.65647  10896715.64944  24314250.9774                   24314251.7274
 -57949674.42647 -45124348.30346  21018482.0704                   21018479.0084
 11  8 19  1 27  0.0000000  0  8G12G30G10G05G04G25G29G02
 -38681965.83648 -30111466.47246  20797136.8364                   20797135.2544
 -12269004.42248  -9534953.61445  21926538.6334                   21926538.4224
 -45565332.73448 -35481743.86045  21819110.9694                   21819109.6134
 -33669958.26248 -26205303.22547  20496768.1414                   20496767.0704
 -63781306.68047 -49667756.44844  23660677.3524                   23660677.7504
 -11090567.58648  -8617300.10846  22222058.0554                   22222059.4024
  13769984.96547  10751071.00844  24278683.1414                   24278683.7504
 -58028514.21548 -45185781.90746  21003479.2814                   21003476.3054
 11  8 19  1 27 30.0000000  0  8G12G30G10G05G04G25G29G02
 -38780794.48848 -30188475.79446  20778330.5394                   20778328.7814
 -12418025.30948  -9651073.74645  21898181.1954                   21898180.4844
 -45599292.60248 -35508206.08945  21812648.3914                   21812647.6644
 -33808862.65248 -26313540.36847  20470335.8364                   20470334.3984
 -63805125.53547 -49686316.60744  23656144.5164                   23656144.8014
 -11253737.96948  -8744445.81446  22191007.6414                   22191009.3594
  13583076.07847  10605427.80944  24243116.2274                   24243115.6914
 -58107142.46548 -45247050.66646  20988516.6094                   20988513.7704
 11  8 19  1 28  0.0000000  0  8G12G30G10G05G04G25G29G02
 -38878978.98048 -30264983.18146  20759646.1804                   20759644.3014
 -12566416.86747  -9766703.49545  21869942.5704                   21869942.4344
 -45632734.64848 -35534264.86045  21806285.0234                   21806284.6024
 -33947143.78148 -26421291.87847  20444021.6954                   20444020.1214
 -63828918.19147 -49704856.40244  23651616.7664                   23651617.5594
 -11416361.17248  -8871165.17646  22160061.1954                   22160063.5784
  13396167.84847  10459785.06144  24207548.4064                   24207548.1994
 -58185562.00448 -45308156.79946  20973593.9534                   20973590.9224
 11  8 19  1 28 30.0000000  0  8G12G30G10G05G04G25G29G02
 -38976519.19948 -30340988.54447  20741085.1414                   20741083.3874
 -12714177.46148  -9881841.58845  21841825.1414                   21841824.0164
 -45665661.41848 -35559922.07945  21800019.0554                   21800018.3754
 -34084800.60248 -26528556.89647  20417826.3834                   20417824.9264
 -63852684.81647 -49723375.93444  23647094.7974                   23647094.8554
 -11578434.98048  -8997456.40546  22129219.6094                   22129221.0864
  13209261.54346  10314143.82344  24171980.8134                   24171981.8204
 -58263773.52748 -45369100.83746  20958710.8674                   20958707.9384
 11  8 19  1 29  0.0000000  0  8G12G30G10G05G04G25G29G02
 -39073414.44548 -30416491.33446  20722646.4454                   20722644.5084
 -12861305.06648  -9996486.45545  21813827.2424                   21813826.6334
 -45698074.69948 -35585179.19445  21793851.2894                   21793850.2464
 -34221831.66447 -26635334.32347  20391750.2194                   20391748.6644
 -63876425.69947 -49741875.40143  23642576.8444                   23642577.3444
 -11739956.85248  -9123317.58346  22098482.8054                   22098484.2234
  13022358.26246  10168504.98044  24136414.1644                   24136414.7624
 -58341777.41847 -45429883.08846  20943867.0784                   20943864.1374
 11  8 19  1 29 30.0000000  0  8G12G30G10G05G04G25G29G02
 -39169665.95748 -30491492.51246  20704330.2114                   20704328.7624
 -13007798.84048 -10110637.39745  21785950.5864                   21785950.1724
 -45729977.78948 -35610038.74845  21787780.5784                   21787779.7234
 -34358236.59847 -26741623.83247  20365793.0084                   20365792.0124
 -63900141.89847 -49760355.57343  23638063.2894                   23638064.0944
 -11900925.29348  -9248747.48946  22067851.5554                   22067853.4024
  12835458.45346  10022868.76944  24100848.8204                   24100848.7934
 -58419575.05548 -45490504.62046  20929063.1644                   20929059.7774
 11  8 19  1 30  0.0000000  0  8G12G30G10G05G04G25G29G02
 -39265272.65248 -30565991.25246  20686136.9614                   20686135.2734
 -13153656.27048 -10224292.52045  21758194.7974                   21758194.0594
 -45761372.17248 -35634501.90845  21781806.1484                   21781805.1804
 -34494013.41448 -26847423.91847  20339955.5864                   20339954.4304
 -63923833.13347 -49778816.30943  23633555.6884                   23633555.3484
 -12061337.32448  -9373743.85046  22037326.2894                   22037327.3594
  12648564.23046   9877236.95944  24065283.3594                   24065284.4024
 -58497166.12948 -45550965.21146  20914298.0394                   20914294.8364
 11  8 19  1 30 30.0000000  0  8G12G30G10G05G04G25G29G02
 -39360237.14148 -30639989.55547  20668066.1024                   20668064.4454
 -13298878.01248 -10337452.27845  21730559.9144                   21730559.8364
 -45792262.25847 -35658572.12045  21775927.7664                   21775927.0084
 -34629163.54748 -26952735.67447  20314237.4774                   20314236.1454
 -63947501.96547 -49797259.61243  23629051.0944                   23629051.2074
 -12221192.92248  -9498306.61446  22006906.7194                   22006908.1724
  12461674.38346   9731608.56244  24029720.0634                   24029720.5084
 -58574553.32048 -45611266.89846  20899571.3594                   20899568.0354
 11  8 19  1 31  0.0000000  0  8G12G30G10G05G04G25G29G02
 -39454561.37948 -30713488.98146  20650116.8594                   20650115.1414
 -13443464.64148 -10450117.17845  21703046.0944                   21703046.0354
 -45822652.67247 -35682252.97545  21770144.6954                   21770143.9774
 -34763687.77748 -27057559.72247  20288638.2814                   20288636.9884
 -63971151.05946 -49815687.54243  23624551.2194                   23624551.8524
 -12380492.15648  -9622435.85046  21976593.2034                   21976594.6024
  12274787.89546   9585982.74243  23994156.8674                   23994156.5554
 -58651739.58248 -45671412.02446  20884883.6644                   20884880.0004
 11  8 19  1 31 30.0000000  0  8G12G30G10G05G04G25G29G02
 -39548245.68048 -30786489.74446  20632289.2194                   20632287.4144
 -13587414.87948 -10562286.16245  21675652.9064                   21675652.2774
 -45852546.10248 -35705546.55345  21764455.9694                   21764455.6334
 -34897585.69148 -27161895.73147  20263158.4224                   20263156.9774
 -63994781.02746 -49834100.56143  23620054.8134                   23620054.9844
 -12539233.07848  -9746130.05646  21946385.6094                   21946387.1914
  12087905.68046   9440360.30843  23958593.8284                   23958593.8794
 -58728725.91048 -45731401.36846  20870233.6254                   20870230.2114
 11  8 19  1 32  0.0000000  0  8G12G30G10G05G04G25G29G02
 -38065869.93748 -29631391.77446  20914376.1954                   20914374.0784
 -12155305.09448  -9446356.45045  21948174.3984                   21948173.8444
 -44306526.68447 -34500856.11245  22058654.3444                   22058652.8484
 -33455434.49648 -26038141.52847  20537590.5164                   20537589.2734
 -62442974.08646 -48624900.39343  23915354.0164                   23915353.6334
 -11121991.03548  -8641785.56646  22216077.8834                   22216079.4924
  13476452.02746  10522344.49843  24222825.0164                   24222825.3874
 -57230093.16848 -44563635.58646  21155413.8834                   21155410.2704
 11  8 19  1 32 30.0000000  0  8G12G30G10G05G04G25G29G02
 -38158281.25048 -29703400.60346  20896790.6644                   20896788.8984
 -12297984.32448  -9557535.04645  21921023.6024                   21921022.4804
 -44335439.83647 -34523385.82845  22053151.8444                   22053150.9574
 -33588083.20748 -26141504.12147  20512348.2814                   20512346.8914
 -62466573.37946 -48643289.44243  23910863.4304                   23910863.6954
 -11279615.42248  -8764609.75746  22186083.2664                   22186084.2734
  13289574.98846  10376726.09543  24187264.7734                   24187263.6414
 -57306687.82448 -44623319.71646  21140838.5084                   21140834.8754
 11  8 19  1 33  0.0000000  0  8G12G30G10G05G04G25G29G02
 -38250057.51648 -29774914.59146  20879326.2504                   20879324.4264
 -12440026.96948  -9668217.61545  21893993.6954                   21893992.8014
 -44363867.64147 -34545537.37745  22047741.8054                   22047741.3164
 -33720106.92648 -26244379.72347  20487225.1024                   20487223.5354
 -62490158.93446 -48661667.86643  23906375.1334                   23906375.1914
 -11436679.48448  -8886997.31446  22156194.7894                   22156196.1054
  13102701.39546  10231110.38043  24151703.1954                   24151702.8914
 -57383088.90648 -44682853.00346  21126299.7664                   21126296.4534
 11  8 19  1 33 30.0000000  0  8G12G30G10G05G04G25G29G02
 -38341200.30548 -29845934.95146  20861982.1094                   20861980.7274
 -12581432.94148  -9778404.08145  21867085.1954                   21867084.2854
 -44391813.89547 -34567313.70945  22042424.3834                   22042422.9924
 -33851506.23048 -26346768.76047  20462220.5634                   20462219.0204
 -62513732.63346 -48680037.02043  23901888.9844                   23901889.2664
 -11593182.57448  -9008947.74646  22126413.0394                   22126414.7074
  12915830.66047  10085496.85743  24116143.2194                   24116142.1334
 -57459298.19148 -44742236.83946  21111797.1254                   21111793.7464
 11  8 19  1 34  0.0000000  0  8G12G30G10G05G04G25G29G02
 -38431711.23048 -29916462.94946  20844758.7814                   20844757.2074
 -12722202.19548  -9888094.42445  21840297.8834                   21840297.0704
 -44419282.40647 -34588717.75645  22037197.1484                   22037196.2854
 -33982281.70348 -26448671.70847  20437334.7114                   20437333.6484
 -62537296.11346 -48698398.24344  23897405.2194                   23897405.4384
 -11749123.97348  -9130460.49846  22096738.5164                   22096739.7774
  12728962.55146   9939885.38544  24080582.2814                   24080582.6254
 -57535317.15647 -44801472.37946  21097331.3204                   21097327.9414
 11  8 19  1 34 30.0000000  0  8G12G30G10G05G04G25G29G02
 -38521590.11348 -29986498.45546  20827655.4534                   20827653.9534
 -12862332.81648  -9997287.11045  21813631.7344                   21813631.7034
 -44446275.17248 -34609751.08345  22032061.0784                   22032059.6254
 -34112431.84448 -26550087.37847  20412568.0004                   20412566.6954
 -62560849.18447 -48716751.31443  23892923.3134                   23892924.0234
 -11904501.18048  -9251533.61846  22067171.2194                   22067173.0434
  12542099.02046   9794277.54244  24045023.7424                   24045023.8054
 -57611146.59048 -44860560.23446  21082901.8984                   21082898.6214
 11  8 19  1 35  0.0000000  0  8G12G30G10G05G04G25G29G02
 -38610839.75848 -30056043.63846  20810671.6254                   20810669.7814
 -13001825.87548 -10105982.98645  21787087.1644                   21787086.7074
 -44472796.77347 -34630417.29545  22027013.8674                   22027013.3914
 -34241958.41848 -26651017.14247  20387919.8444                   20387918.7074
 -62584394.64847 -48735098.44744  23888442.6254                   23888443.1564
 -12059314.59448  -9372167.43546  22037710.7424                   22037712.3484
  12355238.73047   9648672.17844  24009465.4694                   24009464.9844
 -57686789.31648 -44919502.59746  21068507.3524                   21068503.9574
 11  8 19  1 35 30.0000000  0  8G12G30G10G05G04G25G29G02
 -38699456.53948 -30125095.68046  20793808.3674                   20793807.2624
 -13140676.54748 -10214178.31246  21760664.7424                   21760664.0984
 -44498846.68747 -34650715.93945  22022056.4694                   22022056.0594
 -34370857.39148 -26751457.87847  20363390.9924                   20363389.8984
 -62607929.45346 -48753437.28743  23883963.5004                   23883964.9414
 -12213558.83648  -9492357.73146  22008359.6414                   22008361.2704
  12168386.45747   9503073.09644  23973908.5474                   23973908.5744
 -57762242.46148 -44978297.24046  21054148.8754                   21054145.4774
 11  8 19  1 36  0.0000000  0  8G12G30G10G05G04G25G29G02
 -38787443.85248 -30193657.23146  20777065.1334                   20777063.3404
 -13278885.96548 -10321873.94846  21734364.5004                   21734364.1564
 -44524429.69147 -34670650.77745  22017188.6954                   22017187.7114
 -34499130.25848 -26851410.73947  20338981.7194                   20338980.1764
 -62631456.47746 -48771770.09843  23879486.7274                   23879487.3634
 -12367234.28948  -9612104.82846  21979115.7424                   21979117.6054
  11981540.82847   9357479.18144  23938354.0784                   23938352.4264
 -57837508.68048 -45036946.23846  21039826.0474                   21039822.7154
 11  8 19  1 36 30.0000000  0  8G12G30G10G05G04G25G29G02
 -38874803.83248 -30261729.94146  20760440.9384                   20760439.1564
 -13416455.10948 -10429070.68546  21708185.9454                   21708185.4414
 -44549550.50447 -34690225.43845  22012408.4454                   22012407.2074
 -34626778.42648 -26950876.82047  20314691.0784                   20314689.6844
 -62654978.11746 -48790098.70243  23875011.0634                   23875011.4264
 -12520341.33248  -9731409.00046  21949980.6024                   21949981.9454
  11794700.87146   9211889.68544  23902798.6174                   23902798.0004
 -57912591.12548 -45095452.01346  21025538.7034                   21025535.1804
 11  8 19  1 37  0.0000000  0  8G12G30G10G05G04G25G29G02
 -38961535.99648 -30329313.43446  20743936.4614                   20743934.8834
 -13553381.32847 -10535766.43045  21682129.6174                   21682129.2704
 -44574210.09447 -34709440.73245  22007715.1724                   22007714.4454
 -34753799.98048 -27049854.63047  20290519.5234                   20290518.1174
 -62678493.35946 -48808422.32143  23870536.5394                   23870537.0554
 -12672876.57448  -9850267.62146  21920954.1334                   21920955.5234
  11607869.19546   9066306.63144  23867245.2974                   23867245.4774
 -57987489.30148 -45153814.22446  21011285.9454                   21011282.6764
 11  8 19  1 37 30.0000000  0  8G12G30G10G05G04G25G29G02
 -39047637.04748 -30396405.16046  20727552.0704                   20727550.0864
 -13689660.21147 -10641957.76646  21656196.6954                   21656196.3204
 -44598408.12547 -34728296.34945  22003110.8204                   22003110.1374
 -34880191.18048 -27148341.24447  20266467.9224                   20266466.9694
 -62701999.34046 -48826738.70443  23866063.5164                   23866064.1884
 -12824834.99248  -9968676.75846  21892037.0394                   21892039.1024
  11421049.88347   8920733.21044  23831694.9844                   23831694.7114
 -58062200.16448 -45212030.47146  20997068.6884                   20997065.5314
 11  8 19  1 38  0.0000000  0  8G12G30G10G05G04G25G29G02
 -39133110.53148 -30463007.87346  20711286.9614                   20711284.8284
 -13825293.44147 -10747645.99446  21630386.5784                   21630386.0434
 -44622150.06647 -34746796.58345  21998592.7814                   21998591.9844
 -35005953.98448 -27246338.20447  20242536.1484                   20242534.8404
 -62725499.31646 -48845050.35643  23861591.7194                   23861591.7384
 -12976217.58648 -10086637.20146  21863230.1414                   21863231.6214
  11234241.73047   8775168.49744  23796146.8524                   23796146.4104
 -58136727.43048 -45270103.66346  20982887.0634                   20982883.6054
 11  8 19  1 38 30.0000000  0  8G12G30G10G05G04G25G29G02
 -39217961.31248 -30529125.36046  20695140.3914                   20695138.6454
 -13960284.05547 -10852833.45145  21604698.7734                   21604697.9024
 -44645442.47747 -34764946.50645  21994160.5234                   21994159.7074
 -35131092.14848 -27343848.44547  20218723.2034                   20218721.8984
 -62748997.57446 -48863360.71444  23857120.1954                   23857119.6524
 -13127026.66048 -10204150.75546  21834532.2664                   21834533.8094
  11047441.52347   8629609.94444  23760599.4144                   23760599.3954
 -58211075.59448 -45328037.29546  20968738.7974                   20968735.3204
 11  8 19  1 39  0.0000000  0  8G12G30G10G05G04G25G29G02
 -39302188.28948 -30594756.76646  20679112.5634                   20679111.2854
 -14094629.26247 -10957517.99945  21579133.5084                   21579133.1564
 -44668286.29747 -34782746.91045  21989813.7664                   21989812.8594
 -35255603.73048 -27440870.41947  20195029.5704                   20195028.0204
 -62772493.03946 -48881668.93643  23852648.7504                   23852649.5824
 -13277258.78548 -10321214.74546  21805944.0234                   21805945.6564
  10860652.02047   8484059.71744  23725054.3594                   23725054.1334
 -58285243.85948 -45385830.74346  20954625.3054                   20954621.9804
 11  8 19  1 39 30.0000000  0  8G12G30G10G05G04G25G29G02
 -37810371.66048 -29432302.24546  20962995.8594                   20962994.2584
 -12652905.88347  -9834097.16746  21853483.8054                   21853483.8524
 -43115265.60247 -33572600.92745  22285343.8754                   22285342.9454
 -33804066.36348 -26309802.31847  20471247.6024                   20471246.3714
 -61220567.44146 -47672376.26143  24147970.6024                   24147971.1914
 -11851489.51248  -9210225.67946  22077258.9534                   22077260.2194
  12249298.53546   9566122.02444  23989304.9924                   23989305.3954
 -56783812.41048 -44215884.16846  21240337.8134                   21240334.4414
 11  8 19  1 40  0.0000000  0  8G12G30G10G05G04G25G29G02
 -37893357.31648 -29496966.38846  20947204.2424                   20947202.7704
 -12785961.78947  -9937777.06846  21828164.5554                   21828163.8594
 -43137224.51247 -33589711.77045  22281164.8754                   22281164.4614
 -33927327.75848 -26405850.12647  20447791.8364                   20447790.6174
 -61244062.60946 -47690684.26343  24143498.8054                   24143499.8164
 -12000567.04748  -9326389.99246  22048890.2034                   22048892.0124
  12062529.65647   9420587.81444  23953764.8674                   23953764.2814
 -56857626.97748 -44273402.00546  21226291.4614                   21226288.1994
 11  8 19  1 40 30.0000000  0  8G12G30G10G05G04G25G29G02
 -37975723.76648 -29561148.03046  20931530.3834                   20931528.2154
 -12918372.03147 -10040953.86245  21802967.5554                   21802967.3594
 -43158745.38347 -33606481.28445  22277069.5164                   22277069.2934
 -34049963.66448 -26501410.53947  20424455.0634                   20424453.7774
 -61267558.71546 -47708992.87643  24139028.2274                   24139028.2664
 -12149065.25448  -9442102.88146  22020631.5164                   22020633.4104
  11875772.00046   9275062.42144  23918224.9304                   23918225.8244
 -56931266.30948 -44330783.30846  21212278.4774                   21212275.2934
 11  8 19  1 41  0.0000000  0  8G12G30G10G05G04G25G29G02
 -38057470.94948 -29624847.13146  20915974.1334                   20915972.4224
 -13050134.89147 -10143626.19245  21777893.8834                   21777893.5664
 -43179830.18047 -33622910.99245  22273057.0554                   22273056.8284
 -34171973.05948 -26596482.77447  20401237.4304                   20401236.0904
 -61291055.29346 -47727301.85543  24134557.4384                   24134556.0274
 -12296981.72748  -9557362.44146  21992484.7734                   21992485.8444
  11689028.19147   9129547.75644  23882689.0474                   23882689.1484
 -57004729.93748 -44388027.71246  21198298.6804                   21198295.4924
 11  8 19  1 41 30.0000000  0  8G12G30G10G05G04G25G29G02
 -38138596.67648 -29688061.97646  20900536.7584                   20900534.9024
 -13181246.45748 -10245791.02545  21752944.2344                   21752943.6294
 -43200478.62947 -33639000.70145  22269127.9694                   22269127.1294
 -34293352.37148 -26691064.03047  20378139.8914                   20378138.0234
 -61314549.76246 -47745609.26243  24130085.7274                   24130086.7304
 -12444311.71148  -9672164.98846  21964448.2114                   21964450.1334
  11502302.37547   8984047.15044  23847155.9534                   23847156.5594
 -57078015.56648 -44445133.40346  21184353.0474                   21184349.9104
 11  8 19  1 42  0.0000000  0  8G12G30G10G05G04G25G29G02
 -38219103.63348 -29750794.66846  20885216.3914                   20885214.5704
 -13311707.69148 -10347449.10146  21728118.4144                   21728118.3674
 -43220695.18047 -33654753.87445  22265280.7584                   22265280.3164
 -34414103.48448 -26785155.79347  20355161.6954                   20355159.7624
 -61338044.35546 -47763916.76343  24125615.8914                   24125616.4264
 -12591055.50848  -9786510.78646  21936523.8914                   21936525.1134
  11315593.44147   8838559.65144  23811627.0164                   23811626.9344
 -57151125.61348 -44502102.28246  21170440.4924                   21170437.5434
 11  8 19  1 42 30.0000000  0  8G12G30G10G05G04G25G29G02
 -38298997.45348 -29813049.59446  20870013.2734                   20870011.6604
 -13441522.56247 -10448603.51645  21703415.2664                   21703415.0514
 -43240487.45747 -33670176.43045  22261514.5394                   22261514.2234
 -34534230.82048 -26878761.49047  20332302.1334                   20332300.4734
 -61361544.01646 -47782228.19543  24121143.1884                   24121144.0784
 -12737216.37148  -9900402.35246  21908710.6254                   21908712.0864
  11128898.10947   8693082.76444  23776100.0004                   23776099.6724
 -57224065.92248 -44558938.89246  21156560.7504                   21156557.1804
 11  8 19  1 43  0.0000000  0  8G12G30G10G05G04G25G29G02
 -38378281.04748 -29874829.01946  20854926.1094                   20854924.4104
 -13570692.59448 -10549255.47245  21678835.1024                   21678834.6414
 -43259860.46547 -33685272.28245  22257828.0004                   22257827.1564
 -34653736.49248 -26971882.76947  20309561.0164                   20309559.2974
 -61385051.47346 -47800545.66343  24116669.8754                   24116670.5594
 -12882795.00048 -10013840.20146  21881008.0164                   21881008.9804
  10942215.18047   8547615.57644  23740575.3594                   23740575.2544
 -57296839.22748 -44615645.37446  21142712.3284                   21142708.6954
 11  8 19  1 43 30.0000000  0  8G12G30G10G05G04G25G29G02
 -38456955.09448 -29936133.47446  20839954.9454                   20839953.3834
 -13699216.56648 -10649403.98846  21654377.8134                   21654377.1914
 -43278816.54347 -33700043.25945  22254221.0164                   22254219.9224
 -34772619.93448 -27064519.20147  20286938.2424                   20286936.7274
 -61408566.59046 -47818869.16543  24112194.9454                   24112196.6524
 -13027789.50848 -10126822.90946  21853416.5944                   21853417.6294
  10755546.22347   8402159.20344  23705053.3134                   23705053.4654
 -57369445.33648 -44672221.57146  21128895.6484                   21128892.4104
 11  8 19  1 44  0.0000000  0  8G12G30G10G05G04G25G29G02
 -38535018.50448 -29996962.10146  20825099.8674                   20825098.5514
 -13827091.91848 -10749047.11945  21630044.3284                   21630043.2894
 -43297356.63347 -33714490.08645  22250692.8284                   22250691.9064
 -34890879.06248 -27156669.15247  20264434.2584                   20264432.4774
 -61432088.07846 -47837197.64643  24107719.8524                   24107720.2934
 -13172196.61748 -10239347.90846  21825936.4384                   21825937.7234
  10568894.21547   8256716.11644  23669534.9924                   23669534.5004
 -57441883.56248 -44728666.94646  21115111.2034                   21115107.8594
 11  8 19  1 44 30.0000000  0  8G12G30G10G05G04G25G29G02
 -38612472.78148 -30057316.10046  20810360.7814                   20810359.5664
 -13954318.21548 -10848184.47145  21605833.5394                   21605833.2154
 -43315483.71947 -33728615.08645  22247243.2114                   22247242.1954
 -35008514.13748 -27248332.82347  20242048.8754                   20242047.2344
 -61455616.39846 -47855531.37343  24103241.4774                   24103242.6094
 -13316015.05148 -10351414.19746  21798568.8594                   21798569.8984
  10382260.22347   8111287.04444  23634019.8284                   23634019.3524
 -57514154.65248 -44784982.08646  21101358.6254                   21101355.5394
 11  8 19  1 45  0.0000000  0  8G12G30G10G05G04G25G29G02
 -38689317.70748 -30117195.26646  20795737.8914                   20795736.1334
 -14080893.75448 -10946814.74645  21581747.0084                   21581746.3714
 -43333199.48847 -33742419.59545  22243872.1954                   22243871.2304
 -35125523.68448 -27339509.08547  20219782.6644                   20219781.0434
 -61479150.86746 -47873869.88343  24098763.7034                   24098764.1994
 -13459242.41848 -10463019.91646  21771313.5394                   21771314.9104
  10195646.62947   7965873.90144  23598508.1884                   23598507.5514
 -57586258.25048 -44841166.71346  21087637.7274                   21087634.3674
 11  8 19  1 45 30.0000000  0  8G12G30G10G05G04G25G29G02
 -38765556.65248 -30176602.23746  20781229.8754                   20781228.4574
 -14206820.48448 -11044939.46845  21557783.9774                   21557783.1334
 -43350509.14547 -33755907.64245  22240578.2814                   22240577.2624
 -35241910.19548 -27430199.85247  20197635.2114                   20197633.7074
 -61502694.67646 -47892215.69843  24094283.2034                   24094283.9804
 -13601879.80948 -10574165.90846  21744170.3524                   21744171.7814
  10009051.89547   7820475.44944  23563000.2734                   23562999.6094
 -57658197.30548 -44897223.12246  21073948.0554                   21073944.7234
 11  8 19  1 46  0.0000000  0  8G12G30G10G05G04G25G29G02
 -38841193.20348 -30235539.81046  20766836.5474                   20766835.0044
 -14332100.02748 -11142559.88446  21533944.3444                   21533943.2584
 -43367417.64847 -33769083.11745  22237360.4614                   22237360.1174
 -35357675.93448 -27520406.90647  20175605.3594                   20175604.0084
 -61526250.04346 -47910570.52943  24089801.3834                   24089801.2814
 -13743928.08248 -10684852.84846  21717139.6884                   21717140.7344
   9822475.19947   7675091.06744  23527495.6254                   23527495.8134
 -57729974.89548 -44953153.72046  21060289.0234                   21060285.8554
 11  8 19  1 46 30.0000000  0  8G12G30G10G05G04G25G29G02
 -38916229.05148 -30294009.31046  20752558.1724                   20752556.5044
 -14456732.59448 -11239676.18746  21510227.3834                   21510226.5704
 -43383928.88747 -33781949.00945  22234218.4304                   22234217.8404
 -35472821.65648 -27610130.81547  20153694.0784                   20153692.6564
 -61549818.15647 -47928935.30244  24085315.9534                   24085316.1484
 -13885386.68448 -10795080.31846  21690220.6724                   21690222.0744
   9635916.62547   7529720.83244  23491995.0004                   23491994.3984
 -57801592.63348 -45008959.75146  21046660.9384                   21046657.4844
 11  8 19  1 47  0.0000000  0  8G12G30G10G05G04G25G29G02
 -37415242.26648 -29124409.20446  21038186.5004                   21038184.5824
 -13005292.91448 -10108684.21045  21786427.1024                   21786426.2774
 -41824624.37547 -32566906.54245  22530944.2974                   22530943.6524
 -34011923.47748 -26471768.56947  20431693.5634                   20431692.2074
 -59997978.28547 -46719709.41044  24380621.7814                   24380621.7624
 -12450829.05148  -9677243.17546  21963207.9924                   21963209.1484
  11024804.37947   8611971.08044  23756291.4614                   23756291.0554
 -56297627.72748 -43837039.05246  21332856.1174                   21332852.8444
 11  8 19  1 47 30.0000000  0  8G12G30G10G05G04G25G29G02
 -37489078.70748 -29181944.10146  21024135.6484                   21024134.2664
 -13128628.48048 -10204789.85946  21762957.1254                   21762956.5634
 -41840347.75847 -32579158.56845  22527952.4454                   22527951.5164
 -34125828.31248 -26560525.56447  20410018.0164                   20410016.9064
 -60021571.46946 -46738093.71543  24376131.7584                   24376132.7274
 -12591102.98448  -9786547.52746  21936514.9224                   21936516.2934
  10838287.58647   8466633.38944  23720798.2034                   23720797.9414
 -56368925.43448 -43892595.70246  21319288.5394                   21319285.0394
 11  8 19  1 48  0.0000000  0  8G12G30G10G05G04G25G29G02
 -37562320.06648 -29239015.29046  21010198.3754                   21010196.7934
 -13251317.98048 -10300392.07045  21739610.5634                   21739610.0704
 -41855684.71547 -32591109.46245  22525033.4384                   22525033.3714
 -34239115.71548 -26648801.43747  20388460.6884                   20388458.8054
 -60045181.16046 -46756490.87543  24371639.1884                   24371640.2114
 -12730785.87148  -9895391.32146  21909934.1414                   21909935.3054
  10651790.39547   8321310.98444  23685309.1954                   23685309.2424
 -56440067.36348 -43948030.98446  21305750.7974                   21305747.3714
 11  8 19  1 48 30.0000000  0  8G12G30G10G05G04G25G29G02
 -37634964.19948 -29295621.10246  20996374.5394                   20996372.8674
 -13373357.22748 -10395487.58045  21716386.4844                   21716386.1954
 -41870634.16447 -32602758.40545  22522189.5084                   22522188.0784
 -34351781.84048 -26736593.20447  20367020.8594                   20367019.0864
 -60068803.58246 -46774898.08343  24367143.1094                   24367144.6374
 -12869872.62548 -10003770.59846  21883466.6484                   21883467.6994
  10465317.89547   8176007.80544  23649824.4064                   23649824.1524
 -56511050.53948 -44003342.53246  21292243.0394                   21292239.8284
 11  8 19  1 49  0.0000000  0  9G12G30G26G10G05G04G25G29G02
 -37707013.75448 -29351763.61446  20982663.8674                   20982662.2424
 -13494747.55148 -10490077.43146  21693286.9454                   21693286.2734
  23342943.47356  18211472.82353  24878793.3444                   24878792.9694
 -41885200.77747 -32614109.02745  22519417.2194                   22519416.2274
 -34463829.02348 -26823902.67947  20345699.1334                   20345697.5634
 -60092440.80946 -46793316.64142  24362646.0084                   24362646.0044
 -13008363.81248 -10111685.79446  21857112.7504                   21857113.3984
  10278869.27047   8030723.22345  23614344.7894                   23614345.0354
 -56581877.03948 -44058531.98546  21278764.8984                   21278761.8874
 11  8 19  1 49 30.0000000  0  9G12G30G26G10G05G04G25G29G02
 -37778476.85248 -29407449.14546  20969065.0864                   20969063.4344
 -13615495.14148 -10584166.45346  21670309.5234                   21670308.4694
  23147258.48846  18058991.13643  24841555.8134                   24841555.9384
 -41899393.98047 -32625168.69645  22516716.0704                   22516715.0164
 -34575263.74248 -26910734.90947  20324493.3594                   20324491.9144
 -60116099.67246 -46811752.17642  24358143.5634                   24358143.7274
 -13146264.78148 -10219141.07446  21830870.8984                   21830871.8674
  10092439.53147   7885453.35644  23578868.0004                   23578867.8404
 -56652554.16048 -44113605.05746  21265315.5474                   21265312.5234
 11  8 19  1 50  0.0000000  0  9G12G30G26G10G05G04G25G29G02
 -37849360.60948 -29462683.23446  20955576.8674                   20955574.6764
 -13735605.52048 -10677758.95046  21647453.3594                   21647452.3554
  22951472.61746  17906430.81043  24804297.9534                   24804298.9024
 -41913222.64147 -32635944.30145  22514085.0554                   22514084.4144
 -34686092.27048 -26997094.78247  20303403.4774                   20303401.9804
 -60139786.32045 -46830209.30942  24353635.3444                   24353636.0744
 -13283580.27348 -10326140.13646  21804740.8204                   21804742.0784
   9906023.89147   7740194.46745  23543394.1484                   23543394.6914
 -56723088.31648 -44168566.73146  21251893.6254                   21251890.1214
 11  8 19  1 50 30.0000000  0  9G12G30G26G10G05G04G25G29G02
 -37919665.73448 -29517466.45246  20942197.7114                   20942195.9844
 -13855078.05548 -10770854.43046  21624718.1174                   21624717.8014
  22755589.12546  17753794.48943  24767022.9224                   24767023.1294
 -41926689.31647 -32646437.82245  22511522.2734                   22511520.7894
 -34796314.29348 -27082982.06347  20282428.7424                   20282427.4344
 -60163500.85246 -46848688.21942  24349123.3444                   24349123.8874
 -13420308.87148 -10432681.88946  21778721.8204                   21778723.5004
   9719623.70747   7594947.62044  23507923.3984                   23507923.3284
 -56793479.87548 -44223417.29146  21238498.0704                   21238495.1484
 11  8 19  1 51  0.0000000  0  9G12G30G26G10G05G04G25G29G02
 -37989388.59448 -29571795.94346  20928929.5234                   20928928.2034
 -13973907.33648 -10863448.64945  21602105.9454                   21602105.4884
  22559615.91446  17601088.15843  24729730.1414                   24729729.5744
 -41939791.46947 -32656647.32944  22509028.6254                   22509028.5434
 -34905925.00048 -27168392.98647  20261570.7274                   20261568.7704
 -60187238.57446 -46867185.17343  24344606.6334                   24344607.1054
 -13556444.27348 -10538761.40246  21752816.2894                   21752818.0394
   9533245.95747   7449718.24444  23472456.9924                   23472456.8524
 -56863724.45348 -44278153.29946  21225131.1804                   21225127.8834
 11  8 19  1 51 30.0000000  0  9G12G30G26G10G05G04G25G29G02
 -38058527.09848 -29625670.10746  20915773.1564                   20915771.6484
 -14092090.00448 -10955539.01446  21579616.8594                   21579616.0744
  22363559.03946  17448316.64843  24692422.3054                   24692421.5204
 -41952528.77347 -32666572.53144  22506605.1174                   22506604.5274
 -35014921.50048 -27253325.31147  20240829.3594                   20240827.5044
 -60210996.37546 -46885697.74543  24340085.5784                   24340086.7114
 -13691982.28948 -10644375.41046  21727024.2344                   21727025.8484
   9346894.78147   7304509.59644  23436995.8834                   23436995.2624
 -56933819.10248 -44332772.49146  21211792.6414                   21211789.5434
 11  8 19  1 52  0.0000000  0  9G12G30G26G10G05G04G25G29G02
 -38127084.21948 -29679091.24546  20902727.3984                   20902725.7344
 -14209626.96148 -11047126.21446  21557249.6334                   21557248.8634
  22167420.33646  17295481.53443  24655098.4304                   24655098.0784
 -41964905.24647 -32676216.56945  22504249.9844                   22504249.5634
 -35123305.23848 -27337780.16047  20220204.3594                   20220202.8834
 -60234775.83247 -46904227.22743  24335561.0394                   24335561.2034
 -13826923.00848 -10749523.99946  21701345.8284                   21701347.3164
   9160570.36747   7159321.77044  23401538.8524                   23401539.1804
 -57003765.90648 -44387276.46446  21198482.3594                   21198478.8324
 11  8 19  1 52 30.0000000  0  9G12G30G26G10G05G04G25G29G02
 -38195062.36348 -29732061.22746  20889791.5394                   20889789.6024
 -14326519.40648 -11138211.20146  21535005.9774                   21535004.9734
  21971201.10246  17142583.54443  24617759.1484                   24617759.0904
 -41976925.05547 -32685582.71945  22501962.5004                   22501962.1844
 -35231077.92248 -27421758.85947  20199695.9144                   20199694.5784
 -60258578.40647 -46922774.66044  24331031.0634                   24331032.1994
 -13961266.75048 -10854207.40846  21675781.2194                   21675782.1884
   8974272.56347   7014154.70344  23366087.6174                   23366087.6414
 -57073566.71948 -44441666.67546  21185199.3674                   21185196.3984
 11  8 19  1 53  0.0000000  0  9G12G30G26G10G05G04G25G29G02
 -38262461.77748 -29784580.26046  20876965.6724                   20876964.0904
 -14442765.61748 -11228792.63846  21512884.6954                   21512884.5204
  21774905.83646  16989626.28543  24580404.5004                   24580404.8984
 -41988589.64847 -32694672.05644  22499743.4064                   22499742.9574
 -35338238.49648 -27505260.59747  20179304.1724                   20179302.7274
 -60282402.96547 -46941339.27043  24326497.6804                   24326498.3634
 -14095011.08248 -10958423.73946  21650330.5234                   21650331.6994
   8788004.32847   6869010.66644  23330641.9774                   23330642.0124
 -57143220.71548 -44495942.49446  21171944.7114                   21171941.5784
 11  8 19  1 53 30.0000000  0  9G12G30G26G10G05G04G25G29G02
 -38329284.60948 -29836650.00546  20864249.7814                   20864248.0044
 -14558366.42248 -11318871.13746  21490886.9384                   21490886.3754
  21578536.97346  16836611.64243  24543036.4144                   24543036.6724
 -41999903.05946 -32703487.71745  22497590.6094                   22497590.0704
 -35444788.34448 -27588286.42847  20159028.4534                   20159026.9144
 -60306250.94147 -46959922.11144  24321959.6884                   24321960.1174
 -14228155.85248 -11062172.89746  21624993.9224                   21624995.2934
   8601765.81346   6723889.75444  23295201.8594                   23295201.6954
 -57212729.24648 -44550104.96346  21158717.7274                   21158714.5554
 11  8 19  1 54  0.0000000  0  9G12G30G26G10G05G04G25G29G02
 -38395538.06648 -29888276.08346  20851642.1804                   20851640.2814
 -14673327.44548 -11408451.13346  21469010.4774                   21469009.8834
  21382091.55946  16683537.48143  24505653.6724                   24505654.3404
 -42010873.59446 -32712036.17244  22495502.7114                   22495501.8404
 -35550733.32848 -27670840.95547  20138867.7974                   20138866.1914
 -60330127.93747 -46978527.53644  24317415.8134                   24317416.5164
 -14360705.77348 -11165458.52246  21599770.4614                   21599771.8014
   8415552.84447   6578788.79444  23259767.2194                   23259766.4694
 -57282098.64148 -44604159.01246  21145517.1564                   21145514.0044
 11  8 19  1 54 30.0010000  0  9G12G30G26G10G05G04G25G29G02
 -36885800.90648 -28711857.52346  21138935.6254                   21138933.6724
 -13212226.00848 -10269930.48646  21747048.8674   21747048.0204   22760994.75846
  17758007.73843                  24768050.5704                   24768050.6054
 -40446081.93746 -31492718.02044  22793272.5784                   22793271.8914
 -34080651.45748 -26525322.58847  20418614.9224                   20418613.3754
 -58778611.82047 -45769553.92244  24612659.8134                   24612660.0434
 -12917237.53547 -10040678.04546  21874453.3914                   21874454.4264
   9804789.14846   7661310.61745  23524129.3204                   23524129.6484
 -55775906.81248 -43430503.01646  21432136.1644                   21432132.6564
 11  8 19  1 55  0.0000000  0  9G12G30G26G10G05G04G25G29G02
 -36950912.07048 -28762593.51146  21126545.4384                   21126543.5274
 -13325897.56648 -10358505.70746  21725417.5234   21725416.9964   22564417.21946
  17604830.47143                  24730643.4384                   24730642.8244
 -40456369.48047 -31500734.30844  22791315.2814                   22791314.3524
 -34185378.61348 -26606928.14547  20398685.9384                   20398684.4844
 -58802541.21146 -45788200.21244  24608106.1174                   24608106.8204
 -13048584.94148 -10143026.64746  21849458.5704                   21849459.7854
   9618643.09047   7516261.77744  23488707.5084                   23488706.9884
 -55844991.43747 -43484335.18346  21418989.6484                   21418986.1644
 11  8 19  1 55 30.0000000  0  9G12G30G26G10G05G04G25G29G02
 -37015457.40248 -28812888.57346  21114262.9304                   21114261.3054
 -13438929.35948 -10446582.39346  21703908.4304   21703907.5234   22367768.99646
  17451598.18843                  24693222.3674                   24693222.1374
 -40466319.81647 -31508487.81944  22789421.5784                   22789420.5314
 -34289502.36348 -26688063.51447  20378872.1414                   20378870.1954
 -58826497.77746 -45806867.68744  24603546.9144                   24603547.8714
 -13179335.66848 -10244910.30046  21824577.6644                   21824578.8914
   9432523.84847   7371233.78945  23453290.0554                   23453289.5514
 -55913937.53547 -43538059.41446  21405869.2504                   21405866.2734
 11  8 19  1 56  0.0000000  0  9G12G30G26G10G05G04G25G29G02
 -37079436.14848 -28862742.15146  21102088.2734                   21102086.3834
 -13551318.09448 -10534158.01246  21682521.6414   21682520.3554   22171059.07846
  17298317.80143                  24655788.6644                   24655789.8094
 -40475935.55547 -31515980.62644  22787591.8674                   22787590.7194
 -34393020.12948 -26768726.69347  20359173.0164                   20359171.1804
 -58850481.21146 -45825556.05643  24598983.6024                   24598984.9024
 -13309484.80548 -10346325.19646  21799811.2504                   21799812.1994
   9246438.85547   7226232.51645  23417879.4924                   23417879.5204
 -55982743.24247 -43591674.23946  21392776.3444                   21392773.1684
 11  8 19  1 56 30.0000000  0  9G12G30G26G10G05G04G25G29G02
 -37142847.94948 -28912153.95446  21090021.2734                   21090019.7194
 -13663061.64148 -10621230.90746  21661257.6254   21661257.0044   21974292.77046
  17144993.46743                  24618346.0634                   24618345.5784
 -40485217.55547 -31523213.38344  22785825.5704                   22785823.5594
 -34495930.09848 -26848916.26047  20339589.9614                   20339588.2624
 -58874489.78146 -45844264.11443  24594413.9614                   24594415.2854
 -13439029.53548 -10447269.11746  21775159.4534                   21775160.9574
   9060391.41847   7081260.53045  23382475.6724                   23382475.3164
 -56051407.42647 -43645178.78446  21379709.9534                   21379706.6214
 11  8 19  1 57  0.0000000  0  9G12G30G26G10G05G04G25G29G02
 -37205696.23848 -28961126.65746  21078061.5394                   21078059.8484
 -13774162.05548 -10707802.63946  21640115.8054   21640115.0944   21777471.03546
  16991625.97343                  24580891.2734                   24580892.4414
 -40494171.02347 -31530190.09145  22784121.8054                   22784121.3634
 -34598234.86348 -26928634.24347  20320122.0634                   20320120.4264
 -58898525.69946 -45862993.35942  24589840.5234                   24589841.3984
 -13567970.94148 -10547742.92646  21750622.9534                   21750623.8364
   8874381.07447   6936317.40145  23347079.2974                   23347078.7504
 -56119932.27048 -43698574.74746  21366670.3914                   21366666.2974
 11  8 19  1 57 30.0000000  0  9G12G30G26G10G05G04G25G29G02
 -37267982.82448 -29009661.67246  21066209.0394                   21066207.0704
 -13884619.48048 -10793873.35646  21619096.2504   21619095.9224   21580596.73046
  16838217.49243                  24543428.5864                   24543427.6174
 -40502798.49247 -31536912.80044  22782479.6414                   22782479.4614
 -34699935.21948 -27007881.26047  20300769.0554                   20300767.5314
 -58922588.98846 -45881743.99242  24585260.2504                   24585260.8754
 -13696308.30948 -10647746.05746  21726200.6884                   21726202.1684
   8688408.88747   6791404.03345  23311689.5474                   23311689.1174
 -56188318.63348 -43751862.81346  21353656.6024                   21353653.0634
 11  8 19  1 58  0.0000000  0  9G12G30G26G10G05G04G25G29G02
 -37329705.61348 -29057757.35446  21054463.6024                   21054461.8134
 -13994429.99648 -10879439.99746  21598200.1174   21598199.5044   21383677.26246
  16684773.81243                  24505955.8754                   24505955.6134
 -40511098.45747 -31543380.34344  22780900.6884                   22780899.9804
 -34801027.55548 -27086654.49247  20281531.8834                   20281530.6414
 -58946675.73045 -45900512.90642  24580676.4224                   24580677.5204
 -13824036.73847 -10747274.69146  21701894.8674                   21701896.4774
   8502480.55547   6646524.85645  23276308.6954                   23276308.3714
 -56256562.83647 -43805040.09846  21340670.0004                   21340666.6724
 11  8 19  1 58 30.0000000  0  9G12G30G26G10G05G04G25G29G02
 -37390866.75448 -29105415.39546  21042824.7584                   21042823.3794
 -14103594.37548 -10964503.15546  21577427.1644   21577426.0744   21186714.77746
  16531296.65343                  24468474.5314                   24468474.4924
 -40519074.93746 -31549595.81244  22779382.8984                   22779381.5474
 -34901513.27748 -27164955.05447  20262409.9614                   20262408.3164
 -58970787.008 5                  24576088.633
 -13951156.28147 -10846328.88046  21677704.9774                   21677706.5394
   8316596.97747   6501680.53545  23240936.4224                   23240936.0394
 -56324665.78947 -43858107.34146  21327710.5634                   21327707.0204
 11  8 19  1 59  0.0000000  0  9G12G30G26G10G05G04G25G29G02
 -37451466.46948 -29152635.96946  21031293.0004                   21031291.5634
 -14212111.71948 -11049062.13245  21556776.6724   21556776.2854   20989713.48046
  16377789.26243                  24430986.1954                   24430986.5314
 -40526729.70347 -31555560.57544  22777926.6804                   22777925.1374
 -35001391.81248 -27242782.47747  20243404.0004                   20243401.9494
 -58994921.906 6                  24571496.734
 -14077665.07048 -10944907.13746  21653631.1484                   21653632.5594
   8130760.63347   6356873.02644  23205572.4844                   23205571.8594
 -56392627.09847 -43911064.20646  21314777.9224                   21314774.7464
 11  8 19  1 59 30.0000000  0  9G12G30G26G10G05G04G25G29G02
 -37511507.27748 -29199421.01846  21019867.8444                   21019866.4614
 -14319982.66848 -11133117.43046  21536249.6644   21536248.9654   20792676.05546
  16224253.69643                  24393491.6024                   24393491.4414
 -40534065.76646 -31561276.97144  22776530.0634                   22776529.0824
 -35100664.48448 -27320137.79647  20224512.6334                   20224511.0314
 -59019081.082 6                  24566899.391
 -14203562.84048 -11043009.29046  21629673.5394                   21629674.8204
   7944972.03947   6212102.70644  23170218.1174                   23170217.3834
 -56460447.86747 -43963911.56846  21301872.0474                   21301868.6684
 11  8 19  2  0  0.0000000  0  9G12G30G26G10G05G04G25G29G02
 -37570990.32848 -29245771.46146  21008548.6484                   21008546.8554
 -14427206.96548 -11216668.85346  21515845.5004   21515844.7664   20595606.09846
  16070692.68543                  24355990.1724                   24355989.7424
 -40541085.70746 -31566747.08244  22775193.9534                   22775193.3134
 -35199331.25448 -27397020.98347  20205737.0704                   20205735.6954
 -59043264.168 6                  24562297.859
 -14328848.48048 -11140634.46646  21605832.6254                   21605833.9844
   7759233.73046   6067371.61944  23134872.3754                   23134872.1844
 -56528127.84847 -44016649.22846  21288993.0634                   21288989.7934
 11  8 19  2  0 30.0000000  0  9G12G30G26G10G05G04G25G29G02
 -37629920.60548 -29291691.16046  20997334.4224                   20997332.6804
 -14533788.13748 -11299719.11846  21495563.8134   21495563.4454   20398503.40246
  15917106.32043                  24318482.6724                   24318482.6644
 -40547795.93746 -31571975.84844  22773917.0704                   22773916.4614
 -35297396.01248 -27473435.06747  20187075.9454                   20187074.5234
 -59067474.543 6                  24557690.375
 -14453524.53148 -11237784.63246  21582107.3524                   21582108.5594
   7573543.74647   5922678.15644  23099537.6254                   23099536.8134
 -56595670.68748 -44069280.01946  21276140.0864                   21276136.8444
 11  8 19  2  1  0.0000000  0  9G12G30G26G10G05G04G25G29G02
 -37688298.13748 -29337180.15346  20986226.0234                   20986224.1024
 -14639724.52348 -11382266.95746  21475404.8054   21475403.8914   20201372.88746
  15763498.19643                  24280969.8364                   24280969.8484
 -40554197.18446 -31576963.83944  22772699.2504                   22772697.7934
 -35394857.71948 -27549379.24547  20168529.8984                   20168528.0434
 -59091710.43046 -46013526.75753  24553078.6254                   24553078.8054
 -14577588.59848 -11334457.92446  21558498.9064                   21558500.0744
   7387905.25446   5778024.88145  23064211.7424                   23064211.4344
 -56663075.28948 -44121803.08946  21263313.6254                   21263309.7974
 11  8 19  2  1 30.0000000  0  9G12G30G26G10G05G04G25G29G02
 -37746127.35948 -29382241.87646  20975221.0084                   20975219.4654
 -14745019.27048 -11464314.82646  21455368.2344   21455366.9344   20004215.07446
  15609868.84843                  24243452.0554                   24243451.2384
 -40560295.09046 -31581715.49144  22771538.6024                   22771537.5164
 -35491720.06648 -27624856.39147  20150097.5704                   20150095.7304
 -59115974.71546 -46032434.02843  24548461.3364                   24548461.4304
 -14701042.73848 -11430655.95746  21535006.2274                   21535007.8954
   7202317.28546   5633410.91544  23028894.9694                   23028895.3594
 -56730344.64848 -44174220.76846  21250512.5864                   21250508.8284
 11  8 19  2  2  0.0000000  0  8G12G30G26G10G05G25G29G02
 -37803408.10248 -29426876.22846  20964320.7974                   20964319.2664
 -14849670.75448 -11545861.45746  21435453.4924   21435452.4964   19807035.02746
  15456222.17943                  24205929.6724                   24205929.8594
 -40566090.52746 -31586231.40744  22770436.2424                   22770435.1954
 -35587981.89148 -27699865.59847  20131779.2974                   20131777.4024
 -14823884.56648 -11526376.84946  21511630.0084                   21511631.1764
   7016783.04746   5488838.85145  22993589.5704                   22993589.4414
 -56797477.36748 -44226531.97946  21237737.8754                   21237734.0274
 11  8 19  2  2 30.0000000  0  8G12G30G26G10G05G25G29G02
 -36284718.37148 -28243481.63446  21253318.0944                   21253316.4654
 -13378253.67248 -10399302.69046  21715455.0394   21715454.0044   21185264.44546
  16530167.32743                  24468197.9224                   24468198.0044
 -38996164.18046 -30362912.19045  23069183.5634                   23069182.3134
 -34108218.65248 -26546803.31347  20413368.9304                   20413367.1414
 -13370687.23448 -10394015.29946  21788164.1644                   21788165.6294
   8406732.27346   6571916.22145  23258087.6564                   23258087.6884
 -55289049.32447 -43051133.50646  21524782.0234                   21524778.6994
 11  8 19  2  3  0.0000000  0  8G12G30G26G10G05G25G29G02
 -36340894.99648 -28287255.62046  21242627.7344                   21242626.2234
 -13481607.08648 -10479837.82346  21695787.3914   21695786.7814   20988061.79746
  16376503.03443                  24430671.7504                   24430670.7934
 -39001350.71146 -30366953.65644  23068196.3914                   23068196.3634
 -34203269.08248 -26620868.57047  20395281.5784                   20395280.0394
 -13492289.96948 -10488770.67246  21765024.2424                   21765025.1214
   8221322.80947   6427441.36645  23222805.4614                   23222805.2974
 -55355897.16848 -43103222.72446  21512061.1884                   21512057.6214
 11  8 19  2  3 30.0000000  0  8G12G30G26G10G05G25G29G02
 -36396514.02748 -28330595.12846  21232043.7194                   21232042.0084
 -13584303.19148 -10559860.74946  21676244.8674   21676243.9774   20790861.51246
  16222840.52743                  24393145.0864                   24393144.4774
 -39006227.87146 -30370754.03644  23067268.0554                   23067267.5434
 -34297706.23048 -26694455.94847  20377310.4614                   20377308.9844
 -13613263.57048 -10583035.80246  21742003.6564                   21742005.1254
   8035986.96547   6283023.86745  23187537.3444                   23187537.8794
 -55422594.34048 -43155194.54646  21499368.9924                   21499365.6804
 11  8 19  2  4  0.0000000  0  8G12G30G26G10G05G25G29G02
 -36451583.21948 -28373506.17446  21221564.5164                   21221562.9414
 -13686348.75448 -10639376.76746  21656825.9144   21656825.2034   20593660.32446
  16069177.36343                  24355618.9304                   24355618.7194
 -39010804.93046 -30374320.62744  23066396.1334                   23066396.3324
 -34391536.96148 -26767570.78147  20359455.2664                   20359453.5784
 -13733613.86348 -10676815.25446  21719102.1484                   21719102.7934
   7850720.02047   6138660.08645  23152282.8284                   23152282.1524
 -55489147.60548 -43207054.23246  21486704.3594                   21486701.2114
 11  8 19  2  4 30.0000000  0  8G12G30G26G10G05G25G29G02
 -36506108.34448 -28415993.29146  21211188.9304                   21211187.1294
 -13787748.62148 -10718389.63646  21637530.5784   21637529.6374   20396457.30546
  15915512.82843                  24318092.7974                   24318092.8554
 -39015089.05546 -30377658.93144  23065581.8364                   23065581.4224
 -34484766.72748 -26840217.32847  20341714.1724                   20341712.6564
 -13853344.77048 -10770112.04746  21696317.8594                   21696319.2304
   7665519.01247   5994347.66145  23117039.7274                   23117039.4734
 -55555561.77048 -43258805.53246  21474065.9534                   21474062.8794
 11  8 19  2  5  0.0000000  0  8G12G30G26G10G05G25G29G02
 -36560093.44948 -28458059.61846  21200915.5864                   21200914.2424
 -13888504.61747 -10796900.79346  21618357.2504   21618356.8444   20199254.28946
  15761848.18643                  24280566.2974                   24280565.9734
 -39019084.53546 -30380772.30844  23064821.4774                   23064821.1334
 -34577398.05948 -26912397.56447  20324087.1094                   20324085.2424
 -13972457.17248 -10862926.90546  21673651.5474                   21673652.8674
   7480384.08647   5850086.74345  23081809.3444                   23081808.7114
 -55621838.30948 -43310449.57546  21461454.3204                   21461450.7704
 11  8 19  2  5 30.0000000  0  8G12G30G26G10G05G25G29G02
 -36613541.71148 -28499707.60546  21190745.0474                   21190743.1214
 -13988619.09848 -10874912.07446  21599305.9064   21599305.4844   20002052.59046
  15608184.58343                  24243039.9304                   24243039.6564
 -39022796.10546 -30383664.47644  23064115.3674                   23064115.0634
 -34669433.22748 -26984113.25547  20306573.3284                   20306571.3594
 -14090952.48048 -10955260.91346  21651102.4454                   21651103.9694
   7295315.31347   5705877.35045  23046591.9454                   23046591.5204
 -55687979.47348 -43361988.13546  21448867.7664                   21448864.7584
 11  8 19  2  6  0.0000000  0  8G12G30G26G10G05G25G29G02
 -36666457.83648 -28540940.95046  21180675.1804                   21180673.6844
 -14088094.69548 -10952425.51446  21580376.5944   21580375.9064   19804853.27746
  15454522.83543                  24205513.4224                   24205513.5634
 -39026228.80147 -30386339.32343  23063461.9534                   23063460.7814
 -34760875.52348 -27055366.96047  20289172.2344                   20289170.5234
 -14208832.46948 -11047115.43646  21628670.6174                   21628671.9304
   7110312.18847   5561719.11445  23011387.2274                   23011386.9224
 -55753988.03148 -43413423.36446  21436306.9224                   21436303.4734
 11  8 19  2  6 30.0000000  0  8G12G30G26G10G05G25G29G02
 -36718842.46948 -28581760.15046  21170706.8834                   21170704.6804
 -14186931.19148 -11029440.96146  21561568.5704   21561567.8324   19607660.71546
  15300866.38843                  24167990.4534                   24167989.1524
 -39029384.60947 -30388798.31244  23062862.1174                   23062859.4024
 -34851725.19948 -27126158.89047  20271884.3284                   20271882.5864
 -14326095.90248 -11138489.53446  21606356.4064                   21606357.3094
   6925376.85246   5417613.68145  22976194.8834                   22976194.9414
 -55819863.23048 -43464754.66646  21423771.1804                   21423767.6764
 11  8 19  2  7  0.0000000  0  8G12G30G26G10G05G25G29G02
 -36770696.43748 -28622165.85046  21160839.2974                   21160838.0824
 -14285127.77348 -11105957.76046  21542882.0474   21542881.4064   19410479.31346
  15147218.59743                  24130467.3914                   24130466.6884
 -39032264.69147 -30391042.56544  23062313.6644                   23062312.4774
 -34941981.69948 -27196488.60847  20254709.0784                   20254707.3244
 -14442741.08648 -11229381.86746  21584159.1884                   21584160.3874
   6740512.65647   5273563.69645  22941016.3364                   22941016.1564
 -55885604.05148 -43515981.27046  21411260.9614                   21411258.1174
 11  8 19  2  7 30.0000000  0  8G12G30G26G10G05G25G29G02
 -36822021.97348 -28662159.77746  21151072.5084                   21151070.9654
 -14382685.53148 -11181976.78346  21524317.6954   21524317.4024   19213311.89546
  14993581.71943                  24092947.9844                   24092946.5394
 -39034872.39547 -30393074.57344  23061817.5474                   23061816.4184
 -35031646.45748 -27266357.23047  20237646.3134                   20237644.6804
 -14558768.14148 -11319792.53646  21562079.9924                   21562081.2974
   6555720.49247   5129569.83045  22905851.4224                   22905851.3284
 -55951211.40648 -43567103.88546  21398776.7344                   21398773.3754
 11  8 19  2  8  0.0000000  0  8G12G30G26G10G05G25G29G02
 -36872821.55148 -28701743.87546  21141405.5164                   21141404.3984
 -14479605.42647 -11257498.78846  21505874.5084   21505873.8404   19016161.45346
  14839958.07743                  24055431.3204                   24055430.0164
 -39037210.77047 -30394896.73544  23061372.0704                   23061370.6094
 -35120721.02048 -27335765.95647  20220696.1024                   20220694.1684
 -14674177.20348 -11409721.66846  21540118.6024                   21540119.7704
   6371001.76247   4985633.19445  22870700.5474                   22870700.0004
 -56016685.94947 -43618122.99946  21386316.9454                   21386314.0004
 11  8 19  2  8 30.0000000  0  8G12G30G26G10G05G25G29G02
 -36923099.09448 -28740921.18446  21131838.1644                   21131836.4384
 -14575889.98447 -11332525.70946  21487552.0164   21487551.6374   18819029.35246
  14686348.68343                  24017917.3754                   24017917.2194
 -39039284.38747 -30396512.55444  23060978.5234                   23060977.1414
 -35209207.91448 -27404716.76247  20203857.4774                   20203855.8524
 -14788969.73448 -11499170.38146  21518274.0084                   21518275.2624
   6186356.35547   4841753.67145  22835564.0164                   22835562.8524
 -56082029.54747 -43669040.05746  21373882.5164                   21373879.5274
 11  8 19  2  9  0.0000000  0  8G12G30G26G10G05G25G29G02
 -36972860.83648 -28779696.57046  21122368.6644                   21122367.2814
 -14671544.35248 -11407061.58046  21469349.5394   21469349.0664   18621914.64146
  14532752.85643                  23980408.3524                   23980407.6054
 -39041100.53147 -30397927.72244  23060631.6564                   23060631.1804
 -35297112.93448 -27473214.16447  20187129.6724                   20187128.2234
 -14903150.00848 -11588142.00546  21496546.3524                   21496547.3714
   6001781.41047   4697929.04645  22800440.6254                   22800439.6604
 -56147247.14548 -43719858.93846  21361472.0394                   21361468.8204
 11  8 19  2  9 30.0000000  0  8G12G30G26G10G05G25G29G02
 -37022107.37948 -28818070.51646  21112997.6094                   21112996.3404
 -14766567.44947 -11481105.54446  21451267.2194   21451266.6374   18424822.22346
  14379174.40443                  23942902.4384                   23942902.3364
 -39042660.16447 -30399143.06344  23060334.7584                   23060334.6804
 -35384435.57848 -27541257.76747  20170512.7424                   20170510.5664
 -15016715.96548 -11676634.93746  21474935.5314                   21474936.5904
   5817280.57847   4554162.18045  22765330.8444                   22765330.8364
 -56212337.19948 -43770578.44646  21349086.0864                   21349082.6214
 11  8 19  2 10  0.0000000  0  8G12G30G26G10G05G25G29G02
 -35495420.88748 -27628444.68046  21403516.0864                   21403514.8914
 -13285538.41847 -10327056.94446  21733097.9144   21733097.0864   19803180.83246
  15453220.11243                  24205195.3594                   24205195.0314
 -37468547.71547 -29172562.00444  23359878.7424                   23359879.3134
 -33895755.40648 -26381247.22547  20453798.9924                   20453797.3014
 -13554245.18048 -10537047.29446  21753234.4534                   21753235.5704
   7208279.97347   5638057.81045  23030029.9454                   23030029.2194
 -54701879.45348 -42593598.38246  21636516.7034                   21636513.3554
 11  8 19  2 10 30.0000000  0  8G12G30G26G10G05G25G29G02
 -35543645.07848 -27666021.98946  21394339.3204                   21394338.1954
 -13379303.28147 -10400120.46346  21715254.7504   21715254.2624   19606141.32446
  15299682.97743                  24167699.3594                   24167700.2274
 -37469604.76647 -29173385.71044  23359677.7894                   23359678.2384
 -33981918.01248 -26448386.89947  20437402.8674                   20437401.1174
 -13666583.94548 -10624583.97646  21731857.1024                   21731857.9454
   7023930.17247   5494408.60845  22994948.9534                   22994948.7074
 -54766717.43047 -42644121.48546  21624178.3204                   21624175.0554
 11  8 19  2 11  0.0000000  0  8G12G30G26G10G05G25G29G02
 -35591360.00848 -27703202.46046  21385259.7344                   21385258.1334
 -13472438.87548 -10472693.65646  21697531.9534   21697531.2074   19409134.72746
  15146171.38043                  24130211.0084                   24130209.6334
 -37470413.50847 -29174015.91144  23359524.5394                   23359523.1604
 -34067500.93748 -26515074.88947  20421116.9064                   20421115.3444
 -13778307.71148 -10711641.43346  21710596.7894                   21710598.0944
   6839659.92647   5350821.38245  22959883.4454                   22959882.5984
 -54831428.42648 -42694545.63246  21611864.1644                   21611860.9964
 11  8 19  2 11 30.0000000  0  8G12G30G26G10G05G25G29G02
 -35638566.12548 -27739986.45646  21376276.8674                   21376275.4774
 -13564944.69148 -10544776.10646  21679928.5944   21679928.0944   19212165.51646
  14992688.98143                  24092728.9304                   24092728.4804
 -37470975.18747 -29174453.62444  23359417.2734                   23359416.3054
 -34152504.13748 -26581311.14147  20404941.3914                   20404939.9494
 -13889414.84848 -10798218.40646  21689453.8204                   21689455.0434
   6655472.46147   5207298.68245  22924834.0554                   22924833.6414
 -54896011.61748 -42744870.18646  21599574.2034                   21599571.1914
 11  8 19  2 12  0.0000000  0  8G12G30G26G10G05G25G29G02
 -35685262.83648 -27776373.50846  21367390.5944                   21367389.0864
 -13656818.31248 -10616365.92246  21662445.8444   21662444.6134   19015240.28546
  14839240.81043                  24055255.2664                   24055254.4024
 -37471289.44547 -29174698.44643  23359357.0554                   23359356.7344
 -34236925.60248 -26647094.09447  20388876.4844                   20388874.7504
 -13999902.09448 -10884312.35146  21668428.6644                   21668429.8524
   6471372.38747   5063844.12145  22889800.6254                   22889800.4414
 -54960463.50448 -42795092.43446  21587309.8524                   21587306.3914
 11  8 19  2 12 30.0000000  0  8G12G30G26G10G05G25G29G02
 -35731455.42248 -27812367.74846  21358600.3674                   21358599.1884
 -13748064.01248 -10687466.46546  21645082.1414   21645081.9224   18818359.35246
  14685827.15243                  24017789.4454                   24017788.9844
 -37471362.12946 -29174755.12343  23359343.0864                   23359342.4384
 -34320769.72748 -26712427.16547  20372921.4774                   20372919.6804
 -14109772.75448 -10969925.82346  21647521.1644                   21647522.3444
   6287358.09847   4920456.37945  22854784.3134                   22854783.3834
 -55024787.69148 -42845215.17646  21575069.0784                   21575065.3594
 11  8 19  2 13  0.0000000  0  8G12G30G26G10G05G25G29G02
 -35777147.71948 -27847972.14546  21349905.3594                   21349904.3404
 -13838684.39548 -10758079.73346  21627837.5864   21627836.7344   18621524.27346
  14532449.25843                  23980333.2194                   23980333.0594
 -37471197.50846 -29174626.82044  23359374.2894                   23359373.9574
 -34404039.32448 -26777312.55747  20357075.7894                   20357074.1054
 -14219028.34848 -11055060.03646  21626730.2974                   21626731.8914
   6103429.91047   4777135.77145  22819783.1254                   22819783.2814
 -55088986.25848 -42895240.02646  21562852.4844                   21562849.1174
 11  8 19  2 13 30.0000000  0  8G12G30G26G10G05G25G29G02
 -35822342.94148 -27883189.21446  21341305.2114                   21341303.2854
 -13928681.44948 -10828207.29646  21610711.7344   21610710.8404   18424737.30146
  14379108.83343                  23942885.9844                   23942885.9264
 -37470799.78147 -29174316.95844  23359450.6954                   23359450.6094
 -34486736.89848 -26841752.21547  20341339.0084                   20341337.5004
 -14327670.11348 -11139715.93046  21606056.4694                   21606057.7424
   5919588.35947   4633882.63645  22784799.5394                   22784799.1684
 -55153060.57848 -42945168.06946  21550659.6884                   21550655.8954
 11  8 19  2 14  0.0000000  0  8G12G30G26G10G05G25G29G02
 -35867046.51648 -27918023.17946  21332798.1644                   21332796.7074
 -14018058.93048 -10897852.08446  21593704.1334   21593703.2664   18227999.05546
  14225806.33744                  23905448.0554                   23905447.7584
 -37470174.46946 -29173829.71244  23359569.5864                   23359569.1914
 -34568866.44548 -26905749.25847  20325710.3984                   20325708.6024
 -14435700.75048 -11223895.62146  21585498.9774                   21585500.5124
   5735832.87147   4490696.60445  22749831.3594                   22749831.9454
 -55217013.87948 -42995001.79746  21538489.8754                   21538486.2424
 11  8 19  2 14 30.0000000  0  8G12G30G26G10G05G25G29G02
 -35911259.13348 -27952474.57746  21324385.1094                   21324382.6454
 -14106816.65648 -10967013.91446  21576813.6954   21576813.2854   18031314.34446
  14072545.62543                  23868020.0394                   23868020.1764
 -37469323.06246 -29173166.29643  23359731.1414                   23359730.6484
 -34650428.07048 -26969303.76447  20310189.7584                   20310188.0664
 -14543119.16448 -11307598.26046  21565057.8524                   21565058.6684
   5552166.23447   4347579.81445  22714881.2194                   22714881.5664
 -55280844.98848 -43044740.32146  21526342.9224                   21526339.4844
 11  8 19  2 15  0.0000000  0  8G12G30G26G10G05G25G29G02
 -35954984.96948 -27986546.65746  21316064.1414                   21316062.9924
 -14194957.41448 -11035695.02646  21560041.0554   21560040.5984   17834684.39146
  13919327.56044                  23830602.2734                   23830602.2304
 -37468250.02747 -29172330.16544  23359936.3444                   23359934.6644
 -34731425.10548 -27032418.33347  20294776.2894                   20294774.8134
 -14649927.32448 -11390825.37546  21544732.9224                   21544734.1454
   5368587.96147   4204531.88245  22679947.8524                   22679947.0824
 -55344555.77348 -43094385.08746  21514219.1804                   21514215.8714
 11  8 19  2 15 30.0000000  0  8G12G30G26G10G05G25G29G02
 -35998225.33648 -28020240.46446  21307836.1564                   21307834.1914
 -14282481.39848 -11103895.51545  21543385.8914   21543385.2154   17638113.96946
  13766155.84044                  23793196.4224                   23793196.0904
 -37466957.20747 -29171322.78244  23360182.1484                   23360181.0704
 -34811857.71548 -27095093.09047  20279470.3914                   20279468.9534
 -14756124.29748 -11473576.23946  21524524.5084                   21524525.5204
   5185101.12547   4061555.22145  22645031.2274                   22645030.9454
 -55408145.62948 -43143935.62546  21502118.0864                   21502114.8284
 11  8 19  2 16  0.0000000  0  8G12G30G26G10G05G25G29G02
 -36040978.98048 -28053555.00546  21299700.1334                   21299698.8164
 -14369386.14148 -11171613.48046  21526848.2504   21526847.8794   17441609.93046
  13613035.85043                  23755802.9224                   23755802.0314
 -37465443.50447 -29170143.23844  23360470.1414                   23360469.5594
 -34891723.68048 -27157326.28447  20264272.7894                   20264270.7664
 -14861706.63748 -11555848.17646  21504432.3914                   21504433.8524
   5001710.96947   3918653.87445  22610133.2114                   22610132.4694
 -55471610.85548 -43193389.02346  21490041.1724                   21490038.0704
 11  8 19  2 16 30.0000000  0  8G12G30G26G10G05G25G29G02
 -36083251.75848 -28086494.85746  21291656.1724                   21291654.6254
 -14455676.40248 -11238852.61146  21510428.0554   21510427.0234   17245171.98446
  13459967.38543                  23718422.2814                   23718421.1254
 -37463715.34847 -29168796.61144  23360798.8364                   23360798.1024
 -34971028.32048 -27219122.09447  20249181.1724                   20249179.6094
 -14966678.28948 -11637644.25046  21484457.2814                   21484458.7384
   4818415.58648   3775826.39745  22575253.3914                   22575252.2274
 -55534955.77748 -43242748.67246  21477987.3524                   21477983.6334
 11  8 19  2 17  0.0000000  0  8G12G30G26G10G05G25G29G02
 -36125043.30148 -28119059.69546  21283703.2194                   21283701.6174
 -14541350.32048 -11305611.50345  21494124.7734   21494124.2154   17048806.57446
  13306955.42543                  23681054.5394                   23681054.5514
 -37461772.63747 -29167282.86843  23361168.3204                   23361167.2114
 -35049769.79348 -27280479.07047  20234197.4774                   20234195.5944
 -15071036.34448 -11718962.20146  21464598.8284                   21464599.3984
   4635220.04347   3633076.69945  22540391.7584                   22540390.8524
 -55598177.34448 -43292012.20446  21465956.6254                   21465953.1254
 11  8 19  2 17 30.0000000  0  8G12G30G26G10G05G25G29G02
 -36166358.05948 -28151253.02146  21275841.1564                   21275839.8054
 -14626411.44948 -11371892.88246  21477937.8834   21477937.9414   16852514.91046
  13154000.95843                  23643701.7734                   23643700.6334
 -37459620.18446 -29165605.59143  23361577.2034                   23361576.5354
 -35127951.88348 -27341400.16047  20219319.7814                   20219317.9574
 -15174783.42248 -11799804.07146  21444856.3364                   21444857.4774
   4452123.64147   3490404.27145  22505549.9774                   22505549.4574
 -55661278.67648 -43341182.05546  21453948.8444                   21453944.9264
 11  8 19  2 18  0.0000000  0  8G12G30G26G10G05G25G29G02
 -34631778.77348 -26955476.96946  21567861.8364                   21567860.0434
 -13135439.66048 -10210096.67546  21761660.6254   21761659.9414   18231725.19146
  14228710.31444                  23906156.9844                   23906156.3594
 -35881842.50447 -27936168.45343  23661819.2734                   23661817.4964
 -33630155.07848 -26174285.75447  20504341.2894                   20504339.1214
 -13702497.89148 -10652568.56546  21725022.7734                   21725023.6994
   5844552.99647   4575414.26845  22770520.2504                   22770519.7344
 -54148838.70748 -42162657.37746  21741756.4384                   21741753.0124
 11  8 19  2 18 30.0000000  0  8G12G30G26G10G05G25G29G02
 -34672153.62147 -26986937.89946  21560179.0234                   21560177.2814
 -13219285.08648 -10275430.77146  21745705.1724   21745704.2234   18035584.80146
  14075873.72144                  23868832.0554                   23868832.1294
 -35879285.53547 -27934175.97443  23662305.7344                   23662304.4144
 -33707228.96548 -26234343.30547  20489674.4694                   20489672.4924
 -13805030.11748 -10732463.80646  21705511.5004                   21705512.6994
   5661654.43047   4432895.98745  22735715.7894                   22735715.0274
 -54211705.18748 -42211644.21746  21729793.3284                   21729789.6724
 11  8 19  2 19  0.0000000  0  8G12G30G26G10G05G25G29G02
 -34712058.32847 -27018032.46646  21552585.6024                   21552583.6724
 -13302521.14148 -10340290.02546  21729865.8594   21729864.8404   17839528.69146
  13923102.76644                  23831524.2034                   23831522.2854
 -35876526.84447 -27932026.34344  23662830.6334                   23662830.6024
 -33783747.72748 -26293968.29547  20475113.4774                   20475111.6094
 -13906952.01648 -10811883.44646  21686116.3134                   21686117.6994
   5478860.69147   4290459.43345  22700930.9304                   22700930.6454
 -54274451.24248 -42260537.24246  21717853.3444                   21717849.7704
 11  8 19  2 19 30.0000000  0  8G12G30G26G10G05G25G29G02
 -34751496.03547 -27048763.15346  21545080.6644                   21545078.9224
 -13385149.34448 -10404675.65146  21714142.4064   21714141.4654   17643560.26246
  13770400.13243                  23794232.4614                   23794231.6254
 -35873569.36747 -27929721.79944  23663393.1644                   23663393.2814
 -33859713.14848 -26353162.11547  20460657.8204                   20460656.0434
 -14008264.05148 -10890827.89446  21666837.3284                   21666838.4104
   5296173.83247   4148106.13245  22666166.9144                   22666166.2074
 -54337077.18048 -42309336.65846  21705935.9844                   21705932.2814
 11  8 19  2 20  0.0000000  0  9G12G30G26G10G05G15G25G29G02
 -34790469.73847 -27079132.26946  21537664.1174                   21537663.2114
 -13467171.41048 -10468588.95246  21698534.3594   21698533.6214   17447682.42646
  13617768.08043                  23756957.9844                   23756957.5354
 -35870416.22347 -27927264.85344  23663993.8284                   23663993.2814
 -33935127.02748 -26411926.16747  20446306.7344                   20446305.3484
  29646593.28956  23118267.29653  24667046.5164                   24667049.3014
 -14108967.09048 -10969297.79346  21647674.4064                   21647675.3714
   5113594.82847   4005836.87445  22631423.0234                   22631422.8984
 -54399583.96948 -42358043.22346  21694041.2504                   21694037.5274
 11  8 19  2 20 30.0000000  0  9G12G30G26G10G05G15G25G29G02
 -34828992.04348 -27109149.64446  21530333.5004                   21530332.2814
 -13548599.00448 -10532039.03046  21683038.9454   21683038.5274   17251888.46947
  13465201.42943                  23719699.6174                   23719699.4694
 -35867080.45347 -27924665.60644  23664628.7814                   23664628.0664
 -34010001.16848 -26470269.63347  20432058.8134                   20432056.6764
  29452195.38346  22966788.59543  24630054.8984                   24630055.3134
 -14209071.82048 -11047301.48446  21628625.2424                   21628626.1564
   4931115.26247   3863645.11645  22596698.4224                   22596698.2814
 -54461981.59848 -42406664.74646  21682167.5394                   21682163.9064
 11  8 19  2 21  0.0000000  0  9G12G30G26G10G05G15G25G29G02
 -34867070.71147 -27138821.34546  21523087.5314                   21523086.2934
 -13629439.03548 -10595031.26846  21667655.1884   21667654.5704   17056175.97346
  13312698.25644                  23682456.9614                   23682455.6914
 -35863570.23047 -27921930.36344  23665296.6884                   23665295.7384
 -34084342.92248 -26528198.26247  20417911.5944                   20417909.9184
  29257686.41046  22815223.32343  24593040.9304                   24593040.9024
 -14308584.19148 -11124843.58046  21609688.3674                   21609689.4184
   4748731.59447   3721528.02645  22561992.1254                   22561991.8874
 -54524276.01648 -42455205.84846  21670313.0944                   21670309.3014
 11  8 19  2 21 30.0000000  0  9G12G30G26G10G05G15G25G29G02
 -34904708.13747 -27168149.20946  21515925.3364                   21515923.9804
 -13709692.55948 -10657566.49246  21652383.9534   21652383.4414   16860549.25046
  13160261.86444                  23645230.1954                   23645230.1024
 -35859887.64147 -27919060.77244  23665997.2344                   23665996.3674
 -34158153.35948 -26585712.86547  20403866.5004                   20403864.2194
  29063069.27046  22663573.68443  24556005.3524                   24556006.8914
 -14407504.27348 -11201924.18046  21590864.6644                   21590865.6294
   4566446.04347   3579487.42245  22527303.8524                   22527303.6564
 -54586466.78548 -42503666.18046  21658478.5164                   21658475.4064
 11  8 19  2 22  0.0000000  0  9G12G30G26G10G05G15G25G29G02
 -34941904.44147 -27197133.34346  21508847.1334                   21508845.5474
 -13789358.87148 -10719644.15346  21637223.6484   21637223.0664   16665013.75847
  13007896.63344                  23608021.2734                   23608021.0664
 -35856033.44146 -27916057.51043  23666730.0164                   23666730.4844
 -34231432.02348 -26642813.11347  20389921.7344                   20389919.7664
  28868348.47746  22511843.38243  24518951.8674                   24518952.8364
 -14505830.46948 -11278542.00646  21572153.6414                   21572154.8444
   4384262.80147   3437526.51145  22492636.0784                   22492634.8954
 -54648552.10548 -42552044.34846  21646664.2274                   21646660.5274
 11  8 19  2 22 30.0000000  0  9G12G30G26G10G05G15G25G29G02
 -34978658.96547 -27225773.22446  21501853.2814                   21501851.4344
 -13868436.03548 -10781262.74046  21622176.1954   21622175.1134   16469576.15647
  12855607.60144                  23570830.4694                   23570830.0394
 -35852007.27046 -27912920.34643  23667496.8054                   23667495.9844
 -34304177.09848 -26699497.57647  20376079.0234                   20376076.8984
  28673529.91846  22360036.82243  24481879.5554                   24481878.6604
 -14603560.00448 -11354694.90146  21553556.4304                   21553557.2894
   4202187.00847   3295649.33545  22457988.0944                   22457986.8714
 -54710528.91848 -42600337.96946  21634870.4454                   21634866.7464
 11  8 19  2 23  0.0000000  0  9G12G30G26G10G05G15G25G29G02
 -35014970.43447 -27254067.88146  21494943.3914                   21494941.4104
 -13946921.82848 -10842420.51346  21607240.6884   21607239.8874   16274243.97747
  12703400.75544                  23533659.9924                   23533659.1804
 -35847807.65646 -27909647.91843  23668295.3594                   23668295.1024
 -34376386.40248 -26755764.55547  20362337.6564                   20362335.9024
  28478619.88746  22208159.00843  24444788.5394                   24444788.9614
 -14700689.55948 -11430380.26646  21535073.3054                   21535073.9924
   4020224.24647   3153860.20745  22423361.6884                   22423361.1374
 -54772393.49248 -42648544.12446  21623097.9224                   21623094.2734
 11  8 19  2 23 30.0000000  0  9G12G30G26G10G05G15G25G29G02
 -35050842.56248 -27282020.18646  21488116.9924                   21488115.5554
 -14024818.66048 -10903119.34445  21592417.1254   21592416.7114   16079019.85547
  12551278.11444                  23496510.0394                   23496509.8674
 -35843438.35947 -27906243.27943  23669127.3134                   23669126.2544
 -34448062.83248 -26811616.30247  20348698.3134                   20348696.6564
  28283620.26246  22056211.37043  24407681.2584                   24407681.4344
 -14797220.68048 -11505599.33046  21516704.0234                   21516704.8554
   3838375.51248   3012159.94445  22388756.9304                   22388755.4104
 -54834146.63348 -42696663.43446  21611346.8444                   21611343.3794
 11  8 19  2 24  0.0000000  0  9G12G30G26G10G05G15G25G29G02
 -35086277.48848 -27309631.82946  21481373.6564                   21481372.4454
 -14102127.91448 -10963360.35646  21577705.8754   21577705.6724   15883907.22747
  12399242.30944                  23459381.5234                   23459380.9344
 -35838901.96947 -27902708.42943  23669990.3204                   23669989.1684
 -34519208.03548 -26867054.11747  20335159.7734                   20335158.3674
  28088533.65246  21904196.00043  24370557.9224                   24370557.5864
 -14893153.85248 -11580352.46046  21498448.6254                   21498449.8634
   3656642.69547   2870549.97745  22354173.8914                   22354172.7894
 -54895788.59048 -42744696.10746  21599616.8284                   21599613.0704
 11  8 19  2 24 30.0000000  0  9G12G30G26G10G05G15G25G29G02
 -35121278.60948 -27336905.44146  21474713.4534                   21474711.5204
 -14178852.03148 -11023145.39746  21563105.8134   21563105.1764   15688908.88746
  12247295.61044                  23422274.3134                   23422273.6414
 -35834202.03547 -27899046.09943  23670884.6564                   23670882.9964
 -34589824.13348 -26922079.64247  20321722.0164                   20321720.2774
  27893361.57846  21752113.95644  24333417.6954                   24333418.2774
 -14988490.50848 -11654640.77246  21480306.6954                   21480307.2074
   3475027.14847   2729031.40545  22319614.0554                   22319612.8794
 -54957320.27348 -42792642.87246  21587907.3834                   21587904.0354
 11  8 19  2 25  0.0000000  0  9G12G30G26G10G05G15G25G29G02
 -35155846.68448 -27363841.59846  21468135.3754                   21468133.7034
 -14254990.57848 -11082474.15246  21548617.0864   21548616.5204   15494030.10547
  12095442.06244                  23385190.0864                   23385190.0634
 -35829338.77047 -27895256.52143  23671810.5164                   23671808.8164
 -34659910.85248 -26976692.67047  20308384.9304                   20308383.0704
  27698108.59046  21599968.96243  24296261.6254                   24296262.3324
 -15083229.27748 -11728463.19346  21462278.2424                   21462279.3984
   3293532.60247   2587607.10445  22285076.5164                   22285075.2774
 -55018739.78948 -42840502.24646  21576219.7114                   21576215.8014
 11  8 19  2 25 30.0000000  0  9G12G30G26G10G05G15G25G29G02
 -33614563.30948 -26162841.57246  21761431.8364                   21761430.2814
 -12755122.57048  -9913745.86345  21834032.3754   21834031.6214   16874701.36347
  13171289.85944                  23647922.9064                   23647922.6764
 -34248895.22747 -26663742.02243  23972558.5784                   23972557.1524
 -33154047.90248 -25803292.96247  20594941.1024                   20594938.9384
  29078204.03346  22675368.13543  24558885.3524                   24558885.8874
 -13601947.74248 -10574217.84446  21744157.0704                   21744158.0594
   4687587.31647   3673883.52645  22550356.4304                   22550355.5474
 -53504625.13748 -41660672.62846  21864346.2114                   21864342.7814
 11  8 19  2 26  0.0000000  0  9G12G30G26G10G05G15G25G29G02
 -33648275.17648 -26189110.56046  21755016.3834                   21755015.1174
 -12830096.61748  -9972167.21345  21819765.6334   21819764.9104   16680071.07847
  13019629.90644                  23610885.7894                   23610885.2274
 -34243715.47347 -26659705.87243  23973544.3204                   23973543.6454
 -33223083.43048 -25857086.87947  20581804.2114                   20581802.0704
  28882795.67246  22523102.05843  24521700.3674                   24521700.4344
 -13695494.64548 -10647111.53846  21726355.7344                   21726356.2854
   4506339.39847   3532651.40945  22515865.4694                   22515865.0314
 -53565822.37548 -41708358.77646  21852700.9064                   21852697.3554
 11  8 19  2 26 30.0000000  0  9G12G30G26G10G05G15G25G29G02
 -33681562.23447 -26215048.53746  21748682.5704                   21748680.8754
 -12904490.32848 -10030136.34745  21805609.0084   21805608.0314   16485570.94547
  12868071.44344                  23573873.9144                   23573873.3714
 -34238380.91047 -26655549.07243  23974559.7584                   23974559.2734
 -33291595.30548 -25910472.75547  20568766.7114                   20568764.8634
  28687314.00446  22370778.84943  24484501.1954                   24484500.5634
 -13788446.20748 -10719541.33346  21708667.4534                   21708668.5704
   4325217.84047   3391517.76045  22481399.7894                   22481398.9844
 -53626908.17647 -41755958.08846  21841076.4064                   21841073.1174
 11  8 19  2 27  0.0000000  0  9G12G30G26G10G05G15G25G29G02
 -33714426.84847 -26240657.33246  21742428.7894                   21742426.9144
 -12978305.16848 -10087654.40045  21791562.6334   21791561.4734   16291204.75847
  12716617.29544                  23536887.1564                   23536886.4804
 -34232893.98847 -26651273.55944  23975604.4384                   23975603.3164
 -33359585.03548 -25963451.75947  20555829.0394                   20555826.7704
  28491761.77346  22218400.58843  24447288.5084                   24447287.9924
 -13880802.88347 -10791507.57346  21691092.5944                   21691093.5274
   4144225.07047   3250484.46245  22446957.7274                   22446957.0864
 -53687882.24247 -41803470.34046  21829473.1174                   21829469.7544
 11  8 19  2 27 30.0000000  0  9G12G30G26G10G05G15G25G29G02
 -33746875.47347 -26265941.97046  21736253.5704                   21736251.7344
 -13051546.66447 -10144725.72345  21777624.8754   21777624.3834   16096972.19947
  12565267.30544                  23499926.6414                   23499925.1214
 -34227261.28146 -26646884.42543  23976675.1804                   23976674.6604
 -33427058.68048 -26016028.61047  20542988.5164                   20542987.2274
  28296137.69546  22065966.44343  24410062.5554                   24410061.4614
 -13972569.31248 -10863013.87746  21673630.0944                   21673630.8284
   3963359.42247   3109550.24745  22412540.2114                   22412539.0944
 -53748748.78547 -41850898.80446  21817890.7504                   21817887.7734
 11  8 19  2 28  0.0000000  0  9G12G30G26G10G05G15G25G29G02
 -33778910.78947 -26290904.56146  21730157.3754                   21730155.7234
 -13124216.90647 -10201351.87745  21763796.3204   21763795.6914   15902876.33647
  12414023.80244                  23462990.7814                   23462989.7274
 -34221485.06246 -26642383.58643  23977774.7424                   23977773.8984
 -33494017.87548 -26068204.59547  20530246.8984                   20530245.2344
  28100444.29346  21913478.19443  24372822.9304                   24372822.4104
 -14063746.60248 -10934061.12546  21656279.4144                   21656280.8674
   3782622.41847   2968716.25245  22378146.8674                   22378146.4184
 -53809507.79347 -41898243.46546  21806328.5474                   21806325.3324
 11  8 19  2 28 30.0000000  0  9G12G30G26G10G05G15G25G29G02
 -33810533.94147 -26315545.99446  21724140.1334                   21724138.0864
 -13196315.59448 -10257532.67646  21750076.4534   21750075.7034   15708922.98847
  12262891.36144                  23426082.5004                   23426081.3324
 -34215566.52346 -26637771.77143  23978901.0944                   23978899.7704
 -33560462.69548 -26119979.75447  20517602.7034                   20517601.1954
  27904685.94946  21760939.36443  24335571.7194                   24335570.4384
 -14154333.59048 -11004648.38646  21639041.3054                   21639042.7274
   3602017.93447   2827985.54745  22343779.5554                   22343778.7974
 -53870157.47347 -41945502.95246  21794787.5234                   21794784.1024
 11  8 19  2 29  0.0000000  0  9G12G30G26G10G05G15G25G29G02
 -33841747.12547 -26339867.95546  21718200.3204                   21718198.3404
 -13267843.84447 -10313268.97945  21736465.0944   21736464.1994   15515116.30147
  12111873.21544                  23389201.9534                   23389201.7504
 -34209507.47747 -26633050.33043  23980054.6414                   23980052.3674
 -33626394.38748 -26171355.07747  20505056.7894                   20505055.0434
  27708866.25446  21608352.71743  24298308.0634                   24298307.1724
 -14244330.46948 -11074775.82646  21621915.5394                   21621916.3794
   3421548.71547   2687360.25145  22309436.6644                   22309435.9304
 -53930697.05947 -41992676.65946  21783267.3674                   21783263.6524
 11  8 19  2 29 30.0000000  0  9G12G30G26G10G05G15G25G29G02
 -33872549.70747 -26363869.98446  21712338.8984                   21712337.2854
 -13338800.62548 -10368559.96345  21722962.3524   21722961.5744   15321462.64147
  11960974.24844                  23352351.5234                   23352350.7154
 -34203307.60547 -26628219.24543  23981234.0474                   23981232.5434
 -33691811.87148 -26222329.72247  20492607.8594                   20492606.1804
  27512990.82446  21455722.62543  24261033.9924                   24261033.1374
 -14333735.30148 -11144441.90746  21604902.1804                   21604903.6294
   3241219.57047   2546844.10845  22275121.4224                   22275120.4144
 -53991123.72747 -42039762.35345  21771768.3754                   21771765.0744
 11  8 19  2 30  0.0000000  0  9G12G30G26G10G05G15G25G29G02
 -33902944.36747 -26387554.14746  21706554.6804                   21706553.0904
 -13409187.18448 -10423406.64846  21709568.2974   21709567.5204   15127966.39847
  11810198.04644                  23315529.8834                   23315529.4924
 -34196969.01647 -26623280.01743  23982440.3204                   23982438.3754
 -33756716.63348 -26272904.83447  20480257.1174                   20480255.1454
  27317062.62946  21303051.40643  24223749.6724                   24223748.8324
 -14422548.48048 -11213646.97646  21588001.6094                   21588003.0434
   3061033.17647   2406439.20545  22240833.1024                   22240832.4104
 -54051437.35247 -42086759.94646  21760291.3674                   21760287.7074
 11  8 19  2 30 30.0000000  0  9G12G30G26G10G05G15G25G29G02
 -33932935.67647 -26410924.00546  21700847.7274                   21700846.0004
 -13479007.59048 -10477812.13145  21696282.0474   21696280.8244   14934628.69147
  11659545.30644                  23278739.1804                   23278738.5634
 -34190496.19546 -26618236.23843  23983671.5084                   23983670.5434
 -33821112.45748 -26323083.37647  20468002.8984                   20468000.9304
  27121082.10246  21150339.42343  24186455.7894                   24186455.5234
 -14510773.04348 -11282393.39046  21571213.0474                   21571214.0314
   2880989.27347   2266145.36645  22206571.5004                   22206570.7584
 -54111640.07448 -42133671.15645  21748834.9844                   21748831.7544
 11  8 19  2 31  0.0000000  0  9G12G30G26G10G05G15G25G29G02
 -33962524.14547 -26433979.97746  21695217.1484                   21695215.6294
 -13548261.44947 -10531776.17445  21683103.4224   21683102.6914   14741455.53547
  11509020.83344                  23241979.5004                   23241978.4454
 -34183889.76246 -26613088.34243  23984928.7194                   23984928.0434
 -33884999.21148 -26372865.22747  20455845.6884                   20455843.9844
  26925054.14147  20997590.44143  24149153.1484                   24149152.5634
 -14598407.83648 -11350680.22646  21554537.0084                   21554538.2854
   2701092.07847   2125965.84945  22172338.0864                   22172337.4574
 -54171729.72348 -42180494.24545  21737399.9534                   21737396.9804
 11  8 19  2 31 30.0000000  0  9G12G30G26G10G05G15G25G29G02
 -33991715.87147 -26456726.78846  21689662.1484                   21689660.5234
 -13616954.13748 -10585302.92745  21670031.4534   21670030.6414   14548447.03947
  11358624.64044                  23205250.9614                   23205250.1954
 -34177155.71146 -26607841.09243  23986210.2114                   23986208.9614
 -33948382.03148 -26422254.42147  20443783.9844                   20443782.6134
  26728978.16046  20844804.05343  24111841.5704                   24111840.9344
 -14685457.19948 -11418510.88446  21537971.9144                   21537972.7664
   2521340.26247   1985899.59845  22138132.7504                   22138131.7114
 -54231709.44947 -42227231.67145  21725986.6174                   21725982.5514
 11  8 19  2 32  0.0000000  0  9G12G30G26G10G05G15G25G29G02
 -34020510.12147 -26479163.87146  21684182.8444                   21684181.1174
 -13685083.91448 -10638391.05445  21657066.8754   21657065.9184   14355610.56647
  11208362.50144                  23168555.8444                   23168554.6604
 -34170292.64846 -26602493.27343  23987516.3204                   23987515.5784
 -34011259.63748 -26471249.93547  20431818.8984                   20431817.1294
  26532860.21546  20691985.01244  24074520.6564                   24074521.3484
 -14771918.55948 -11485883.36546  21521518.6024                   21521519.9264
   2341739.41847   1845950.98346  22103955.5394                   22103954.7504
 -54291575.70747 -42273880.67646  21714594.5164                   21714590.4694
 11  8 19  2 32 30.0000000  0  9G12G30G26G10G05G15G25G29G02
 -34048914.69547 -26501297.31646  21678777.9774                   21678775.8484
 -13752657.57848 -10691045.84345  21644208.0704   21644207.3954   14162944.66047
  11058233.27044                  23131892.3754                   23131892.1804
 -34163307.69546 -26597050.38843  23988845.8914                   23988844.8054
 -34073638.63348 -26519856.93047  20419948.6254                   20419946.5474
  26336698.54347  20539131.82844  24037192.9064                   24037192.7274
 -14857797.70348 -11552802.15246  21505176.5944                   21505177.5084
   2162287.10247   1706118.12345  22069806.9224                   22069806.3714
 -54351333.59447 -42320445.24646  21703223.0004                   21703219.0274
 11  8 19  2 33  0.0000000  0  9G12G30G26G10G05G15G25G29G02
 -34076931.32847 -26523128.47646  21673445.8134                   21673444.7854
 -13819676.34047 -10743268.24845  21631454.7194   21631453.6684   13970453.92247
  10908240.53844                  23095262.1954                   23095261.9144
 -34156203.02746 -26591514.24543  23990197.5554                   23990196.2034
 -34135520.09048 -26568076.23247  20408173.0314                   20408170.9884
  26140496.18447  20386246.97244  23999856.5234                   23999856.8524
 -14943095.08248 -11619267.62746  21488945.1094                   21488945.8094
   1982985.81347   1566402.92245  22035686.6024                   22035685.9774
 -54410982.40247 -42366924.82146  21691871.5554                   21691868.4804
 11  8 19  2 33 30.0000000  0  9G12G30G26G10G05G15G25G29G02
 -32529143.49247 -25317060.02946  21967980.1564                   21967978.7344
 -12310721.17247  -9567459.02245  21918599.6804   21918598.1914   15353567.09446
  11985991.10644                  23358460.1954                   23358459.5084
 -32573562.87546 -25358288.16343  24291363.6724                   24291363.1024
 -32621485.19547 -25388308.77646  20696284.1094                   20696282.4104
  27519681.28946  21460936.74444  24262306.7814                   24262307.0314
 -13452390.16847 -10457679.36346  21772616.7114                   21772617.7584
   3379262.36347   2654410.73245  22301389.2344                   22301388.4654
 -52895101.26247 -41185718.72346  21980334.5554                   21980331.1294
 11  8 19  2 34  0.0000000  0  9G12G30G26G10G05G15G25G29G02
 -32556393.02348 -25338293.44946  21962794.7274                   21962793.1174
 -12376636.28948  -9618821.45345  21906056.0634   21906055.5984   15161437.16047
  11836279.50044                  23321899.8914                   23321898.3524
 -32566226.74646 -25352571.72143  24292759.9534                   24292759.4494
 -32682377.99648 -25435757.69947  20684696.9924                   20684694.9414
  27323405.97747  21307995.01844  24224957.0234                   24224956.8914
 -13536527.43748 -10523240.86546  21756605.8204                   21756606.8364
   3200269.11347   2514935.55745  22267328.0474                   22267327.2274
 -52954531.65247 -41232028.10246  21969025.4144                   21969021.5864
 11  8 19  2 34 30.0000000  0  9G12G30G26G10G05G15G25G29G02
 -32583260.29347 -25359228.99346  21957682.1334                   21957680.7664
 -12441999.64548  -9669753.94045  21893617.8134   21893616.9924   14969495.94547
  11686714.96844                  23285374.4304                   23285373.6454
 -32558775.47346 -25346765.53243  24294177.5944                   24294177.3554
 -32742776.41848 -25482821.38447  20673203.3834                   20673201.3954
  27127101.11746  21155030.27544  24187601.2114                   24187600.7544
 -13620083.40248 -10588349.39146  21740705.6484                   21740706.5594
   3021436.03147   2375585.19546  22233297.3364                   22233296.3244
 -53013849.82848 -41278250.03746  21957737.3054                   21957733.6604
 11  8 19  2 35  0.0000000  0  9G12G30G26G10G05G15G25G29G02
 -32609748.06248 -25379868.82346  21952641.9844                   21952640.3954
 -12506813.09848  -9720257.91945  21881284.1564   21881283.3324   14777747.35547
  11537300.53544                  23248885.6254                   23248884.4804
 -32551211.25446 -25340871.38543  24295616.8914                   24295616.8954
 -32802682.58248 -25529501.50447  20661803.6484                   20661801.9534
  26930769.91046  21002045.06844  24150240.9774                   24150240.2274
 -13703058.98448 -10653005.66146  21724915.8674                   21724916.9414
   2842765.17247   2236361.20745  22199297.0944                   22199295.2854
 -53073055.73048 -41324384.48145  21946471.0164                   21946467.2034
 11  8 19  2 35 30.0000000  0  9G12G30G26G10G05G15G25G29G02
 -32635860.39148 -25400216.09646  21947673.2344                   21947671.3954
 -12571080.09048  -9770336.09945  21869054.7034   21869054.4654   14586193.66847
  11388037.95944                  23212434.0944                   23212433.3014
 -32543537.98446 -25334892.25043  24297077.1094                   24297076.6644
 -32862099.71948 -25575800.55547  20650496.9064                   20650494.8014
  26734413.61746  20849040.26543  24112875.2814                   24112874.4534
 -13785456.82448 -10717211.75246  21709236.0634                   21709236.8404
   2664257.64547   2097264.49746  22165328.4614                   22165327.1844
 -53132150.48847 -41370432.33545  21935225.5944                   21935222.3054
 11  8 19  2 36  0.0000000  0  9G12G30G26G10G05G15G25G29G02
 -32661598.11748 -25420271.45846  21942775.2894                   21942773.2974
 -12634800.80548  -9819988.59845  21856929.2034   21856928.4384   14394840.41047
  11238931.58144                  23176020.1484                   23176020.2894
 -32535756.57446 -25328828.84143  24298557.6174                   24298557.1804
 -32921028.16048 -25621718.81246  20639283.1414                   20639281.3594
  26538036.77746  20696019.44943  24075505.7424                   24075504.8444
 -13867276.25448 -10780967.14346  21693666.1804                   21693667.5394
   2485917.07847   1958297.88846  22131391.2504                   22131389.7504
 -53191132.44547 -41416392.27845  21924001.7194                   21923998.3984
 11  8 19  2 36 30.0000000  0  9G12G30G26G10G05G15G25G29G02
 -32686970.41448 -25440042.08746  21937947.0784                   21937945.5784
 -12697983.77748  -9869222.07845  21844905.5474   21844904.8204   14203684.80547
  11089979.19844                  23139645.2034                   23139644.1804
 -32527875.58646 -25322687.76343  24300057.9064                   24300057.1524
 -32979475.91448 -25667262.49447  20628160.7274                   20628159.0634
  26341635.87546  20542979.90143  24038131.0704                   24038131.2464
 -13948524.83648 -10844277.69846  21678205.1884                   21678205.9734
   2307739.25447   1819458.05246  22097485.1884                   22097483.2464
 -53250007.94147 -41462269.29146  21912798.2274                   21912794.2074
 11  8 19  2 37  0.0000000  0  9G12G30G26G10G05G15G25G29G02
 -32711977.91448 -25459528.46446  21933187.9924                   21933186.6484
 -12760628.49248  -9918036.13745  21832984.9144   21832983.8794   14012733.08647
  10941185.68944                  23103308.1094                   23103307.0634
 -32519894.83646 -25316469.00442  24301576.5234                   24301575.1914
 -33037442.31648 -25712431.10047  20617130.0554                   20617128.0084
  26145216.44147  20389925.89844  24000754.4384                   24000754.0594
 -14029201.25448 -10907142.42746  21662852.9844                   21662854.1214
   2129729.36747   1680749.06746  22063611.0554                   22063609.9924
 -53308774.25047 -41508061.22145  21901614.9224                   21901611.2584
 11  8 19  2 37 30.0000000  0  9G12G30G26G10G05G15G25G29G02
 -32736622.63348 -25478732.14946  21928498.7344                   21928496.8914
 -12822736.42248  -9966431.94945  21821166.4454   21821165.2114   13821989.79347
  10792554.59644                  23067010.7814                   23067009.9614
 -32511816.24646 -25310173.88342  24303114.0234                   24303111.1684
 -33094929.53548 -25757226.32747  20606190.6334                   20606188.3404
  25948781.79747  20236860.05444  23963374.0704                   23963372.7894
 -14109306.07048 -10969561.74646  21647609.2504                   21647610.2304
   1951889.60247   1542172.66346  22029769.2194                   22029767.8094
 -53367430.50447 -41553767.39746  21890452.9384                   21890449.6644
 11  8 19  2 38  0.0000000  0  9G12G30G26G10G05G15G25G29G02
 -32760909.05548 -25497656.62946  21923876.8364                   21923875.0274
 -12884311.50848 -10014412.52645  21809449.0394   21809448.0434   13631456.64147
  10644087.25744                  23030753.2814                   23030752.6884
 -32503643.96546 -25303805.87142  24304668.9614                   24304666.9304
 -33151941.09848 -25801650.90546  20595341.7344                   20595339.8444
  25752333.09847  20083783.22444  23925991.0164                   23925990.7704
 -14188842.41448 -11031538.11146  21632474.3674                   21632475.5594
   1774220.58647   1403729.30146  21995959.8444                   21995958.6134
 -53425978.67647 -41599389.34645  21879311.5634                   21879308.1094
 11  8 19  2 38 30.0000000  0  9G12G30G26G10G05G15G25G29G02
 -32784840.89848 -25516304.82146  21919323.0634                   21919321.1804
 -12945356.60948 -10061980.14245  21797832.1334   21797831.6024   13441136.78147
  10495786.10144                  22994536.4144                   22994535.6334
 -32495380.94146 -25297367.21142  24306240.6094                   24306239.3714
 -33208479.62548 -25845706.89047  20584582.7194                   20584581.2664
  25555872.34447  19930697.01844  23888606.0554                   23888605.2774
 -14267812.28148 -11093073.05546  21617446.8984                   21617448.1564
   1596723.77747   1265420.11046  21962183.2584                   21962182.1294
 -53484419.02347 -41644927.27846  21868191.0784                   21868187.4804
 11  8 19  2 39  0.0000000  0  9G12G30G26G10G05G15G25G29G02
 -32808418.04347 -25534676.63746  21914836.0474                   21914834.9924
 -13005871.15248 -10109134.33045  21786316.6174   21786316.3014   13251036.48447
  10347656.04044                  22958361.7504                   22958360.8794
 -32487026.93046 -25290857.64143  24307831.6174                   24307830.5664
 -33264544.57047 -25889393.83846  20573913.7504                   20573912.0944
  25359404.94547  19777605.64744  23851219.0704                   23851218.9304
 -14346214.26248 -11154165.50346  21602527.3284                   21602528.4224
   1419404.11347   1127248.95546  21928440.5864                   21928439.5864
 -53542748.82047 -41690379.05345  21857091.2894                   21857087.6414
 11  8 19  2 39 30.0000000  0  9G12G30G26G10G05G15G25G29G02
 -32831641.24247 -25552772.64546  21910416.8674                   21910416.0864
 -13065855.00048 -10155874.99145  21774902.2584   21774901.1094   13061161.77347
  10199701.77544                  22922229.5944                   22922228.7234
 -32478582.05147 -25284277.23744  24309438.8594                   24309437.9654
 -33320135.74648 -25932711.62246  20563335.4224                   20563333.5634
  25162936.23446  19624513.25944  23813831.9694                   23813831.4924
 -14424047.32448 -11214814.63046  21587716.4224                   21587717.2704
   1242266.31647    989219.52046  21894732.5164                   21894731.4694
 -53600965.66847 -41735742.85045  21846013.1174                   21846009.2194
 11  8 19  2 40  0.0000000  0  9G12G30G26G10G05G15G25G29G02
 -32854514.82447 -25570596.22946  21906064.2274                   21906062.8364
 -13125311.85948 -10202205.02045  21763587.9534   21763587.4454   12871515.00847
  10051925.10544                  22886140.6884                   22886140.6214
 -32470049.88747 -25277628.81643  24311062.1564                   24311061.5314
 -33375256.55148 -25975662.89546  20552846.3834                   20552844.0514
  24966467.56646  19471420.88744  23776445.0944                   23776444.5474
 -14501314.40648 -11275022.74046  21573012.7664                   21573013.5164
   1065310.85247    851332.15146  21861058.9844                   21861057.5234
 -53659070.94147 -41781019.69445  21834955.7814                   21834952.2814
 11  8 19  2 40 30.0000000  0  9G12G30G26G10G05G15G25G29G02
 -32877039.59047 -25588147.99846  21901778.0234                   21901776.8754
 -13184242.41048 -10248124.92345  21752373.3754   21752372.9454   12682101.58247
   9904330.26844                  22850096.7894                   22850095.9264
 -32461431.18447 -25270912.92544  24312702.7504                   24312701.8524
 -33429907.82848 -26018248.29346  20542446.5314                   20542444.2704
  24770003.22346  19318331.85544  23739058.6564                   23739058.3284
 -14578015.29748 -11334789.67246  21558416.8364                   21558418.2624
    888541.52747    713589.85846  21827420.7584                   21827419.7194
 -53717062.99647 -41826208.32545  21823920.0784                   21823916.4144
 11  8 19  2 41  0.0000000  0  9G12G30G26G10G05G15G25G29G02
 -32899221.23448 -25605432.41546  21897556.6334                   21897555.4264
 -13242650.91848 -10293638.04245  21741259.1334   21741258.5984   12492922.82847
   9756918.28544                  22814097.7194                   22814096.6294
 -32452730.82047 -25264133.40543  24314357.6334                   24314356.9104
 -33484093.67648 -26060471.02946  20532135.0004                   20532133.2584
  24573544.34046  19165247.14544  23701674.3914                   23701674.0594
 -14654153.55948 -11394118.18446  21543928.0234                   21543929.3554
    711958.54747    575992.76246  21793817.7194                   21793817.4574
 -53774943.85947 -41871310.29145  21812905.7734                   21812902.3484
 11  8 19  2 41 30.0000000  0  9G12G30G26G10G05G15G25G29G02
 -31345645.36347 -24394853.82446  22193192.5704                   22193191.2544
 -11725121.28548  -9111147.42245  22030035.2194   22030034.7624   13879405.61347
  10837294.50845                  23077936.3134                   23077935.3094
 -30868534.73446 -24029694.99743  24615820.1174                   24615819.6094
 -31962397.88748 -24874734.04246  20821704.3284                   20821702.2034
  25952516.68046  20239771.13644  23964083.7894                   23964082.7154
 -13154311.53948 -10225410.10946  21829339.1884                   21829339.4694
   2110986.53947   1666144.48546  22060043.9774                   22060043.1024
 -52257294.71548 -40688726.53645  22101705.3134                   22101701.5234
 11  8 19  2 42  0.0000000  0 10G12G30G26G10G05G15G25G29G02G21
 -31367157.54347 -24411616.58646  22189099.1174                   22189097.3094
 -11782501.21147  -9155859.04745  22019116.1174   22019115.5274   13690699.25047
  10690250.63644                  23042026.7584                   23042025.8244
 -30859686.08246 -24022799.96743  24617504.7274                   24617502.7234
 -32015667.89148 -24916243.13546  20811567.3754                   20811565.4344
  25756068.49647  20086694.74444  23926701.1414                   23926700.6914
 -13229337.30148 -10283871.73946  21815062.0084                   21815062.9224
   1934774.23447   1528836.25346  22026511.9924                   22026510.8014
 -52314960.98047 -40733661.28046  22090731.4144
  22090727.7814                   25286956.1334                   25286955.9574
 11  8 19  2 42 30.0000000  0 10G12G30G26G10G05G15G25G29G02G21
 -31388346.39847 -24428127.37246  22185066.8204                   22185065.4024
 -11839377.85947  -9200178.51245  22008292.9924   22008292.5594   13502226.93847
  10543389.13244                  23006161.3524                   23006160.5664
 -30850774.34046 -24015855.81743  24619199.4774                   24619199.0514
 -32068490.42248 -24957403.54946  20801515.5784                   20801513.7034
  25559622.45347  19933619.99944  23889318.8834                   23889318.0314
 -13303816.64548 -10341907.60046  21800889.1094                   21800890.2344
   1758743.18447   1391669.26846  21993014.4224                   21993012.8204
 -52372527.27747 -40778518.13545  22079777.2814                   22079773.2384
  34271981.03146  26719196.61443  25257171.2894                   25257171.0434
 11  8 19  2 43  0.0000000  0 10G12G30G26G10G05G15G25G29G02G21
 -31409217.62547 -24444390.69646  22181094.9694                   22181093.8324
 -11895755.52747  -9244109.15445  21997564.6804   21997564.1334   13313990.55147
  10396711.46344                  22970341.2664                   22970340.5204
 -30841803.50045 -24008865.59842  24620906.9304                   24620906.5314
 -32120869.84448 -24998218.67446  20791548.0314                   20791546.1604
  25363179.49647  19780547.66144  23851937.0944                   23851936.1884
 -13377753.03148 -10399520.37646  21786819.6414                   21786820.6564
   1582893.38348   1254643.51146  21959551.5234                   21959550.1684
 -52429995.37947 -40823298.47245  22068841.0864                   22068837.9694
  34115487.21546  26597253.48843  25227391.9064                   25227391.5164
 11  8 19  2 43 30.0000000  0 10G12G30G26G10G05G15G25G29G02G21
 -31429773.85947 -24460408.55246  22177183.4844                   22177181.8554
 -11951636.61748  -9287652.84345  21986930.6724   21986930.1524   13125993.60947
  10250220.36044                  22934566.3444                   22934565.2114
 -30832776.30546 -24001831.41842  24622625.1484                   24622623.3834
 -32172808.52748 -25038690.37446  20781664.1804                   20781662.5904
  25166742.37147  19627479.84844  23814555.5944                   23814555.2584
 -13451148.06248 -10456711.31346  21772852.7584                   21772853.6254
   1407226.93448   1117760.63346  21926122.9224                   21926121.9884
 -52487365.43447 -40868002.39045  22057923.7584                   22057920.3164
  33959015.29746  26475327.36843  25197615.0634                   25197615.8594
 11  8 19  2 44  0.0000000  0 10G12G30G26G10G05G15G25G29G02G21
 -31450014.91047 -24476180.82546  22173332.0864                   22173330.5984
 -12007020.48048  -9330809.10545  21976391.4304   21976391.3244   12938243.02047
  10103921.23544                  22898839.1564                   22898838.3134
 -30823691.81246 -23994752.55943  24624353.8364                   24624352.8754
 -32224305.41048 -25078817.80046  20771865.0474                   20771863.2704
  24970316.97746  19474421.19644  23777176.7114                   23777177.0944
 -13524000.31648 -10513479.29246  21758989.6024                   21758990.8554
   1231749.52048    981025.05246  21892730.7894                   21892729.5434
 -52544633.90247 -40912627.16145  22047025.9454                   22047022.3794
  33802567.80146  26353420.37343  25167845.2274                   25167844.4494
 11  8 19  2 44 30.0000000  0  9G12G30G26G05G15G25G29G02G21
 -31469942.59447 -24491708.90445  22169539.5234                   22169538.4414
 -12061908.31248  -9373578.83645  21965946.8754   21965945.8594   12750743.55547
   9957817.77945                  22863158.9694                   22863157.7074
 -32275361.60547 -25118601.84946  20762149.3054                   20762147.2504
  24773907.55146  19321374.97544  23739801.7584                   23739801.8204
 -13596310.12148 -10569824.60346  21745229.1644                   21745230.4574
   1056464.51248    844439.39146  21859375.2734                   21859373.8714
 -52601799.91047 -40957172.09945  22036147.7034                   22036144.0824
  33646145.33246  26231532.85643  25138078.9454                   25138078.0554
 11  8 19  2 45  0.0000000  0  9G12G30G26G05G15G25G29G02G21
 -31489554.35547 -24506990.81646  22165807.7194                   22165806.6564
 -12116297.37947  -9415959.92145  21955597.2584   21955596.2774   12563504.25847
   9811917.07845                  22827528.3054                   22827527.3484
 -32325974.13748 -25158040.16546  20752517.8054                   20752516.1524
  24577522.16847  19168347.50044  23702430.7814                   23702430.2814
 -13668073.94948 -10625744.47746  21731573.1094                   21731574.0314
    881379.14848    708009.30946  21826057.2344                   21826056.1024
 -52658857.69547 -41001632.71445  22025290.0314                   22025286.1914
  33489752.20746  26109668.14443  25108317.8984                   25108317.3954
 11  8 19  2 45 30.0000000  0  9G12G30G26G05G15G25G29G02G21
 -31508850.13347 -24522026.50345  22162136.2814                   22162134.5514
 -12170186.43447  -9457951.39045  21945342.4224   21945341.3404   12376532.26647
   9666224.66044                  22791948.9454                   22791947.6024
 -32376141.86748 -25197131.90247  20742971.1804                   20742969.5664
  24381167.46147  19015343.90244  23665065.3594                   23665064.5274
 -13739289.79348 -10681237.34246  21718021.1024                   21718022.1214
    706499.38747    571739.40246  21792778.9384                   21792777.1994
 -52715803.51247 -41046006.04945  22014453.3134                   22014449.8164
  33333391.89146  25987829.05543  25078563.1484                   25078563.5474
 11  8 19  2 46  0.0000000  0  9G12G30G26G05G15G25G29G02G21
 -31527827.28147 -24536813.89245  22158524.5394                   22158523.1954
 -12223572.64147  -9499551.04345  21935183.0704   21935181.7894   12189836.66447
   9520747.59644                  22756421.8914                   22756420.6484
 -32425861.51648 -25235874.47846  20733509.9774                   20733508.0394
  24184851.62947  18862370.57544  23627708.0234                   23627706.4614
 -13809953.98048 -10736300.35546  21704574.6174                   21704575.4884
    531832.79748    435635.63746  21759540.6564                   21759539.3054
 -52772631.77748 -41090287.79645  22003639.4774                   22003635.6334
  33177069.18846  25866019.19343  25048816.2034                   25048815.5514
 11  8 19  2 46 30.0000000  0  9G12G30G26G05G15G25G29G02G21
 -31546489.23047 -24551355.69545  22154973.6094                   22154971.4304
 -12276459.14147  -9540761.29445  21925119.2194   21925118.3874   12003420.71147
   9375488.43344                  22720947.8834                   22720947.0044
 -32475135.72748 -25274269.95546  20724133.6884                   20724131.8324
  23988576.83647  18709429.25244  23590358.5554                   23590356.5904
 -13880068.91448 -10790935.37746  21691231.9614                   21691233.0474
    357381.00048    299699.23646  21726343.7344                   21726342.0864
 -52829343.13747 -41134478.45045  21992847.6884                   21992844.1764
  33020782.80946  25744237.69043  25019076.0004                   25019075.1294
 11  8 19  2 47  0.0000000  0  9G12G30G26G05G15G25G29G02G21
 -31564842.30547 -24565656.79845  22151480.6644                   22151479.2424
 -12328851.45347  -9581586.46645  21915149.3834   21915148.3364   11817284.69147
   9230447.42744                  22685527.2274                   22685526.4304
 -32523970.46148 -25312322.98046  20714840.6254                   20714838.3554
  23792342.72747  18556519.61444  23553016.0084                   23553015.0394
 -13949639.43048 -10845146.17346  21677993.0944                   21677994.3284
    183142.93448    163929.36146  21693187.1174                   21693185.7544
 -52885940.64148 -41178580.39045  21982077.5474                   21982073.9344
  32864529.11746  25622481.68843  24989342.1954                   24989341.1604
 11  8 19  2 47 30.0000000  0  9G12G30G26G05G15G25G29G02G21
 -31582886.34447 -24579717.10245  22148047.5784                   22148046.2344
 -12380749.33648  -9622026.39445  21905273.4844   21905272.3324   11631435.51647
   9085629.90345                  22650161.3914                   22650160.1804
 -32572364.60948 -25350032.68247  20705631.1484                   20705629.1414
  23596155.59047  18403646.58644  23515682.3364                   23515681.8674
 -14018664.35948 -10898931.83446  21664858.1804                   21664859.1174
      9124.02348     28330.25246  21660072.3054                   21660071.3674
 -52942420.82848 -41222590.91045  21971329.7974                   21971325.9064
  32708310.30947  25500752.75443  24959613.9534                   24959613.8364
 11  8 19  2 48  0.0000000  0  9G12G30G26G05G15G25G29G02G21
 -31600626.97747 -24593540.98645  22144671.4844                   22144670.2274
 -12432157.51248  -9662084.69945  21895490.5864   21895490.1914   11445874.25847
   8941036.76544                  22614850.2974                   22614849.7854
 -32620322.83648 -25387402.72246  20696505.1414                   20696503.3164
  23400016.11747  18250810.70344  23478358.5784                   23478358.0744
 -14087147.76648 -10952295.52346  21651826.0314                   21651826.8794
   -164675.78948   -107098.14546  21626999.1024                   21626998.3284
 -52998786.44148 -41266512.17045  21960603.6724                   21960599.9104
  32552123.55546  25379048.88843  24929892.5704                   24929892.9384
 11  8 19  2 48 30.0000000  0  9G12G30G26G05G15G25G29G02G21
 -31618066.42247 -24607130.18545  22141352.7664                   22141351.8014
 -12483077.71548  -9701762.78545  21885800.9224   21885800.2814   11260605.60247
   8796671.61545                  22579594.7814                   22579593.7504
 -32667846.77748 -25424434.36146  20687461.9844                   20687459.4104
  23203927.57846  18098014.51944  23441043.5944                   23441044.1994
 -14155090.59048 -11005237.99646  21638897.4304                   21638897.9774
   -338253.69548   -242353.61946  21593968.7584                   21593967.3914
 -53055036.30148 -41310343.22645  21949899.7194                   21949895.5514
  32395969.20746  25257370.22643  24900177.5474                   24900177.1054
 11  8 19  2 49  0.0000000  0  9G12G30G26G05G15G25G29G02G21
 -31635209.49247 -24620488.43645  22138090.7274                   22138089.4184
 -12533514.74248  -9741064.37945  21876202.9614   21876202.6374   11075631.27347
   8652535.78845                  22544395.1484                   22544394.0084
 -32714940.90648 -25461131.06646  20678499.9694                   20678498.2664
  23007891.04346  17945258.87244  23403739.3364                   23403737.8364
 -14222496.84848 -11057762.35646  21626070.1724                   21626071.1294
   -511609.47748   -377436.02846  21560980.2344                   21560978.8444
 -53111171.96948 -41354085.29045  21939217.4064                   21939213.7384
  32239844.51646  25135714.69043  24870467.8914                   24870466.7584
 11  8 19  2 49 30.0000000  0  9G12G30G26G05G15G25G29G02G21
 -30076634.41047 -23406014.35545  22434677.5004                   22434675.9144
 -11008045.53948  -8552387.08245  22166490.2664   22166489.5824   12466384.69947
   9736239.77845                  22809047.1484                   22809045.8364
 -31186182.06248 -24269890.40246  20969413.1254                   20969411.4224
  24387339.70346  19020153.98344  23666239.9304                   23666239.0394
 -12713942.22348  -9882265.24946  21913138.5004                   21913139.8284
    890689.07448    715264.19946  21827828.4384                   21827827.0124
 -51591767.59048 -40170133.82445  22228350.7814                   22228346.4734
  33659177.86746  26241688.81643  25140558.5474                   25140557.7114
 11  8 19  2 50  0.0000000  0  9G12G30G26G05G15G25G29G02G21
 -30093189.28147 -23418914.25245  22431527.3914                   22431525.2974
 -11057519.34848  -8590938.10045  22157075.6094   22157074.9694   12282014.09447
   9592574.42245                  22773962.0394                   22773961.2194
 -31232418.82448 -24305919.02346  20960614.4064                   20960612.4924
  24191420.28946  18867489.57344  23628957.2894                   23628956.3874
 -12780276.29348  -9933954.11946  21900515.8524                   21900515.8284
    717789.16848    580537.02746  21794926.6724                   21794925.4924
 -51647670.20348 -40213694.29245  22217712.1334                   22217708.9734
  33503115.41446  26120081.78943  25110860.5164                   25110859.2464
 11  8 19  2 50 30.0000000  0  9G12G30G26G05G15G25G29G02G21
 -30109460.55547 -23431593.17945  22428430.8524                   22428429.0904
 -11106521.20747  -8629121.36545  22147750.8834   22147749.8524   12097945.14147
   9449144.09344                  22738934.7894                   22738934.2774
 -31278236.03148 -24341620.74646  20951895.5554                   20951893.8324
  23995558.30546  18714869.95844  23591686.6414                   23591684.8674
 -12846082.85548  -9985231.97546  21887993.1024                   21887994.0004
    545114.98848    445985.75646  21762068.1334                   21762066.6484
 -51703461.75848 -40257168.22945  22207095.8444                   22207092.0984
  33347077.68046  25998494.02342  25081167.9844                   25081165.8954
 11  8 19  2 51  0.0000000  0  9G12G30G26G05G15G25G29G02G21
 -30125449.16847 -23444051.85445  22425388.2814                   22425387.0904
 -11155051.82047  -8666937.42945  22138515.5944   22138515.0124   11914183.67647
   9305953.35845                  22703965.9384                   22703965.4774
 -31323634.03548 -24376995.79846  20943256.9224                   20943254.8594
  23799758.67246  18562298.86444  23554426.6094                   23554425.6214
 -12911361.84448 -10036098.70346  21875570.8364                   21875572.0124
    372670.42248    311613.41546  21729253.0004                   21729251.3404
 -51759139.87948 -40300553.78845  22196500.9614                   22196497.2034
  33191065.61346  25876926.25842  25051478.4224                   25051477.3204
 11  8 19  2 51 30.0000000  0  9G12G30G26G05G15G25G29G02G21
 -30141158.27347 -23456292.72346  22422399.1884                   22422397.5234
 -11203113.83247  -8704388.34745  22129370.1484   22129369.1254   11730733.25447
   9163005.00345                  22669057.1174                   22669056.1024
 -31368615.46148 -24412046.24446  20934697.1954                   20934694.8834
  23604024.19546  18409778.55444  23517179.4144                   23517178.4694
 -12976115.16448 -10086555.83046  21863248.3984                   21863249.4104
    200458.02348    177421.97446  21696481.8594                   21696480.5354
 -51814704.80948 -40343851.12745  22185926.8984                   22185923.0274
  33035078.77346  25755378.14543  25021795.5944                   25021793.9184
 11  8 19  2 52  0.0000000  0  9G12G30G26G05G15G25G29G02G21
 -30156594.08647 -23468320.63645  22419461.9144                   22419460.8444
 -11250713.05947  -8741478.65745  22120312.3054   22120310.9184   11547594.22347
   9020299.29345                  22634206.7194                   22634205.5664
 -31413185.59448 -24446776.19246  20926215.6804                   20926213.7074
  23408354.70346  18257308.93144  23479944.7504                   23479943.3634
 -13040347.97348 -10136607.36346  21851025.1724                   21851026.4414
     28476.71548     43410.60046  21663754.6414                   21663753.5314
 -51870159.04748 -40387062.21345  22175374.5314                   22175370.4614
  32879113.59046  25633846.95342  24992116.6254                   24992115.2464
 11  8 19  2 52 30.0000000  0  9G12G30G26G05G15G25G29G02G21
 -30171758.43047 -23480137.03945  22416576.3054                   22416575.0164
 -11297851.37147  -8778209.79545  22111341.7194   22111341.3754   11364771.19147
   8877839.82445                  22599416.7194                   22599415.9144
 -31457346.14848 -24481187.02346  20917812.2424                   20917810.3054
  23212754.01646  18104892.85544  23442723.2034                   23442722.2734
 -13104061.34448 -10186254.13046  21838901.1724                   21838902.2854
   -143270.16848    -90418.11146  21631072.6884                   21631070.9884
 -51925501.68748 -40430186.34345  22164843.2504                   22164839.5314
  32723170.40646  25512332.86342  24962441.1954                   24962439.4414
 11  8 19  2 53  0.0000000  0  9G12G30G26G05G15G25G29G02G21
 -30186652.39147 -23491742.72945  22413742.1564                   22413740.0824
 -11344529.17247  -8814582.10945  22102459.5864   22102459.1094   11182270.28947
   8735631.35945                  22564687.8054                   22564687.0234
 -31501097.25448 -24515278.78446  20909486.4694                   20909484.7624
  23017227.61746  17952534.69744  23405515.8594                   23405514.7814
 -13167255.09048 -10235496.00346  21826875.7734                   21826876.7194
   -314778.33648   -224060.78246  21598435.9304                   21598434.7234
 -51980730.20748 -40473221.53645  22154333.4144                   22154329.5594
  32567251.00446  25390837.30942  24932770.2584                   24932769.9454
 11  8 19  2 53 30.0000000  0  9G12G30G26G05G15G25G29G02G21
 -30201284.24647 -23503144.18545  22410957.4534                   22410956.0904
 -11390754.43747  -8850601.78945  22093663.1884   22093662.2194   11000089.77047
   8593672.56445                  22530019.8054                   22530019.0514
 -31544446.16448 -24549057.14146  20901237.6414                   20901235.6644
  22821772.96147  17800232.42444  23368321.8914                   23368320.8554
 -13229936.31248 -10284338.50346  21814948.2344                   21814949.2154
   -486050.23848   -357519.37146  21565843.4304                   21565842.2114
 -52035849.67648 -40516171.74945  22143844.3674                   22143840.6134
  32411349.37546  25269355.62542  24903103.3284                   24903101.7544
 11  8 19  2 54  0.0000000  0  9G12G30G26G05G15G25G29G02G21
 -30215656.47347 -23514343.33945  22408222.3054                   22408220.8364
 -11436529.40247  -8886270.59545  22084952.2344   22084951.9454   10818233.84047
   8451966.67445                  22495413.9774                   22495412.8404
 -31587394.98848 -24582523.74846  20893064.7814                   20893062.8674
  22626393.60947  17647988.82944  23331142.3754                   23331141.7384
 -13292106.65248 -10332782.91446  21803117.3834                   21803118.0704
   -657083.46548   -490791.97346  21533296.8204                   21533294.9574
 -52090859.38748 -40559036.45845  22133376.6334                   22133372.9734
  32255465.55146  25147887.79742  24873439.1724                   24873438.7234
 11  8 19  2 54 30.0000000  0  9G12G30G26G05G15G25G29G02G21
 -30229774.10947 -23525344.11845  22405536.0394                   22405535.1054
 -11481858.53147  -8921591.98745  22076326.5554   22076326.2544   10636704.42247
   8310515.21244                  22460869.7194                   22460868.6564
 -31629948.11748 -24615682.02246  20884967.2344                   20884965.1054
  22431090.89547  17495804.94544  23293977.6484                   23293976.2344
 -13353770.02348 -10380832.28046  21791383.1334                   21791384.2074
   -827877.48448   -623878.17746  21500796.0634                   21500794.8794
 -52145760.85947 -40601816.83245  22122928.6884                   22122925.3404
  32099596.87946  25026431.75842  24843779.2194                   24843778.2624
 11  8 19  2 55  0.0000000  0  9G12G30G26G05G15G25G29G02G21
 -30243634.85547 -23536144.70545  22402898.7734                   22402897.3754
 -11526739.53947  -8956564.20545  22067786.6804   22067785.5904   10455510.16847
   8169324.91145                  22426389.9304                   22426388.8874
 -31672102.53548 -24648529.61946  20876945.6334                   20876943.5274
  22235873.05946  17343687.21244  23256828.3674                   23256826.7074
 -13414923.19948 -10428484.09146  21779746.2734                   21779747.1684
   -998424.59048   -756772.00246  21468341.9774                   21468340.4694
 -52200548.86348 -40644508.77645  22112502.9224                   22112499.8134
  31943748.01646  24904991.17642  24814122.2344                   24814120.6804
 11  8 19  2 55 30.0000000  0  9G12G30G26G05G15G25G29G02G21
 -30257242.67247 -23546748.21645  22400308.9924                   22400307.8524
 -11571176.02047  -8991190.02245  22059330.0084   22059329.3204   10274653.93447
   8028398.00745                  22391973.9534                   22391972.6884
 -31713861.39148 -24681068.97946  20868998.8524                   20868997.0784
  22040742.02347  17191637.14644  23219696.7664                   23219695.0784
 -13475569.14848 -10475740.67846  21768205.2734                   21768206.9264
  -1168723.57048   -889472.45946  21435935.0084                   21435933.4144
 -52255223.77748 -40687112.59545  22102099.1024                   22102095.5164
  31787917.77346  24783565.10143  24784468.3444                   24784466.9384
 11  8 19  2 56  0.0000000  0  9G12G30G26G05G15G25G29G02G21
 -30270599.64147 -23557156.27045  22397767.9774                   22397765.7584
 -11615169.81647  -9025470.90745  22050958.3364   22050957.8164   10094140.21947
   7887738.00445                  22357623.2974                   22357622.5904
 -31755226.55547 -24713301.57446  20861127.5314                   20861125.5234
  21845701.77346  17039657.74444  23182581.6484                   23182579.6294
 -13535709.10548 -10522602.98546  21756761.5704                   21756762.3634
  -1338771.15248  -1021977.02446  21403575.8444                   21403574.2234
 -52309784.58247 -40729627.51645  22091715.8754                   22091712.4734
  31632106.50046  24662153.77743  24754817.2894                   24754816.5984
 11  8 19  2 56 30.0000000  0  9G12G30G26G05G15G25G29G02G21
 -30283710.72347 -23567372.70445  22395272.5944                   22395270.1524
 -11658725.46947  -9059410.38745  22042670.1094   22042669.0004
   9913971.14547   7747346.53245  22323338.7974                   22323337.1414
 -31796201.93048 -24745230.43246  20853330.2344                   20853328.1174
  21650753.39847  16887749.98444  23145484.6884                   23145482.7034
 -13595346.91448 -10569073.99546  21745412.7114                   21745413.2584
  -1508566.69948  -1154285.20746  21371265.2734                   21371263.4494
 -52364232.50847 -40772054.49045  22081354.8204                   22081351.7854
  31476311.86346  24540755.44143  24725171.3364                   24725170.5084
 11  8 19  2 57  0.0000000  0  9G12G30G26G05G15G25G29G02G21
 -28721157.07047 -22349798.43845  22692616.3054                   22692614.6484
 -10126423.02747  -7865408.48045  22334257.4454   22334256.3554
  11309577.52747   8834832.07345  22588913.4694                   22588912.3554
 -30261367.10948 -23549255.24546  21145399.4224                   21145397.7114
  23031328.02747  17963522.46044  23408197.9924                   23408197.6094
 -12079061.39548  -9387552.81346  22033952.2274                   22033953.2074
   -102680.79348    -58789.65646  21638796.3054                   21638794.5594
 -50843144.19547 -39586790.83945  22370808.8364                   22370805.1054
  32895959.91046  25646974.78043  24995321.3364                   24995320.5004
 11  8 19  2 57 30.0000000  0  9G12G30G26G05G15G25G29G02G21
 -28733786.38747 -22359639.48545  22690213.2894                   22690211.6644
 -10169111.80947  -7898672.46845  22326134.3834   22326133.6564
  11130107.55147   8694985.38545  22554761.3134                   22554760.2974
 -30301570.93448 -23580582.90146  21137749.0634                   21137746.7774
  22836572.02747  17811764.58444  23371138.1334                   23371136.5554
 -12137702.40248  -9433247.09846  22022793.4534                   22022793.9734
   -271966.28148   -190700.38746  21606582.4144                   21606580.1334
 -50897367.00448 -39629042.37945  22360490.7894                   22360486.8914
  32740196.02346  25525600.35443  24965680.0704                   24965679.9734
 11  8 19  2 58  0.0000000  0  9G12G30G26G05G15G25G29G02G21
 -28746177.94947 -22369295.27845  22687855.3524                   22687854.0514
 -10211369.84047  -7931600.81845  22318092.9694   22318091.7934
  10950993.99247   8555416.40645  22520677.3674                   22520676.2504
 -30341391.14848 -23611611.64146  21130171.3364                   21130169.5744
  22641918.50447  17660086.56744  23334096.1254                   23334095.2424
 -12195846.68748  -9478554.32246  22011728.5784                   22011729.8054
   -440991.56648   -322408.36646  21574417.7504                   21574416.3134
 -50951475.28947 -39671204.69145  22350194.0944                   22350190.1954
  32584448.46546  25404238.69043  24936042.5164                   24936041.7934
 11  8 19  2 58 30.0000000  0  9G12G30G26G05G15G25G29G02G21
 -28758332.20347 -22378766.15445  22685542.9064                   22685540.8054
 -10253197.73447  -7964193.97545  22310133.1334   22310132.6604
  10772242.95747   8416129.90845  22486661.8834                   22486661.0784
 -30380827.85248 -23642341.55946  21122666.7344                   21122664.8484
  22447372.14147  17508492.08244  23297075.3524                   23297074.3834
 -12253494.21148  -9523474.47146  22000758.7194                   22000759.6174
   -609752.37948   -453910.26146  21542303.5474                   21542301.9774
 -51005466.47348 -39713275.73845  22339920.0314                   22339916.2154
  32428718.62946  25282890.83443  24906408.1954                   24906407.5084
 11  8 19  2 59  0.0000000  0  9G12G30G26G05G15G25G29G02G21
 -28770254.64847 -22388056.38445  22683273.8674                   22683272.3134
 -10294600.16847  -7996455.63045  22302254.2194   22302253.6524
  10593855.97747   8277127.11145  22452716.2814                   22452715.0824
 -30419885.55948 -23672776.12546  21115234.6954                   21115232.7034
  22252934.60547  17356982.36744  23260074.9924                   23260073.9384
 -12310649.05948  -9568010.72146  21989882.8054                   21989882.9454
   -778248.13748   -585205.61246  21510240.0634                   21510238.0944
 -51059342.19947 -39755256.82645  22329667.5864                   22329663.8834
  32273004.28946  25161555.07643  24876777.3134                   24876776.0864
 11  8 19  2 59 30.0000000  0  9G12G30G26G05G15G25G29G02G21
 -28781947.97747 -22397168.08945  22681048.2504                   22681046.8834
 -10335579.88747  -8028387.88345  22294456.4844   22294455.4024
  10415836.87947   8138410.96445  22418840.3364                   22418839.3324
 -30458566.44948 -23702917.08346  21107873.8204                   21107871.4884
  22058608.89547  17205559.78644  23223096.0234                   23223095.6684
 -12367313.30548  -9612164.68346  21979099.6564                   21979100.5944
   -946476.08648   -716292.29946  21478227.0634                   21478225.7074
 -51113101.94148 -39797147.54945  22319437.4064                   22319433.7384
  32117304.91046  25040230.99243  24847148.4844                   24847146.8714
 11  8 19  3  0  0.0000000  0  9G12G30G26G05G15G25G29G02G21
 -28793415.48047 -22406103.82145  22678866.5164                   22678865.1954
 -10376140.32847  -8059993.42445  22286737.9454   22286737.3134
  10238188.84447   7999983.94145  22385034.9694                   22385033.6844
 -30496873.43748 -23732766.67446  21100584.1644                   21100582.2974
  21864397.54347  17054226.31845  23186139.2344                   23186138.2034
 -12423489.74248  -9655938.52946  21968409.1884                   21968410.6804
  -1114434.79748   -847169.18646  21446265.5784                   21446264.0944
 -51166745.96548 -39838948.06145  22309229.7424                   22309225.9024
  31961619.35246  24918917.59943  24817522.5634                   24817521.1414
 11  8 19  3  0 30.0000000  0  9G12G30G26G05G15G25G29G02G21
 -28804659.86347 -22414865.70045  22676726.5784                   22676725.1334
 -10416283.54747  -8091273.87045  22279099.2194   22279098.5594
  10060916.36347   7861849.56645  22351301.2034                   22351299.9344
 -30534808.26648 -23762326.27446  21093365.3914                   21093363.3164
  21670304.59847  16902985.07545  23149204.1724                   23149203.1024
 -12479179.85947  -9699333.44146  21957812.1644                   21957813.4144
  -1282120.71148   -977833.49646  21414356.1334                   21414354.5204
 -51220273.12547 -39880657.54245  22299043.5864                   22299039.6374
  31805948.13746  24797615.43443  24787898.6174                   24787897.7624
 11  8 19  3  1  0.0000000  0  9G12G30G26G05G15G25G29G02G21
 -28815685.61747 -22423457.23645  22674628.5004                   22674627.5354
 -10456013.99247  -8122232.65745  22271538.8444   22271537.6374
   9884021.34047   7724009.29745  22317638.9844                   22317637.8444
 -30572374.67648 -23791598.80346  21086216.6644                   21086214.9384
  21476331.67247  16751837.40445  23112292.4064                   23112291.4414
 -12534387.39848  -9742352.29446  21947306.5474                   21947307.4734
  -1449532.82048  -1108284.45146  21382498.6484                   21382496.9064
 -51273684.65647 -39922276.92645  22288879.5004                   22288875.4184
  31650289.28946  24676322.92744  24758277.0784                   24758277.5784
 11  8 19  3  1 30.0000000  0  9G12G30G26G05G15G25G29G02G21
 -28826492.78547 -22431878.45545  22672572.3674                   22672570.6604
 -10495331.64547  -8152869.82045  22264056.5084   22264056.4144
   9707510.35947   7586468.32445  22284049.9454                   22284049.1804
 -30609572.37948 -23820584.02646  21079138.1884                   21079136.2704
  21282484.52747  16600787.73145  23075404.2814                   23075403.2034
 -12589111.84848  -9784994.72746  21936893.2664                   21936893.8204
  -1616666.62948  -1238518.54546  21350694.1724                   21350692.4454
 -51326977.53147 -39963803.85145  22278738.0634                   22278734.9884
  31494644.98446  24555041.70143  24728660.0234                   24728658.6174
 11  8 19  3  2  0.0000000  0  9G12G30G26G05G15G25G29G02G21
 -28837087.82847 -22440134.32045  22670555.9064                   22670554.1484
 -10534242.57447  -8183190.02645  22256652.2424   22256651.0984
   9531383.67647   7449226.78045  22250534.4224                   22250532.9654
 -30646406.84847 -23849286.19846  21072128.7194                   21072126.9884
  21088763.09447  16449836.01745  23038540.5314                   23038538.7194
 -12643358.71948  -9827265.01446  21926569.9694                   21926570.6994
  -1783522.57448  -1368536.13546  21318942.5004                   21318940.9964
 -51380154.56247 -40005240.52445  22268619.3524                   22268615.5164
  31339011.40246  24433768.89944  24699043.3054                   24699042.8324
 11  8 19  3  2 30.0000000  0  9G12G30G26G05G15G25G29G02G21
 -28847478.25447 -22448230.78445  22668579.0314                   22668577.1294
 -10572754.43047  -8213199.26845  22249323.6024   22249322.7774
   9355640.45347   7312284.04745  22217091.4454                   22217090.3794
 -30682885.16048 -23877710.84746  21065187.3284                   21065185.3554
  20895165.59447  16298980.87145  23001699.7814                   23001698.3444
 -12697134.91848  -9869168.55846  21916336.7194                   21916338.0704
  -1950102.75048  -1498338.83046  21287243.2424                   21287241.3634
 -51433220.05547 -40046590.25045  22258521.1334                   22258517.1604
  31183383.61346  24312500.62643  24669428.5704                   24669427.8244
 11  8 19  3  3  0.0000000  0  9G12G30G26G05G15G25G29G02G21
 -28857664.90647 -22456168.45345  22666640.2894                   22666638.8954
 -10610867.72347  -8242897.95345  22242070.6094   22242070.0044
   9180286.77347   7175644.84645  22183722.5004                   22183721.3444
 -30719007.43748 -23905858.07546  21058313.4224                   21058311.4454
  20701697.63347  16148226.66445  22964883.9924                   22964882.6884
 -12750440.48448  -9910705.36346  21906192.6804                   21906194.1644
  -2116402.74648  -1627923.19646  21255597.2974                   21255595.8954
 -51486170.98448 -40087850.73945  22248445.2504                   22248441.1524
  31027763.55546  24191238.28643  24639815.1804                   24639814.2114
 11  8 19  3  3 30.0000000  0  9G12G30G26G05G15G25G29G02G21
 -28867649.56247 -22463948.74545  22664739.8444                   22664739.5274
 -10648584.64847  -8272287.80045  22234893.4454   22234892.5044
   9005326.67647   7039312.34545  22150428.5314                   22150427.6564
 -30754775.53948 -23933729.31946  21051507.0944                   21051505.2504
  20508363.28947  15997576.57245  22928094.2114                   22928091.9344
 -12803276.91448  -9951876.62746  21896138.7424                   21896139.9384
  -2282419.34448  -1757286.74346  21224005.5474                   21224003.7274
 -51539006.69548 -40129021.41045  22238390.5864                   22238387.3594
  30872151.13746  24069982.02443  24610202.7424                   24610201.4774
 11  8 19  3  4  0.0000000  0  9G12G30G26G05G15G25G29G02G21
 -28877438.85247 -22471576.80645  22662877.5554                   22662875.8954
 -10685910.99247  -8301373.25845  22227790.1954   22227789.7194
   8830760.87147   6903287.06745  22117209.8134                   22117208.7624
 -30790194.81648 -23961328.73546  21044766.6024                   21044764.6374
  20315162.41047  15847030.46045  22891328.6724                   22891327.9694
 -12855649.58648  -9992686.50746  21886172.5784                   21886173.2424
  -2448152.97348  -1886429.79846  21192466.9614                   21192465.7074
 -51591729.53547 -40170104.16445  22228357.3914                   22228353.6254
  30716543.26646  23948729.16343  24580592.0164                   24580590.4734
 11  8 19  3  4 30.0000000  0  9G12G30G26G05G15G25G29G02G21
 -28887034.51247 -22479053.95445  22661051.4454                   22661050.0474
 -10722848.68447  -8330155.90045  22220761.2734   22220760.6604
   8656594.18047   6767572.79545  22084066.8914                   22084065.8634
 -30825266.35248 -23988657.20346  21038093.0474                   21038090.9384
  20122099.53947  15696591.92845  22854590.5394                   22854589.0664
 -12907559.69148 -10033135.93246  21876294.2504                   21876295.0824
  -2613600.03948  -2015349.55746  21160983.8834                   21160982.6024
 -51644338.14547 -40211097.90745  22218347.0784                   22218343.0164
  30560940.71946  23827480.59243  24550981.3914                   24550980.6334
 11  8 19  3  5  0.0000000  0  9G12G30G26G05G15G25G29G02G21
 -27321019.15647 -21258782.25445  22959054.1564                   22959052.6454
  -9183979.22747  -7131036.84645  22513598.7424   22513597.9144
  10058256.23847   7859777.02545  22350794.8524                   22350793.2194
 -29284571.32848 -22788115.60846  21331277.6644                   21331275.7234
  21504604.21547  16773868.33845  23117672.2974                   23117671.2424
 -11383587.69948  -8845625.29346  22166296.5084                   22166297.5904
  -1203332.67248   -916439.88146  21429348.5864                   21429346.7814
 -50121410.06247 -39024400.71945  22508150.4924                   22508146.4694
  31980768.11346  24933839.75643  24821165.1884                   24821164.3554
 11  8 19  3  5 30.0000000  0 10G12G30G26G18G05G15G25G29G02G21
 -27330235.55947 -21265963.85645  22957300.1804                   22957298.7154
  -9220147.28947  -7159219.75045  22506716.3204   22506715.6374
   9884899.52047   7724693.88745  22317805.7974                   22317804.6254
  39107493.00056  30495004.32053  24790216.4844                   24790215.5864
 -29318953.78148 -22814907.13646  21324734.6644                   21324732.6764
  21311827.53547  16623652.80045  23080988.3834                   23080987.0164
 -11434578.85948  -8885358.67646  22156593.3444                   22156594.3484
  -1368198.65248  -1044906.84746  21397975.8284                   21397973.8094
 -50173787.85547 -39065214.57445  22498183.5314                   22498179.0784
  31825175.29746  24812598.69543  24791557.0634                   24791555.6954
 11  8 19  3  6  0.0000000  0 10G12G30G26G18G05G15G25G29G02G21
 -27339273.47747 -21273006.42145  22955580.6484                   22955579.1764
  -9255941.58647  -7187111.44445  22499904.5474   22499904.0274
   9711946.67247   7589925.46645  22284893.9844                   22284892.5514
  38918974.22346  30348106.74743  24754342.3054                   24754341.5984
 -29353001.93748 -22841438.15646  21318255.3594                   21318253.6604
  21119192.00847  16473547.23245  23044330.5944                   23044329.6174
 -11485120.73047  -8924741.95846  22146975.2194                   22146976.2154
  -1532776.95748  -1173149.65346  21366657.1334                   21366655.9304
 -50226056.13347 -39105943.10545  22488237.2114                   22488232.7894
  31669580.10546  24691355.89043  24761947.6564                   24761946.7034
 11  8 19  3  6 30.0000000  0 10G12G30G26G18G05G15G25G29G02G21
 -27348140.96147 -21279916.15445  22953893.5474                   22953892.8324
  -9291370.14147  -7214718.08145  22493162.7974   22493161.9614
   9539396.22748   7455470.61845  22252058.8364                   22252057.2704
  38730627.61746  30201343.42242  24718500.6174                   24718500.5824
 -29386723.26247 -22867714.50646  21311838.5784                   21311837.1024
  20926695.56647  16323550.04945  23007699.7034                   23007698.5004
 -11535220.80948  -8963780.98446  22137441.2344                   22137442.6684
  -1697070.31648  -1301170.41846  21335393.4844                   21335391.7814
 -50278219.90247 -39146590.20345  22478310.6414                   22478306.6454
  31513977.21946  24570106.91643  24732338.0864                   24732335.9804
 11  8 19  3  7  0.0000000  0 10G12G30G26G18G05G15G25G29G02G21
 -27356838.42647 -21286693.41545  22952237.8444                   22952236.6134
  -9326433.23046  -7242039.98145  22486490.7894   22486489.7774
   9367254.23848   7321334.03045  22219301.3984                   22219299.9384
  38542457.18846  30054717.39542  24682692.9614                   24682693.3984
 -29420117.41447 -22893735.92546  21305484.1724                   21305482.1484
  20734344.52747  16173666.15945  22971096.2194                   22971094.7344
 -11584878.80148  -9002475.53046  22127992.0314                   22127993.3404
  -1861073.52748  -1428965.10246  21304184.2894                   21304182.7194
 -50330275.89847 -39187153.33045  22468404.6884                   22468400.5554
  31358368.82846  24448853.71343  24702726.3674                   24702724.8714
 11  8 19  3  7 30.0000000  0 10G12G30G26G18G05G15G25G29G02G21
 -27365367.55947 -21293339.50345  22950615.2274                   22950614.2584
  -9361132.71547  -7269078.54445  22479887.7734   22479886.3634
   9195525.43847   7187519.40045  22186622.3914                   22186621.3134
  38354465.77046  29908230.77342  24646919.2734                   24646919.3014
 -29453185.95348 -22919503.61646  21299191.2894                   21299189.3674
  20542142.83647  16023898.63745  22934521.3594                   22934520.0084
 -11634096.10548  -9040826.68746  22118626.2974                   22118627.3984
  -2024783.11748  -1556530.99346  21273031.7194                   21273030.0944
 -50382222.50447 -39227631.20945  22458519.6254                   22458515.0744
  31202755.36746  24327596.65743  24673113.9064                   24673111.9734
 11  8 19  3  8  0.0000000  0 10G12G30G26G18G05G15G25G29G02G21
 -27373733.51247 -21299858.44345  22949022.7894                   22949021.7664
  -9395473.36746  -7295837.48845  22473352.7344   22473351.2584
   9024211.82047   7054028.29745  22154022.5394                   22154021.2814
  38166652.51646  29761882.97742  24611179.7114                   24611179.3364
 -29485932.62547 -22945020.50546  21292959.5394                   21292957.9844
  20350091.73047  15874248.45945  22897975.5004                   22897974.2894
 -11682876.87948  -9078837.66746  22109343.7584                   22109344.6604
  -2188198.44148  -1683867.58346  21241934.8914                   21241933.2234
 -50434061.41447 -39268025.17645  22448654.8984                   22448650.8984
  31047134.66846  24206333.90543  24643499.6564                   24643498.4774
 11  8 19  3  8 30.0000000  0 10G12G30G26G18G05G15G25G29G02G21
 -27381934.84047 -21306249.10845  22947462.3524                   22947461.2894
  -9429453.82447  -7322315.76545  22466886.1024   22466885.1914
   8853320.92647   6920866.60045  22121502.9614                   22121501.4804
  37979023.13746  29615678.49242  24575474.3834                   24575473.9494
 -29518355.86748 -22970285.37546  21286789.9384                   21286787.7424
  20158198.83647  15724721.55745  22861459.6564                   22861457.9534
 -11731219.35248  -9116507.14346  22100144.2114                   22100145.4964
  -2351312.68748  -1810969.56146  21210894.7894                   21210893.3874
 -50485787.50847 -39308331.23845  22438811.5084                   22438808.4574
  30891510.82846  24085068.69243  24613885.3444                   24613883.3134
 11  8 19  3  9  0.0000000  0 10G12G30G26G18G05G15G25G29G02G21
 -27389973.79347 -21312513.23745  22945932.6724                   22945931.5084
  -9463076.51647  -7348515.27645  22460488.5004   22460487.5084
   8682857.14147   6788037.71945  22089064.4454                   22089063.5394
  37791579.54346  29469618.75842  24539805.0634                   24539804.1134
 -29550457.20348 -22995299.39246  21280680.9844                   21280679.0354
  19966468.02347  15575320.97345  22824974.3674                   22824973.2154
 -11779125.39148  -9153836.54246  22091028.2194                   22091029.7934
  -2514123.05948  -1937834.74946  21179913.3754                   21179911.5744
 -50537399.93447 -39348548.71245  22428990.4064                   22428986.1524
  30735883.88746  23963801.06343  24584269.8754                   24584269.3674
 11  8 19  3  9 30.0000000  0 10G12G30G26G18G05G15G25G29G02G21
 -27397852.09047 -21318652.17945  22944433.6024                   22944432.7544
  -9496343.14847  -7374437.31745  22454158.2734   22454156.5944
   8512825.12547   6655545.26745  22056708.4844                   22056707.0434
  37604324.26646  29323705.72342  24504170.9224                   24504169.8984
 -29582238.03547 -23020063.67846  21274633.4454                   21274631.5354
  19774903.72347  15426050.13545  22788520.5004                   22788519.8754
 -11826596.20348  -9190826.78246  22081994.8364                   22081995.7194
  -2676625.75848  -2064460.20746  21148990.0784                   21148988.4844
 -50588896.85947 -39388676.18945  22419190.3914                   22419187.0274
  30580254.82846  23842531.80643  24554655.8594                   24554654.1844
 11  8 19  3 10  0.0000000  0 10G12G30G26G18G05G15G25G29G02G21
 -27405569.78147 -21324665.99945  22942965.2584                   22942963.8134
  -9529253.64547  -7400081.86345  22447895.2274   22447894.7304
   8343231.68847   6523394.56445  22024435.8204                   22024434.7854
  37417261.82446  29177942.94142  24468574.2114                   24468572.6134
 -29613697.54348 -23044577.58046  21268647.0864                   21268645.0004
  19583512.22747  15276913.94045  22752099.9064                   22752098.6994
 -11873631.21148  -9227477.43446  22073044.3594                   22073045.5004
  -2838815.05148  -2190841.43946  21118126.9844                   21118124.8714
 -50640274.98047 -39428711.09645  22409413.8524                   22409409.5044
  30424626.23846  23721262.89543  24525039.8524                   24525039.0594
 11  8 19  3 10 30.0000000  0 10G12G30G26G18G05G15G25G29G02G21
 -27413134.08647 -21330560.25145  22941525.3674                   22941523.6764
  -9561815.18746  -7425454.52145  22441699.1564   22441698.7384
   8174075.85947   6391584.85645  21992246.7344                   21992245.4844
  37230389.60546  29032328.38342  24433013.2584                   24433011.8954
 -29644842.66847 -23068846.51046  21262719.9924                   21262718.1564
  19392292.50047  15127911.60445  22715711.7274                   22715710.3554
 -11920237.09048  -9263793.70446  22064175.6484                   22064176.8714
  -3000692.73448  -2316979.86446  21087322.2424                   21087320.4654
 -50691537.63347 -39468656.01145  22399658.8674                   22399654.7154
  30268993.75846  23599990.91243  24495424.4534                   24495422.6994
 11  8 19  3 11  0.0000000  0 10G12G30G26G18G05G15G25G29G02G21
 -27420543.53147 -21336333.86445  22940115.1484                   22940114.2234
  -9594026.56647  -7450554.31745  22435569.1094   22435568.3324
   8005365.76648   6260122.47745  21960142.2814                   21960140.8754
  37043712.98846  28886866.31743  24397490.2344                   24397488.4694
 -29675670.90648 -23092868.51246  21256853.8444                   21256851.6294
  19201251.84447  14979048.80345  22679358.2344                   22679357.2974
 -11966412.12948  -9299774.26646  22055388.4144                   22055389.6334
  -3162252.25848  -2442870.38246  21056578.4924                   21056576.6604
 -50742680.64147 -39508507.71445  22389926.6334                   22389922.7854
  30113360.98846  23478718.82443  24465808.1954                   24465806.1644
 11  8 19  3 11 30.0000000  0 10G12G30G26G18G05G15G25G29G02G21
 -27427802.67647 -21341990.35645  22938733.9774                   22938733.2344
  -9625892.15647  -7475384.64645  22429505.2974   22429504.4614
   7837103.33648   6129008.94945  21928122.6954                   21928121.8524
  36857232.00046  28741556.47343  24362003.6094                   24362002.7154
 -29706186.45748 -23116646.85346  21251046.8914                   21251044.8164
  19010392.93447  14830327.61345  22643038.9144                   22643037.8984
 -12012160.21948  -9335422.13746  22046682.9534                   22046684.4144
  -3323492.55948  -2568512.13346  21025895.0314                   21025893.7154
 -50793704.67647 -39548266.72445  22380216.8284                   22380213.5514
  29957726.28946  23357445.15743  24436192.1884                   24436190.5784
 11  8 19  3 12  0.0000000  0 10G12G30G26G18G05G15G25G29G02G21
 -27434913.53547 -21347531.32445  22937380.8984                   22937379.9104
  -9657413.98447  -7499947.13345  22423507.4224   22423506.2424
   7669293.11748   5998247.76445  21896189.8444                   21896188.4534
  36670948.90246  28596400.96143  24326555.3914                   24326554.7974
 -29736390.48848 -23140182.45346  21245299.2424                   21245297.0784
  18819718.70347  14681750.33645  22606755.0474                   22606753.7154
 -12057483.02748  -9370738.61446  22038058.6724                   22038059.9144
  -3484409.96148  -2693902.29446  20995273.8134                   20995272.1214
 -50844608.50447 -39587932.06345  22370530.6174                   22370526.4304
  29802089.94947  23236170.22843  24406575.5704                   24406574.0354
 11  8 19  3 12 30.0000000  0 10G12G30G26G18G05G15G25G29G02G21
 -27441881.02047 -21352960.54745  22936055.0164                   22936053.5234
  -9688596.94147  -7524245.55845  22417573.2504   22417572.6414
   7501936.66048   5867840.16645  21864342.5394                   21864341.7854
  36484862.91846  28451399.02743  24291144.3914                   24291143.6374
 -29766287.41848 -23163478.75246  21239609.9144                   21239607.6804
  18629230.37947  14533317.94245  22570505.7504                   22570505.0204
 -12102384.91048  -9405727.10846  22029513.7814                   22029515.0474
  -3645003.87548  -2819040.38446  20964713.6954                   20964712.0744
 -50895393.30547 -39627504.64645  22360866.2734                   22360862.4344
  29646450.05546  23114892.55643  24376957.9534                   24376956.4614
 11  8 19  3 13  0.0000000  0 10G12G30G26G18G05G15G25G29G02G21
 -25873286.48047 -20130679.11245  23234549.1724                   23234547.6954
  -8144021.98447  -6320680.66845  22711496.0164   22711495.6374
   8910464.00447   6965393.95645  22132376.6884                   22132374.7974
  37874403.00846  29534157.70043  24555564.5084                   24555564.4534
 -28220457.57848 -21958936.00946  21533771.4844                   21533769.4614
  20014359.67647  15612639.51445  22834087.4534                   22834086.0234
 -10571445.84848  -8212787.58246  22320842.2344                   22320842.6644
  -2229845.78548  -1716319.76946  21234009.5234                   21234007.7624
 -49370635.63747 -38439381.79945  22651018.0944                   22651014.3054
  31066232.23847                  24221216.40443  24647133.3204   24647131.8754
 11  8 19  3 13 30.0000000  0 10G12G30G26G18G05G15G25G29G02G21
 -25879973.58647 -20135889.84145  23233276.4224                   23233274.8634
  -8174534.12547  -6344456.36745  22705689.6414   22705689.2584
   8744027.72348   6835703.36445  22100705.2424                   22100703.5204
  37688717.66046  29389467.96643  24520229.3914                   24520229.7854
 -28249745.33248 -21981757.64246  21528198.3284                   21528196.0474
  19824256.45747  15464507.18045  22797911.9774                   22797910.4844
 -10615511.40648  -8247124.40446  22312456.5784                   22312457.7504
  -2389784.07448  -1840946.96746  21203573.9224                   21203572.2774
 -49421178.65247 -38478765.95545  22641399.8914                   22641396.1954
  30910586.12146                  24099933.86143  24617514.4454   24617513.6134
 11  8 19  3 14  0.0000000  0 10G12G30G26G18G05G15G25G29G02G21
 -25886528.76647 -20140997.77345  23232029.2424                   23232027.5164
  -8204718.93447  -6367977.02645  22699945.5234   22699944.8204
   8578053.25847   6706372.64045  22069120.7034                   22069119.1914
  37503231.18946  29244933.19843  24484933.3054                   24484932.4344
 -28278735.66048 -22004347.50446  21522681.8444                   21522679.6484
  19634346.99247  15316525.82345  22761773.3054                   22761772.1454
 -10659166.32448  -8281141.21446  22304149.0634                   22304150.5664
  -2549393.91047  -1965318.23646  21173201.1414                   21173199.6764
 -49471603.87147 -38518058.33645  22631804.3444                   22631800.9654
  30754932.81347                  23978645.79444  24587894.6564   24587893.2504
 11  8 19  3 14 30.0000000  0 10G12G30G26G18G05G15G25G29G02G21
 -25892951.52347 -20146002.54044  23230806.8284                   23230805.4734
  -8234576.28147  -6391242.48845  22694264.0314   22694263.5634
   8412547.15647   6577406.88345  22037626.0004                   22037624.7234
  37317947.87946  29100556.73143  24449674.7664                   24449673.9064
 -28307427.56248 -22026704.83046  21517221.8754                   21517219.7584
  19444637.69147  15168700.44045  22725672.5474                   22725671.6684
 -10702409.85948  -8314837.50046  22295920.5704                   22295921.1914
  -2708669.81248  -2089429.29946  21142892.0004                   21142890.2504
 -49521907.37547 -38557255.88845  22622231.7194                   22622228.2034
  30599275.25047                  23857354.27844  24558274.1334   24558272.6134
 11  8 19  3 15  0.0000000  0 10G12G30G26G18G05G15G25G29G02G21
 -25899245.21947 -20150906.69944  23229608.8914                   23229607.0984
  -8264109.85247  -6414255.70445  22688644.2034   22688643.3204
   8247512.21147   6448808.27345  22006221.0784                   22006219.9454
  37132868.57846  28956339.24643  24414454.8594                   24414454.3554
 -28335824.21148 -22048832.08746  21511817.7734                   21511815.5634
  19255131.04747  15021032.96545  22689610.3524                   22689609.6174
 -10745245.37548  -8348215.82346  22287768.8834                   22287769.8714
  -2867609.82448  -2213278.63546  21112646.6954                   21112644.9104
 -49572089.61347 -38596358.96245  22612682.3524                   22612679.2584
  30443612.67647                  23736058.86044  24528652.3364   24528650.3094
 11  8 19  3 15 30.0000000  0 10G12G30G26G18G05G15G25G29G02G21
 -25905412.79347 -20155712.61944  23228435.1804                   23228433.8524
  -8293322.55947  -6437018.84545  22683085.0784   22683084.3834
   8082952.05147   6320579.60445  21974905.9144                   21974905.1524
  36947994.49646  28812281.64043  24379274.7974                   24379274.0354
 -28363927.80148 -22070730.98546  21506470.2194                   21506467.8984
  19065830.50047  14873526.08845  22653588.5394                   22653587.0904
 -10787675.34848  -8381278.16846  22279694.8914                   22279695.9574
  -3026211.75848  -2336864.53646  21082466.0164                   21082464.4534
 -49622149.61347 -38635366.76645  22603156.4384                   22603152.6054
  30287944.19146                  23614758.91043  24499029.7194   24499028.6564
 11  8 19  3 16  0.0000000  0 10G12G30G26G18G05G15G25G29G02G21
 -25911458.98447 -20160423.96344  23227284.9614                   23227283.5824
  -8322218.73047  -6459535.37145  22677586.3134   22677586.0204
   7918868.83647   6192722.59445  21943682.2974                   21943681.0084
  36763325.58246  28668383.94143  24344133.0004                   24344132.3054
 -28391741.85948 -22092404.27446  21501177.2504                   21501175.1254
  18876738.03947  14726181.33745  22617605.4064                   22617603.5394
 -10829703.63747  -8414027.50046  22271696.9924                   22271698.1454
  -3184474.17648  -2460185.87246  21052349.7584                   21052347.7424
 -49672088.18747 -38674279.92245  22593653.6024                   22593650.0824
  30132268.68046                  23493453.40243  24469405.2664   24469403.8404
 11  8 19  3 16 30.0000000  0 10G12G30G26G18G05G15G25G29G02G21
 -25917386.84047 -20165043.07944  23226156.3444                   23226155.1764
  -8350801.94146  -6481808.00045  22672147.1254   22672146.6804
   7755265.35247   6065239.37745  21912549.4534                   21912548.1644
  36578862.80946  28524646.76943  24309030.9064                   24309029.5594
 -28419269.41448 -22113854.32746  21495938.7504                   21495936.6954
  18687856.35947  14579000.86545  22581661.8754                   22581660.0044
 -10871333.43747  -8446466.31445  22263775.0234                   22263776.2814
  -3342395.23847  -2583241.22446  21022298.1884                   21022296.1454
 -49721905.47747 -38713098.60845  22584173.5394                   22584169.2624
  29976584.99246                  23372141.58343  24439779.3754   24439778.2704
 11  8 19  3 17  0.0000000  0 10G12G30G26G18G05G15G25G29G02G21
 -25923198.56247 -20169571.72744  23225050.2814                   23225049.2974
  -8379074.41847  -6503838.53445  22666767.4384   22666766.6724
   7592145.75047   5938133.23945  21881509.0164                   21881507.5434
  36394607.95346  28381071.66143  24273968.2344                   24273966.9694
 -28446511.96148 -22135082.28446  21490754.5864                   21490752.7424
  18499189.09847  14431987.44545  22545759.6564                   22545758.4654
 -10912566.58647  -8478596.05346  22255929.1024                   22255930.1214
  -3499971.68047  -2706028.02146  20992312.4144                   20992310.4844
 -49771600.19147 -38751821.75845  22574717.0004                   22574712.7154
  29820893.77047                  23250823.91043  24410152.7194   24410150.8524
 11  8 19  3 17 30.0000000  0 10G12G30G26G18G05G15G25G29G02G21
 -25928894.10547 -20174009.86445  23223966.9924                   23223965.3914
  -8407036.45747  -6525627.12645  22661445.9844   22661444.7894
   7429516.35547   5811409.03745  21850561.4384                   21850560.0664
  36210565.29746  28237661.92343  24238946.4064                   24238945.0744
 -28473468.90248 -22156087.69846  21485625.2504                   21485622.7894
  18310742.40647  14285145.90545  22509899.4844                   22509898.2544
 -10953402.93447  -8510416.60346  22248158.3524                   22248159.6524
  -3657198.23848  -2828542.20046  20962393.0234                   20962391.1764
 -49821168.91047 -38790446.74645  22565284.4694                   22565280.4064
  29665197.55946                  23129502.30543  24380524.3284   24380522.9454
 11  8 19  3 18  0.0000000  0 10G12G30G26G18G05G15G25G29G02G21
 -25934476.28547 -20178359.61545  23222904.9224                   23222903.6334
  -8434690.65247  -6547175.84145  22656183.7894   22656182.3594
   7267380.97347   5685069.81245  21819708.2344                   21819706.5274
  36026736.40646  28094418.72643  24203964.4774                   24203962.7934
 -28500142.22348 -22176872.11246  21480549.4384                   21480547.3594
  18122520.28547  14138479.36645  22474082.0634                   22474080.4064
 -10993844.77747  -8541929.73746  22240462.6174                   22240463.8554
  -3814071.96148  -2950781.45946  20932540.9844                   20932539.4964
 -49870610.89147 -38828972.98745  22555875.9304                   22555872.5004
  29509496.42647                  23008176.84343  24350895.6414   24350894.0704
